GFSCGP_sfc_temp_000.txt.gz
Temp
70 63 59 66 68 70 67 65 64 69 72 66 63 63 67 68 66 64 65 68 68 69 70 69 67 66 64 64 63 63 63 62 60 58 55 55 54 56 56 57 60 60 60 60
66 58 70 75 73 69 68 63 62 68 69 65 63 62 68 71 66 65 65 66 68 69 70 68 65 63 63 63 63 62 63 62 60 57 56 55 55 55 56 57 58 59 60 59
64 69 75 72 68 66 64 62 63 63 65 66 61 56 61 69 73 70 68 69 70 70 69 67 62 61 61 61 61 62 62 62 60 59 57 56 55 55 54 55 55 57 60 59
68 74 69 66 66 68 59 68 68 64 58 49 62 46 60 67 66 70 71 68 68 69 70 69 64 62 61 60 62 62 62 62 61 59 56 53 51 49 52 53 54 56 59 58
64 64 63 63 66 70 62 65 63 62 56 54 56 48 55 66 62 67 70 71 68 69 69 67 65 64 64 62 60 60 61 61 60 58 56 53 52 52 53 53 54 54 56 58
67 70 69 68 71 69 66 62 59 58 53 42 54 54 53 61 67 68 70 71 69 68 68 67 66 65 63 61 60 59 59 59 59 57 56 54 52 52 51 51 51 51 53 53
64 65 69 71 61 63 61 54 44 41 40 41 59 55 59 66 67 67 67 67 67 66 65 64 63 62 61 58 58 58 57 56 57 57 56 55 54 53 52 52 50 51 50 51
56 53 63 68 63 57 56 56 47 39 41 48 55 46 57 70 68 67 69 68 66 64 64 62 63 62 61 60 58 57 57 56 57 57 56 56 55 52 52 53 52 51 50 51
57 58 71 69 69 67 58 50 60 51 54 47 52 59 66 69 63 64 65 64 62 62 62 62 63 63 62 60 59 59 57 57 57 57 56 56 55 54 52 53 53 51 52 56
64 55 67 66 67 66 62 63 48 48 38 37 49 52 53 61 62 62 61 60 61 62 62 62 63 62 63 62 61 61 59 57 57 57 56 57 55 55 54 53 52 52 53 53
66 60 58 57 55 55 54 52 55 54 51 41 42 48 64 63 65 64 62 62 61 61 62 63 63 63 61 61 60 59 59 58 57 57 56 55 54 55 54 53 53 53 53 53
68 60 52 53 63 65 62 57 57 48 45 51 51 51 69 63 68 68 65 65 62 62 61 62 62 61 61 59 59 58 57 57 57 57 56 55 54 54 53 53 53 54 53 54
64 56 47 51 55 58 55 60 61 59 55 50 46 51 66 63 64 65 64 63 63 62 60 60 60 61 61 60 59 57 57 56 57 57 55 54 53 52 51 52 53 54 54 54
61 57 53 45 52 56 50 56 59 57 49 50 51 55 61 60 61 61 61 63 63 63 62 60 58 60 60 60 60 58 57 57 56 55 54 52 51 52 51 52 52 53 54 54
59 51 56 58 61 62 60 57 56 54 55 50 55 56 63 66 64 63 65 64 63 63 62 61 59 59 58 58 58 58 57 57 56 54 53 51 52 52 52 52 52 53 52 53
49 43 51 52 59 59 57 60 60 57 57 57 57 56 67 66 65 64 66 66 64 64 63 63 61 61 60 59 57 57 56 55 55 53 52 53 53 53 51 51 51 51 51 50
38 38 39 37 53 55 49 56 59 60 61 58 51 59 62 64 65 67 64 64 63 63 63 62 61 61 60 58 60 55 55 56 54 53 53 53 53 52 51 52 51 49 48 49
39 38 36 34 42 35 55 65 65 61 63 62 62 63 64 64 65 65 64 62 62 63 62 60 60 58 57 57 56 56 56 54 53 52 52 52 52 51 51 50 48 47 48 48
46 42 36 33 34 43 55 60 59 55 54 63 61 63 65 67 62 60 66 64 62 61 61 59 58 56 55 55 55 54 53 52 52 51 51 52 52 50 49 47 46 46 47 47
49 47 39 35 32 32 47 61 64 60 45 60 61 63 63 62 52 58 62 63 61 62 60 58 58 58 55 54 54 52 50 50 49 51 52 52 51 49 48 47 46 46 46 49
39 37 32 32 30 37 52 62 61 45 48 58 60 63 62 57 60 60 62 60 61 59 58 58 57 55 54 54 53 50 49 48 51 53 53 52 50 49 48 47 46 46 46 47
37 33 32 35 31 30 48 49 43 45 53 55 58 59 56 56 56 57 57 57 57 56 56 56 53 52 53 54 52 50 48 51 53 52 51 50 49 51 53 46 45 45 45 44
33 39 34 35 37 44 49 47 48 51 51 54 54 54 56 54 55 55 53 54 56 56 55 54 52 51 53 53 52 49 50 52 52 50 48 48 49 49 49 46 45 44 44 43
43 47 38 36 45 45 49 53 53 51 49 53 56 56 56 54 54 54 53 53 54 55 54 53 52 51 50 52 53 51 52 53 51 48 47 47 46 47 47 48 47 44 43 41
41 44 41 41 46 49 50 50 52 52 52 53 56 56 54 53 54 54 54 54 55 54 54 52 51 51 51 51 52 52 53 52 48 47 47 46 47 46 45 46 45 46 43 44
42 40 37 38 49 48 50 54 55 51 52 55 54 54 56 56 55 55 55 54 55 54 52 51 53 51 51 51 51 52 52 50 48 46 46 45 45 44 44 43 44 52 51 51

GFSCGP_sfc_temp_003.txt.gz
Temp
61 53 48 53 56 58 57 56 55 59 65 60 57 58 59 60 60 58 57 59 62 62 65 64 63 61 60 59 58 57 58 56 55 53 52 51 51 51 52 54 57 57 56 57
55 49 59 63 62 61 59 55 54 60 63 61 56 57 62 60 61 62 61 61 62 63 60 62 61 59 58 58 58 57 58 57 55 53 52 51 50 51 52 53 55 56 56 57
50 59 67 64 61 60 58 55 53 55 59 60 55 50 55 63 64 65 64 65 65 64 62 61 59 59 57 56 57 56 56 57 55 55 53 52 51 50 50 51 52 54 56 56
56 66 65 60 60 61 52 61 61 59 52 43 54 44 51 60 61 62 63 61 62 64 66 62 60 58 58 57 56 58 57 56 56 55 52 50 48 47 48 49 50 52 55 55
55 59 58 57 60 63 56 62 58 57 50 44 47 42 46 56 56 60 62 62 62 65 64 61 60 60 59 59 56 56 56 56 56 53 52 50 48 48 49 49 51 51 52 54
57 65 62 62 64 64 62 58 55 51 46 36 46 45 53 52 61 61 60 63 64 64 65 63 62 61 59 59 57 55 55 55 55 53 52 51 49 49 48 48 48 48 49 50
54 58 62 66 56 58 57 48 37 35 33 35 51 46 55 58 62 64 65 61 62 64 63 59 58 58 58 56 56 56 55 53 53 53 53 52 50 50 49 49 47 47 48 48
43 44 57 62 60 52 51 50 38 31 32 42 49 41 53 64 71 66 66 63 59 60 63 61 60 59 58 58 57 58 54 53 53 53 52 52 53 49 49 49 48 48 48 48
46 48 61 62 62 62 50 47 56 43 43 37 44 49 58 60 59 59 60 59 58 59 59 59 59 59 58 58 57 57 55 54 54 53 52 52 52 51 49 50 49 48 49 52
54 48 60 61 61 59 54 55 43 41 33 30 40 42 47 57 65 58 56 57 57 58 56 57 59 58 58 58 57 57 57 55 55 53 53 53 51 52 51 50 49 49 49 50
60 50 53 53 50 52 49 50 48 47 40 33 35 39 54 61 61 56 60 57 57 57 58 58 58 58 57 58 57 57 56 56 54 55 53 52 51 52 51 50 50 50 50 50
60 54 48 53 55 60 59 55 55 43 37 43 47 48 59 61 61 60 58 60 57 58 57 57 56 56 57 57 57 58 57 56 56 54 52 51 52 51 49 49 49 50 49 50
51 49 44 48 48 50 48 54 54 56 45 46 43 48 63 68 65 59 60 58 59 59 56 56 54 56 57 57 56 56 56 56 55 53 51 51 51 49 48 48 49 50 49 50
54 49 47 42 49 51 45 50 54 51 45 47 48 52 55 56 57 58 57 58 59 60 59 57 57 57 57 57 56 56 54 55 53 52 50 49 49 49 49 49 49 49 50 49
45 39 42 41 43 46 50 54 53 50 52 47 52 52 58 61 59 58 59 59 56 57 57 57 56 56 56 55 57 56 55 54 53 52 50 49 49 49 49 48 49 49 49 50
45 34 36 34 40 40 38 44 47 54 55 54 55 55 60 63 60 58 58 61 58 59 59 59 60 58 56 57 56 57 55 54 53 50 49 50 50 49 48 48 48 47 47 47
39 37 34 29 40 37 31 42 48 52 58 57 49 57 61 63 64 66 62 58 60 61 60 60 59 58 59 58 57 55 55 53 52 50 50 50 50 49 48 49 47 46 45 45
38 36 36 29 34 25 43 53 53 52 56 60 60 62 59 63 65 63 62 58 61 63 61 61 60 58 58 55 55 54 54 53 51 49 49 49 49 49 48 47 45 44 44 44
43 38 33 30 31 38 44 50 49 41 41 55 57 62 58 60 58 60 63 60 60 59 58 60 59 55 54 54 54 54 51 50 49 48 48 49 49 47 46 45 43 44 43 43
43 40 35 34 28 25 42 48 52 48 37 45 45 49 50 55 49 59 62 62 58 58 56 54 54 54 54 52 53 52 49 48 47 48 49 49 48 47 45 44 43 43 43 44
31 31 30 31 30 34 46 51 50 35 35 43 44 46 47 45 56 64 62 58 57 57 54 55 55 54 52 52 52 49 47 46 48 50 50 48 47 46 46 44 43 42 42 43
30 28 27 28 27 24 47 47 40 42 43 44 44 45 46 49 51 54 55 56 55 53 53 54 52 51 52 52 52 47 46 48 49 49 48 47 46 48 50 44 42 42 41 40
27 35 31 32 34 45 49 48 50 47 46 46 45 46 49 49 51 51 50 52 53 52 52 53 51 49 50 50 51 46 47 48 49 47 46 45 47 46 45 42 42 41 41 40
37 39 34 34 42 43 46 51 53 51 48 52 49 48 49 50 52 51 50 51 52 52 50 51 51 49 47 48 49 49 48 49 48 45 44 44 43 44 43 44 43 41 40 39
38 36 35 34 41 44 47 49 51 51 52 55 54 51 48 48 51 54 52 51 50 50 50 52 52 50 49 49 49 49 49 49 47 45 44 43 44 42 42 42 42 43 42 41
40 37 31 33 44 42 45 50 53 52 53 55 54 53 51 50 50 53 51 51 50 50 51 51 51 51 51 50 49 49 49 49 47 45 43 42 42 41 41 40 41 48 50 51

GFSCGP_sfc_temp_006.txt.gz
Temp
57 50 46 50 53 53 52 50 51 55 62 56 55 57 60 60 56 57 56 57 58 61 66 62 61 59 57 56 54 54 54 54 53 50 49 49 49 50 50 51 54 55 54 55
51 46 57 58 57 55 54 50 49 55 61 57 54 54 60 57 56 59 60 58 58 61 60 60 62 59 59 57 56 53 56 54 53 51 50 50 49 49 51 51 52 54 54 54
46 54 61 59 55 54 53 52 50 53 56 55 52 51 53 58 61 63 63 63 62 62 62 60 61 59 58 58 56 56 55 55 53 53 50 49 49 48 48 49 50 52 54 54
52 61 60 55 55 57 50 57 58 56 50 43 52 45 48 54 56 57 62 64 62 63 65 63 61 60 58 60 58 57 56 55 54 52 50 49 47 46 47 48 49 51 52 53
51 56 53 55 58 59 55 59 57 55 47 41 46 40 42 51 53 59 60 63 63 65 65 62 61 61 61 60 58 58 55 55 54 52 50 48 46 47 47 47 48 48 50 51
55 60 59 58 62 61 60 54 50 46 43 35 47 44 52 51 58 63 67 63 63 62 63 64 63 62 60 59 58 55 54 55 53 52 50 49 48 47 46 46 46 47 47 48
50 56 60 64 55 56 55 47 36 34 32 36 48 43 54 55 57 59 64 65 58 60 61 60 58 58 57 56 56 55 54 53 53 52 51 49 49 48 47 47 46 46 46 46
42 45 53 60 60 53 49 49 38 31 32 42 45 39 52 58 68 70 66 63 58 56 60 58 59 58 57 57 56 57 54 54 52 52 51 50 50 47 47 47 46 46 46 47
43 44 57 59 63 60 51 44 53 43 38 34 39 46 55 57 58 58 58 59 58 56 59 58 58 58 57 57 57 57 54 55 53 53 52 49 50 48 47 48 47 46 47 50
49 44 57 60 57 56 54 54 41 38 33 31 40 38 46 51 61 62 56 56 58 55 56 57 56 57 57 58 58 58 56 55 54 53 53 52 50 49 49 48 47 47 47 48
51 47 49 51 49 49 47 48 45 43 40 37 38 44 51 59 61 59 59 59 59 56 57 57 57 57 57 57 57 56 55 55 54 54 52 50 50 49 49 48 48 48 48 48
50 44 40 47 58 60 58 54 53 44 41 36 45 47 55 56 57 58 63 59 55 56 54 55 54 53 54 55 54 54 55 55 55 54 53 52 50 49 48 48 48 48 48 48
48 42 36 41 48 49 45 49 52 51 51 45 41 46 60 62 63 59 57 57 56 57 53 52 50 53 54 55 54 55 55 55 55 54 52 50 49 48 48 48 48 48 48 47
49 42 39 34 36 36 35 36 42 39 41 45 46 50 58 56 55 58 57 56 56 57 57 55 53 54 55 56 55 55 55 55 54 53 51 50 49 48 47 48 48 48 48 47
46 35 39 38 42 42 39 38 36 34 36 32 38 45 57 62 62 64 63 56 54 54 54 54 54 54 55 54 55 55 55 54 54 53 50 50 49 48 48 47 47 47 47 47
41 33 39 35 40 39 37 39 40 38 40 40 45 45 59 64 61 61 63 59 57 56 58 58 57 56 55 55 55 55 54 53 54 53 51 50 49 47 47 47 46 46 45 44
38 35 29 28 38 38 31 39 40 43 47 44 36 42 49 45 50 60 59 60 61 62 59 58 58 57 57 56 57 54 53 54 53 52 51 50 49 47 47 47 46 44 43 43
36 35 33 27 32 21 40 50 49 46 48 46 44 44 43 42 46 49 59 66 63 60 61 60 60 59 57 57 56 55 54 53 52 50 50 49 48 47 46 45 44 42 42 42
39 37 31 27 24 34 39 47 45 40 39 44 41 41 43 43 43 48 58 54 59 61 62 63 63 59 54 55 54 53 52 52 51 49 49 49 48 46 45 43 42 42 41 42
41 40 32 26 16 18 38 46 50 47 32 43 44 42 40 41 33 40 50 52 53 55 62 60 57 53 53 53 53 51 50 50 50 49 49 48 47 45 43 43 42 42 41 43
29 30 27 28 25 31 42 45 48 31 34 44 46 46 43 39 41 46 50 51 56 58 54 53 53 53 53 52 52 50 48 49 50 49 49 47 45 44 44 43 41 41 41 41
27 27 26 29 24 20 44 46 36 40 45 45 47 48 45 45 46 48 50 51 51 51 51 52 49 48 50 52 52 48 48 47 49 49 47 45 44 48 47 42 41 40 39 38
26 32 30 30 29 40 45 46 47 47 45 45 46 48 48 47 47 47 47 50 49 50 50 50 48 47 48 50 51 48 45 49 48 46 44 44 44 44 44 41 40 39 39 38
34 39 34 31 38 43 46 49 48 48 45 48 50 49 49 48 48 47 48 49 51 49 48 49 49 48 47 47 50 49 48 49 48 45 44 42 42 42 42 43 41 39 39 37
36 36 36 35 40 43 45 46 45 46 48 49 50 50 52 50 48 49 47 48 51 50 49 51 50 49 47 49 49 50 50 50 48 45 44 43 43 44 43 41 40 41 39 40
39 37 33 32 41 41 42 47 48 46 47 49 49 50 52 52 50 50 48 50 50 50 49 47 49 49 48 51 50 50 50 50 48 46 43 43 42 42 40 39 39 47 48 50

GFSCGP_sfc_temp_009.txt.gz
Temp
55 48 45 49 52 50 50 46 46 51 58 54 51 55 59 60 54 56 55 57 57 60 66 64 62 59 56 55 54 56 54 52 52 48 47 47 48 48 49 50 53 53 53 53
49 44 53 55 54 52 49 47 46 51 57 54 52 53 58 61 54 60 59 58 59 61 63 60 61 58 58 57 57 56 56 53 53 52 48 49 48 48 49 50 51 52 52 53
45 52 58 55 52 50 50 48 47 50 55 52 49 51 50 56 59 59 60 64 64 61 61 61 60 59 59 58 57 57 57 55 54 52 48 46 47 47 47 48 48 50 52 52
48 58 57 52 51 52 47 54 54 53 47 43 49 43 48 52 55 56 60 61 60 61 63 64 61 61 60 60 60 59 57 56 55 52 49 48 46 46 46 47 48 49 51 51
50 52 52 50 54 55 50 57 52 51 45 40 44 41 41 48 50 55 60 60 62 64 63 62 63 63 62 62 59 59 57 56 56 53 52 49 46 46 46 46 47 47 48 50
54 58 56 55 58 58 57 52 48 43 41 35 46 43 50 55 55 58 62 62 61 64 63 64 65 63 61 61 58 57 55 55 54 52 50 49 48 46 45 44 45 45 46 47
48 51 55 61 53 54 52 45 35 33 31 38 46 42 52 53 55 57 62 65 65 59 58 60 59 59 58 57 57 56 55 53 52 52 51 49 49 47 47 46 45 44 45 45
40 42 51 56 55 50 48 49 40 30 31 42 42 37 51 57 61 63 63 64 65 62 56 57 59 59 57 57 56 56 54 53 53 52 50 50 50 48 47 47 45 45 45 46
41 41 55 57 58 56 47 41 53 42 48 34 45 46 54 55 54 57 57 58 60 65 54 56 55 57 57 56 56 57 54 54 53 53 51 50 50 47 47 47 46 45 45 48
45 39 52 56 55 54 51 52 40 36 32 32 41 37 44 50 54 59 57 58 58 59 54 53 55 56 56 57 57 58 56 55 53 53 53 52 51 50 49 46 46 46 46 46
46 41 44 49 47 48 49 44 43 43 40 37 35 42 53 57 61 61 59 58 58 59 56 53 53 54 55 56 56 56 55 55 53 53 53 52 51 50 48 47 47 46 46 46
48 43 37 43 53 57 54 49 44 39 37 37 42 44 54 52 56 56 57 58 58 55 56 53 51 51 52 53 55 55 55 55 54 53 52 51 51 50 47 47 47 47 46 46
46 40 31 36 43 42 37 41 42 38 35 32 32 40 56 52 49 54 57 60 61 57 54 51 49 51 52 53 54 54 54 55 54 53 52 51 50 49 48 47 47 46 46 46
49 39 35 29 35 40 37 41 43 38 29 30 31 34 42 46 46 49 51 58 62 56 54 51 48 50 52 53 53 54 54 55 53 53 52 50 49 49 49 48 46 46 46 46
41 32 36 38 40 40 39 39 39 36 35 29 35 39 44 48 48 46 47 49 48 55 61 53 52 52 52 52 52 53 53 53 53 53 51 51 50 50 48 46 46 46 46 46
39 32 36 31 37 37 34 39 39 38 39 39 39 35 45 48 47 45 45 46 48 52 55 61 57 55 52 53 53 53 53 53 53 53 51 50 49 48 48 46 45 45 45 44
35 32 28 25 34 33 28 35 37 40 43 42 35 41 43 42 43 43 43 46 49 48 51 52 57 57 56 55 56 53 53 53 53 52 51 49 49 48 47 47 45 44 42 42
34 32 31 27 30 20 35 44 43 40 44 45 44 41 42 43 44 46 48 50 48 48 49 51 53 56 57 56 55 55 53 52 52 51 50 50 50 49 47 44 43 42 41 41
37 31 27 22 24 31 36 41 39 37 37 41 35 43 46 47 44 46 52 50 48 49 52 53 55 56 58 54 55 53 51 51 51 50 49 50 50 48 45 43 41 40 40 40
37 34 27 26 21 18 34 42 44 43 29 44 46 43 44 43 33 41 50 49 49 51 51 52 54 56 57 54 54 51 50 50 50 49 50 50 49 47 45 43 41 40 40 42
27 26 23 23 19 28 39 42 43 28 30 44 46 45 44 39 42 47 50 49 51 50 51 53 52 55 56 52 52 50 49 49 51 50 49 48 47 46 45 42 40 40 40 40
24 20 22 21 17 19 41 43 35 40 44 46 45 45 43 45 47 48 50 49 49 48 50 51 48 49 51 53 52 48 48 48 48 48 48 47 45 49 46 41 40 40 39 37
25 32 28 27 29 40 46 43 46 45 43 44 44 45 46 45 46 48 49 46 48 48 50 50 45 46 48 51 51 48 44 48 48 48 46 45 44 45 43 41 40 39 38 37
31 38 32 31 37 40 43 46 47 47 44 45 47 47 47 44 46 47 50 48 48 49 49 49 48 46 46 48 49 46 48 50 50 47 44 43 44 42 42 43 42 39 38 36
37 37 35 33 37 40 42 42 43 45 46 46 47 47 46 46 45 48 49 49 48 48 49 47 46 47 47 47 47 50 51 51 48 46 44 44 45 44 43 42 41 40 40 40
38 36 31 29 41 39 41 45 47 44 44 46 45 45 47 47 47 49 49 50 48 48 49 47 48 45 48 49 49 49 50 51 49 47 46 45 44 43 42 41 40 48 48 49

GFSCGP_sfc_temp_012.txt.gz
Temp
52 47 43 46 48 48 46 43 44 48 54 50 49 52 56 61 52 54 55 55 55 58 65 64 61 61 57 55 56 57 55 53 52 48 48 45 46 46 46 48 51 51 51 52
47 43 51 53 51 50 48 44 45 49 53 51 49 52 58 60 56 59 59 59 59 60 62 59 60 59 58 57 58 58 58 54 54 55 46 48 46 46 48 48 49 51 51 51
44 51 56 53 49 48 47 44 46 47 50 51 48 51 54 54 58 55 59 63 65 62 62 62 59 59 60 59 57 58 58 55 55 53 48 45 46 45 46 46 47 49 50 50
46 53 53 49 49 50 43 51 52 49 43 41 47 42 47 52 56 53 56 58 60 62 63 64 62 59 59 61 60 60 59 56 55 52 52 48 47 44 45 46 47 48 50 50
49 49 49 48 50 52 47 54 50 48 42 39 42 39 53 49 48 53 57 57 59 62 62 62 62 63 62 63 59 60 58 56 56 53 54 52 45 46 45 45 47 46 47 49
52 55 55 53 56 55 54 49 46 41 39 33 44 41 49 51 52 55 58 60 61 62 60 60 63 64 62 62 60 58 56 56 56 54 53 53 50 46 44 43 45 44 45 46
46 49 53 56 49 52 50 43 33 32 30 35 46 41 52 52 51 55 58 62 65 61 57 56 56 58 60 58 57 57 56 54 54 54 52 52 51 49 48 47 46 44 43 43
37 38 48 53 49 46 43 43 34 29 28 34 40 36 50 52 56 56 59 59 59 60 61 55 56 56 58 56 56 56 55 54 53 54 52 52 50 49 49 48 45 45 45 46
37 38 52 57 56 52 44 39 47 41 45 37 43 46 56 57 55 55 56 57 58 61 61 55 55 53 54 55 55 55 54 55 53 54 53 51 50 48 48 46 46 45 45 48
42 36 49 51 54 53 48 49 39 37 30 30 38 37 43 51 55 55 50 53 56 59 62 59 53 52 54 55 55 55 56 55 54 53 53 52 51 50 49 47 46 45 45 46
42 39 41 45 43 42 44 44 42 42 43 33 28 36 46 39 44 47 50 54 54 55 58 59 59 51 51 52 54 54 55 55 53 53 53 52 50 49 48 48 47 47 45 45
43 38 33 38 48 50 47 43 43 31 30 31 29 32 46 47 50 52 52 53 54 55 55 56 53 49 48 50 52 53 54 54 53 54 52 51 51 50 48 48 47 46 46 45
43 33 25 31 36 40 38 43 44 39 33 28 26 31 51 49 51 52 53 49 50 51 53 54 54 49 47 48 50 52 53 53 53 53 52 51 50 49 49 48 47 46 45 45
47 35 31 25 30 36 32 37 39 36 27 29 31 35 42 45 46 49 48 47 48 50 51 53 51 52 48 48 49 51 52 53 52 52 51 49 49 50 50 49 47 46 46 45
38 29 33 35 37 37 35 34 35 32 33 27 32 34 40 45 47 48 47 46 48 49 50 51 51 51 52 48 49 51 52 52 52 51 50 50 50 50 49 47 46 47 45 46
36 30 33 29 35 35 31 35 36 36 36 35 36 36 45 44 45 47 49 48 46 46 49 51 51 51 51 51 51 51 51 52 52 51 50 51 49 49 48 47 46 45 44 44
32 29 24 24 32 31 25 34 36 38 39 39 31 34 37 37 40 43 47 47 46 47 49 49 50 51 53 53 54 51 52 53 51 52 51 50 50 49 48 47 46 44 43 41
32 30 30 24 25 14 34 43 43 40 42 41 37 40 42 39 42 45 50 47 46 49 49 49 50 51 52 53 54 54 52 51 51 51 50 50 49 49 48 46 46 42 41 41
36 29 23 19 18 28 33 38 36 34 33 41 38 42 45 47 46 45 50 49 49 50 50 51 52 52 52 53 54 53 51 51 51 51 50 50 50 48 46 46 44 41 40 39
34 33 27 23 19 16 33 42 45 40 27 40 41 41 42 43 32 40 49 51 51 51 51 50 52 52 52 53 54 53 50 49 50 51 50 51 50 48 46 45 43 39 40 41
26 24 23 23 19 24 37 40 41 24 27 41 42 42 42 37 40 45 49 50 52 52 51 51 51 50 51 52 53 52 51 49 52 52 50 49 49 48 47 44 42 41 40 40
22 19 20 20 19 17 40 41 33 38 42 42 42 42 41 43 45 46 47 47 49 50 50 50 50 49 50 50 52 51 49 52 51 49 48 47 47 50 46 44 41 40 39 39
23 29 25 28 28 38 44 42 45 43 42 41 41 43 44 43 43 45 45 46 47 49 48 51 48 46 47 47 50 49 48 48 48 48 46 45 47 46 45 43 40 39 38 38
32 37 30 30 37 38 42 45 45 44 43 44 45 44 44 42 43 44 45 45 47 50 48 50 48 45 45 45 47 48 48 48 47 45 45 46 45 44 45 45 44 42 39 37
34 35 34 33 36 39 40 42 43 43 45 45 45 44 43 43 43 44 44 45 48 50 49 49 47 44 46 46 46 47 47 48 46 45 45 46 47 45 44 44 44 44 41 42
38 35 31 29 39 38 39 43 44 42 42 44 43 42 44 44 43 44 44 46 47 49 50 48 47 44 45 47 46 47 48 49 47 45 46 46 46 45 44 43 41 48 47 49

GFSCGP_sfc_temp_015.txt.gz
Temp
57 55 51 53 54 54 53 50 50 56 60 57 57 58 61 65 62 62 65 68 67 69 74 74 72 72 71 70 70 69 67 67 64 61 60 60 60 60 60 62 64 63 62 62
53 49 56 55 54 53 52 50 50 54 57 55 54 55 61 63 64 67 66 68 70 72 72 71 70 70 69 70 69 69 67 65 64 64 64 65 64 61 62 60 61 61 61 62
50 56 55 55 52 50 50 49 50 51 55 56 52 54 59 62 65 66 66 68 71 71 72 73 69 68 67 68 66 68 68 66 65 64 61 57 59 57 58 58 59 59 61 61
51 55 55 52 50 53 46 54 54 52 49 46 56 46 58 63 65 61 63 65 67 69 70 70 70 66 67 66 67 68 68 67 65 63 60 59 60 59 60 61 59 59 61 61
53 53 52 51 53 54 52 55 52 51 48 47 50 47 60 62 60 65 70 69 65 67 69 70 70 69 69 70 68 67 67 66 65 61 62 60 62 63 60 58 58 60 60 61
54 57 58 57 58 56 57 55 51 46 47 40 51 49 53 59 60 63 68 68 68 69 69 67 69 68 69 68 67 64 65 64 63 60 61 60 60 59 57 58 58 58 58 58
48 51 56 58 54 55 55 48 39 39 37 39 49 48 55 61 66 65 65 65 62 64 65 65 65 66 66 65 63 62 62 61 62 60 61 61 61 60 60 58 59 56 56 56
39 42 53 56 54 51 50 49 42 34 37 42 49 43 54 62 62 58 58 58 60 61 63 63 64 65 65 64 63 62 62 61 62 60 60 62 61 60 62 59 59 58 58 59
40 40 53 57 56 55 49 46 51 43 46 40 46 52 59 65 56 54 56 58 59 60 61 61 62 64 65 62 63 62 61 61 61 60 61 62 61 60 59 58 59 59 59 58
44 36 49 51 55 54 50 51 40 42 32 31 41 44 46 54 47 52 54 56 57 58 59 59 60 62 65 62 62 62 63 61 60 61 62 61 60 61 60 59 57 57 58 59
45 40 43 47 45 42 44 42 44 43 40 30 30 38 46 47 50 51 54 56 56 56 56 57 60 62 62 60 59 60 61 60 60 60 61 60 59 60 60 59 58 58 58 58
45 39 32 37 47 50 47 42 41 29 28 31 27 26 50 51 53 53 53 56 57 57 57 57 59 59 60 60 58 58 59 59 59 59 59 59 59 59 59 59 59 59 57 57
43 35 27 34 39 44 40 41 41 39 34 27 24 30 51 50 50 53 51 54 56 55 55 56 56 57 57 59 59 58 58 58 59 58 58 58 57 57 59 59 59 58 58 57
47 37 33 26 31 36 32 36 38 36 26 28 30 33 41 44 45 44 46 49 52 53 54 54 54 56 56 57 58 58 58 59 58 57 57 56 57 57 58 59 58 58 58 57
40 30 34 35 37 36 35 34 35 33 34 27 32 33 39 42 39 44 47 49 50 52 53 53 54 56 56 56 58 58 56 57 58 56 56 56 57 58 58 57 57 57 57 58
39 30 34 29 35 35 32 35 36 36 37 37 37 36 43 42 45 46 47 48 48 50 52 53 55 55 55 56 56 57 58 56 57 56 55 56 56 56 56 56 56 56 55 56
33 31 29 23 33 32 26 34 37 38 40 39 32 38 42 40 44 47 47 48 48 50 52 52 54 55 55 56 56 56 57 59 56 56 56 56 55 54 54 55 55 54 53 55
33 30 31 25 27 18 36 44 42 38 41 42 41 39 42 42 45 48 51 50 49 51 51 52 54 55 56 56 56 57 57 57 56 55 55 55 55 54 54 54 54 54 54 53
36 31 26 21 23 30 34 39 39 36 34 42 38 41 43 45 45 45 51 52 51 51 52 54 55 56 56 55 56 56 55 55 55 53 55 55 55 54 53 52 53 54 53 52
34 35 29 27 20 17 35 43 45 42 28 41 42 41 41 42 33 40 49 50 50 52 53 53 54 56 55 55 56 53 52 53 54 54 55 56 55 54 52 53 52 52 53 51
29 28 23 25 22 28 38 42 44 26 31 42 42 42 42 38 41 46 49 49 51 51 51 53 53 53 54 54 53 50 50 50 55 56 56 55 55 54 54 53 53 51 52 51
27 23 23 25 20 18 42 42 32 39 43 43 43 43 42 43 45 46 47 47 48 48 50 52 52 52 53 53 51 50 48 51 55 55 54 53 54 54 53 51 51 52 51 50
26 32 28 29 28 40 44 43 45 44 43 43 43 44 44 43 43 45 45 46 47 49 50 52 52 51 53 51 50 47 49 53 53 54 52 52 53 53 52 50 49 49 50 49
33 38 30 30 37 40 42 45 46 45 43 45 45 44 45 43 44 44 45 46 47 48 49 51 51 50 48 47 49 48 49 51 52 51 50 49 51 49 51 51 51 49 48 48
36 38 33 32 37 40 41 43 43 44 45 45 46 45 44 44 43 44 44 45 46 47 48 49 49 48 47 46 47 49 49 50 50 49 49 48 49 49 49 50 50 51 51 51
38 35 31 31 38 37 37 42 44 43 43 44 44 43 45 45 43 44 44 45 45 45 47 47 49 48 45 44 45 47 49 49 48 48 48 49 48 49 48 48 48 50 49 50

GFSCGP_sfc_temp_018.txt.gz
Temp
68 66 65 70 69 69 65 63 62 68 73 68 66 67 71 77 77 76 78 80 84 87 92 93 93 90 87 87 87 86 84 82 83 78 76 75 73 74 75 75 76 75 74 72
66 63 66 64 64 62 63 61 62 68 71 67 67 66 71 75 76 78 78 80 82 85 88 90 91 88 86 86 86 86 84 82 82 78 78 77 76 76 75 73 73 73 73 72
62 66 64 63 63 60 62 60 62 62 67 68 66 65 75 79 77 79 80 82 82 82 83 86 87 87 84 83 84 84 84 82 81 78 77 76 77 74 71 70 70 71 72 71
63 65 61 61 61 63 58 65 62 60 58 56 65 54 69 76 75 77 81 83 81 78 79 78 78 80 82 82 82 84 83 83 80 77 75 72 70 66 69 70 70 70 71 70
64 63 62 60 62 63 61 63 61 60 58 58 60 54 68 76 71 73 75 71 71 73 73 74 75 76 79 79 80 81 81 81 80 78 74 71 70 72 73 72 69 69 69 71
63 69 63 64 64 64 65 62 62 59 56 48 61 58 62 67 68 72 70 69 70 71 72 72 74 74 75 76 75 77 77 77 79 76 74 70 70 73 74 71 68 68 68 69
61 61 63 64 60 63 63 59 51 50 48 50 59 56 62 71 68 64 63 66 68 69 69 69 69 69 71 72 73 73 74 73 76 75 73 71 71 74 73 70 69 68 68 66
50 52 59 61 58 54 57 55 50 40 46 50 59 49 61 74 75 68 67 67 67 67 68 68 68 68 69 71 72 71 72 73 73 74 72 72 72 73 74 71 71 70 69 68
48 49 61 61 61 59 56 51 55 47 51 45 51 59 68 72 67 62 63 64 62 65 66 67 68 69 69 70 71 70 70 72 72 73 73 71 73 72 71 72 72 71 71 69
51 42 56 56 61 60 56 58 44 48 36 37 48 49 50 55 54 59 59 60 61 62 63 66 67 67 68 69 70 71 71 70 72 72 72 71 71 72 71 73 71 69 70 69
53 48 50 54 51 49 49 47 47 46 44 35 32 40 56 52 56 56 57 58 58 59 61 63 65 66 67 68 69 70 70 69 70 71 71 69 70 71 72 71 71 69 69 68
50 46 40 45 54 54 50 43 45 35 33 38 35 33 56 57 58 58 57 56 57 59 60 62 64 65 65 66 67 67 68 68 68 69 69 68 69 70 70 70 71 70 68 67
48 43 34 44 46 51 46 46 46 44 38 30 28 34 55 56 56 58 56 56 57 58 59 61 62 63 64 65 65 66 67 67 67 68 68 67 67 67 68 70 70 70 69 68
50 43 39 33 38 43 38 41 44 41 31 34 35 39 47 51 52 54 54 55 57 57 59 60 60 61 64 63 63 64 65 66 66 66 66 65 66 66 67 69 70 70 70 67
46 37 42 42 42 42 40 39 41 39 40 34 38 40 46 51 51 52 54 55 55 56 57 58 59 61 61 62 63 63 63 63 65 64 64 63 66 66 66 67 68 69 69 68
46 33 38 34 40 40 37 41 42 42 42 43 43 41 53 54 53 51 53 53 52 55 57 58 58 60 60 62 61 61 61 61 63 63 63 63 63 64 64 65 67 67 67 67
40 36 32 27 39 38 32 41 44 44 46 45 37 44 50 47 48 50 51 52 53 55 55 56 57 58 59 61 62 61 63 63 61 60 61 63 63 62 63 64 65 65 64 66
39 37 32 27 34 22 42 50 48 44 45 47 47 47 46 46 50 53 55 55 54 54 55 56 58 58 59 61 61 63 62 61 59 58 61 62 62 62 62 63 63 64 64 64
45 39 30 27 30 37 41 47 45 41 39 48 46 46 48 50 50 50 56 57 55 55 56 58 59 59 60 60 62 62 60 59 57 57 58 58 62 60 60 61 62 63 64 63
44 43 34 33 24 21 39 48 52 47 32 47 47 45 45 46 34 45 54 55 55 56 57 57 58 59 60 61 62 59 57 57 56 55 55 58 61 60 60 60 61 63 64 62
38 37 28 30 26 33 47 49 49 30 35 48 48 46 45 42 45 50 53 54 56 56 56 58 57 57 58 61 61 56 56 56 58 57 56 58 58 59 61 60 62 62 62 62
33 31 31 33 27 24 49 46 36 43 49 48 47 48 46 48 49 50 52 52 53 53 54 56 56 56 58 59 57 52 53 57 56 54 54 57 58 58 60 59 61 61 60 59
32 39 34 35 35 48 51 48 51 50 45 43 44 49 49 48 48 50 50 51 52 53 53 55 55 54 56 58 52 47 53 55 54 53 55 57 57 57 58 58 58 60 58 57
44 47 37 35 42 46 49 50 50 49 46 47 49 49 49 47 49 49 50 50 51 51 52 53 52 52 53 55 48 49 52 54 54 53 55 54 56 56 59 60 60 59 58 56
43 43 39 39 44 46 47 46 46 47 49 49 50 50 48 48 47 49 49 49 50 50 51 52 50 50 51 53 47 48 52 53 53 56 52 52 56 57 57 58 59 58 59 58
45 42 36 35 44 37 38 44 48 47 47 49 48 48 50 49 48 48 49 49 49 49 50 50 50 50 51 52 47 46 50 52 51 51 48 47 55 54 53 55 56 54 55 53

GFSCGP_sfc_temp_021.txt.gz
Temp
75 68 69 73 73 73 70 67 66 72 77 73 70 71 75 80 82 81 83 85 86 88 92 95 96 98 98 95 94 94 92 93 89 85 84 82 79 80 80 80 81 79 77 75
70 66 70 70 69 67 67 65 66 72 77 72 70 69 75 79 81 82 83 84 85 86 88 84 86 86 86 92 92 92 92 91 90 85 84 84 82 81 79 78 78 78 77 75
66 71 69 67 67 66 67 65 66 65 68 71 70 68 75 83 84 83 80 78 78 77 77 78 80 80 81 82 82 86 88 90 90 87 84 81 82 79 76 75 74 75 76 74
68 71 66 66 65 68 61 67 65 63 61 57 71 54 68 77 78 73 73 73 73 73 75 75 76 75 78 78 79 80 82 86 88 88 83 78 76 74 75 74 73 73 75 75
67 67 64 62 65 67 61 67 63 63 61 60 62 59 70 75 70 70 70 69 71 72 72 72 74 74 76 76 76 78 78 80 84 86 83 77 75 77 77 75 72 73 73 74
67 74 67 65 67 67 68 65 66 66 62 51 64 62 65 69 69 66 69 70 70 70 71 72 74 74 74 75 74 76 76 76 78 80 82 78 74 74 74 73 71 71 71 71
66 65 67 68 63 68 65 60 52 53 49 52 66 59 65 73 67 65 65 68 69 69 69 68 69 71 72 72 73 75 74 73 75 77 78 80 75 74 75 74 72 70 69 68
55 55 62 66 60 56 58 58 50 42 49 53 60 51 64 74 70 70 69 69 69 67 66 67 68 70 71 71 72 72 73 72 74 75 76 78 78 74 74 75 75 72 70 69
52 55 65 65 63 62 59 53 57 48 52 47 54 62 70 74 65 64 63 64 65 65 64 65 67 68 70 70 70 71 72 72 73 74 75 76 78 76 72 74 78 73 73 72
56 45 60 60 63 64 60 60 46 51 39 40 52 52 53 56 55 58 59 61 64 64 64 65 66 67 69 70 70 71 72 72 72 72 74 74 75 77 75 74 75 72 73 71
55 51 53 59 56 53 54 51 52 51 47 39 36 44 61 54 56 55 59 61 62 62 62 63 65 67 68 69 70 70 69 70 71 70 71 71 73 74 74 74 74 74 73 72
53 48 43 49 58 59 55 51 48 39 37 41 38 36 58 58 58 59 59 61 62 62 62 64 65 66 67 67 68 68 68 68 69 69 69 70 71 71 71 73 74 75 73 72
51 47 39 48 50 53 49 50 51 48 43 33 30 35 57 58 58 60 59 60 60 61 61 63 64 64 65 66 67 67 67 67 67 67 67 68 69 69 69 71 74 75 74 72
50 45 42 37 43 48 43 46 48 45 34 37 38 41 49 53 54 57 58 59 59 59 60 61 62 63 64 65 66 66 67 66 65 65 64 65 66 67 68 70 72 73 74 72
49 40 45 47 47 46 44 43 44 41 42 36 40 42 48 53 55 56 58 57 57 57 59 60 60 61 62 63 64 65 66 65 64 62 63 63 65 66 67 68 69 72 72 72
50 38 41 37 43 43 40 44 45 45 45 45 46 44 56 57 58 55 55 55 55 56 58 59 59 60 61 62 63 63 64 65 65 61 60 61 61 64 64 66 67 69 70 71
44 41 36 30 42 41 34 44 46 47 49 47 40 46 53 51 52 52 52 54 55 56 57 57 58 60 61 62 63 62 63 65 62 61 61 59 60 60 63 64 65 65 67 69
43 42 40 31 36 25 45 53 52 48 49 50 49 50 51 51 52 54 56 55 55 56 56 58 60 60 62 62 63 63 64 63 63 61 60 59 60 59 60 62 62 64 67 67
50 43 35 29 31 38 44 49 46 43 42 50 48 48 49 51 51 51 56 57 56 56 58 59 61 61 62 62 63 62 62 62 61 61 59 59 59 57 56 58 61 63 65 65
50 48 38 34 25 22 42 49 54 50 34 49 46 45 46 47 36 45 55 56 56 58 59 59 60 61 61 62 62 60 59 60 60 59 57 58 59 56 56 57 60 62 64 64
42 41 34 34 30 36 49 52 52 29 35 48 49 47 46 41 44 50 54 55 58 58 58 60 59 58 59 61 61 58 59 58 58 58 58 57 57 56 56 56 59 61 63 63
36 33 34 37 30 27 54 50 39 46 50 48 48 48 45 45 47 50 53 54 55 55 56 58 56 57 59 59 59 57 57 57 57 56 55 56 57 57 58 53 53 62 61 61
36 43 37 38 37 50 53 50 54 53 49 48 46 46 46 46 48 51 51 53 54 55 55 57 56 55 57 58 57 55 56 56 53 53 54 56 57 59 58 53 49 57 61 60
47 51 41 41 46 49 51 54 54 51 48 48 49 49 49 47 49 49 51 52 53 54 54 55 54 53 54 56 56 57 55 54 51 51 54 55 56 58 57 55 53 56 59 59
45 46 43 42 47 50 51 52 50 49 50 49 50 50 48 48 47 48 49 51 52 53 54 54 53 52 52 55 55 56 54 50 47 49 52 55 55 56 53 53 50 57 62 61
47 45 41 40 49 46 46 49 48 46 47 46 46 47 50 50 48 50 50 51 51 51 52 51 52 51 52 53 53 54 53 47 45 45 48 50 47 49 52 50 51 54 57 55

GFSCGP_sfc_temp_024.txt.gz
Temp
72 62 60 64 65 66 64 61 60 65 73 68 64 65 69 74 73 70 70 72 70 72 74 75 75 75 76 77 76 74 76 80 79 78 76 70 67 67 67 67 69 67 65 65
66 59 67 70 69 65 63 60 60 66 71 66 63 62 68 72 70 68 67 66 67 68 70 71 72 72 72 72 72 74 74 74 76 75 77 78 73 68 67 65 67 67 67 65
62 68 71 68 65 63 63 60 60 58 63 65 62 59 63 67 68 68 67 66 66 65 66 67 68 69 70 69 70 71 72 73 73 74 73 70 69 66 63 66 68 67 67 66
65 71 67 64 63 65 55 65 62 59 55 47 62 44 57 63 62 63 63 62 63 64 66 66 66 66 68 68 68 69 71 72 74 72 70 69 71 68 69 67 67 64 66 66
62 65 62 59 62 65 58 64 60 58 54 53 55 48 57 63 57 59 61 63 63 63 63 63 64 66 68 68 65 67 69 68 68 69 69 67 69 71 68 68 64 66 66 66
64 72 68 63 66 66 66 61 59 58 54 43 54 53 54 56 56 58 61 62 63 62 61 62 64 66 66 67 63 63 66 65 66 65 65 67 67 69 68 65 65 64 64 65
62 65 66 67 59 65 60 52 42 42 40 42 57 51 52 57 59 58 57 59 61 62 60 60 61 62 63 63 64 64 64 63 67 66 63 65 67 68 69 69 67 62 63 63
51 51 61 65 59 53 53 51 42 34 39 42 54 43 52 60 60 60 60 59 59 59 58 59 59 60 62 63 64 64 62 62 66 67 63 64 67 67 68 69 68 66 64 64
48 52 64 64 62 59 54 47 52 43 47 40 46 54 59 58 56 56 56 58 57 58 57 58 59 60 60 63 63 65 63 63 64 66 67 64 66 67 65 67 69 68 67 66
53 41 58 60 61 61 55 57 42 43 32 31 42 43 44 47 49 53 54 55 57 59 59 60 61 61 62 64 64 65 62 62 64 65 67 66 65 66 66 67 67 67 66 65
53 47 50 55 53 49 49 47 48 46 42 31 30 37 51 49 50 51 54 56 56 55 56 58 59 60 62 63 63 62 63 62 61 62 64 64 64 64 66 66 63 66 67 66
52 44 38 46 56 57 52 48 48 34 33 35 30 32 54 52 53 55 55 57 56 56 56 58 58 59 60 60 60 61 62 63 61 59 60 62 63 63 64 63 63 63 65 67
48 43 33 42 46 52 48 50 49 45 38 31 26 31 53 54 53 55 55 54 55 56 56 57 58 58 56 58 59 61 61 61 61 59 57 59 61 61 62 63 63 65 66 68
49 42 38 31 37 44 40 44 46 42 31 32 33 37 45 49 50 53 52 53 53 54 55 56 56 56 56 58 59 60 60 60 60 61 59 54 57 58 59 61 62 64 67 68
47 37 42 44 44 43 41 41 42 39 39 32 36 38 44 49 50 51 53 53 52 53 54 56 54 55 56 57 57 59 59 59 60 60 60 54 54 57 58 57 60 63 65 67
48 35 40 35 42 42 39 42 42 42 43 42 43 41 51 52 53 52 50 51 50 51 52 55 55 56 56 57 56 58 58 58 60 59 59 58 53 56 55 55 54 59 61 63
42 37 34 27 40 38 30 41 44 44 46 44 35 42 49 46 46 47 47 50 50 50 52 53 54 55 56 56 57 56 58 59 58 58 59 59 58 55 56 55 52 52 55 61
41 39 35 28 33 20 41 49 48 43 45 46 45 45 44 44 46 49 51 50 51 51 52 53 54 55 55 56 56 57 58 57 56 57 57 59 56 55 56 54 50 50 50 59
47 39 30 25 27 34 40 46 43 40 38 46 43 45 46 48 47 45 52 52 50 51 53 54 55 55 55 56 56 55 55 55 54 55 57 56 55 54 55 53 49 49 49 54
48 45 35 31 21 18 39 47 52 46 29 46 46 44 44 44 32 38 48 50 49 52 54 53 54 55 54 55 55 53 52 53 53 55 54 55 54 53 52 53 50 49 50 50
37 36 30 30 27 33 46 48 50 28 31 46 47 45 43 38 40 45 49 48 50 52 52 54 53 52 53 55 54 51 51 51 53 55 54 53 52 51 52 53 52 49 49 49
32 29 29 31 26 23 49 47 36 43 47 48 45 44 42 43 44 46 47 47 48 48 49 52 51 51 53 54 53 50 49 52 53 53 53 51 50 52 54 52 49 50 48 48
31 39 32 33 32 47 50 48 50 50 46 45 44 45 45 44 44 45 45 46 47 47 48 51 51 50 52 52 52 48 50 52 52 51 50 49 49 50 52 53 47 49 48 47
44 47 37 37 42 45 48 51 52 50 46 46 46 46 45 42 43 44 45 45 46 48 47 50 49 48 48 50 51 49 50 52 50 48 47 48 47 48 51 54 52 49 48 47
42 43 39 38 43 46 48 49 47 45 46 46 46 46 44 44 43 44 44 45 46 47 47 48 47 46 47 47 48 48 49 48 48 47 46 45 46 46 49 51 50 49 49 50
43 40 36 34 45 43 43 47 47 44 44 44 44 44 45 45 43 44 43 44 44 44 45 45 45 45 45 46 46 46 47 47 46 46 44 44 43 43 46 47 47 51 50 51

GFSCGP_sfc_temp_027.txt.gz
Temp
62 54 49 52 56 57 55 52 51 56 64 58 56 56 63 64 60 58 58 58 59 60 64 67 68 68 69 69 69 69 68 69 69 70 70 65 67 68 64 65 68 66 65 63
55 50 60 63 62 59 57 52 50 56 62 59 55 56 58 60 58 58 57 57 58 60 61 63 65 66 66 65 67 68 68 68 65 65 66 68 70 66 71 67 66 66 66 64
51 58 67 63 59 57 54 51 50 50 55 56 53 49 53 57 59 61 58 58 58 57 58 60 61 62 64 64 62 65 67 67 67 64 62 68 69 68 63 60 61 63 66 64
56 64 63 57 56 56 48 57 56 54 48 41 54 37 48 52 53 55 53 53 53 55 58 60 60 60 61 63 64 62 64 64 68 66 64 58 57 61 67 64 67 65 65 65
54 56 55 54 56 59 52 58 54 53 46 42 47 40 42 52 48 50 52 55 53 54 56 56 57 58 59 60 61 62 60 61 62 63 63 60 56 57 64 67 64 65 60 64
56 64 61 57 61 60 61 54 52 48 43 35 46 45 42 44 45 48 50 53 54 55 54 56 56 58 57 58 58 58 59 59 60 59 60 61 60 58 59 63 61 60 64 61
53 55 60 63 54 57 53 43 33 35 34 35 49 44 39 46 49 50 50 51 53 54 51 54 54 55 56 56 59 59 59 57 58 58 58 60 60 57 58 60 63 59 60 62
40 42 54 59 52 47 46 44 34 28 29 34 47 38 41 51 52 51 52 52 53 53 52 52 53 54 54 56 58 57 61 55 57 57 57 59 57 58 60 60 61 63 62 63
38 43 55 58 57 53 47 40 46 37 38 31 37 43 46 49 48 49 50 51 51 52 52 52 54 54 53 54 55 56 55 56 60 56 57 57 56 57 59 60 62 62 64 64
43 35 49 55 56 54 48 51 37 35 26 24 32 36 37 41 43 49 50 51 51 51 50 51 52 54 55 58 58 55 56 55 56 58 59 58 55 56 58 60 60 61 63 61
44 39 41 48 45 41 43 40 41 38 34 25 22 29 41 40 46 48 51 53 53 50 51 51 53 53 54 54 53 54 55 55 56 60 56 54 54 55 56 58 59 61 61 62
43 37 30 38 48 52 47 41 40 26 28 28 20 28 45 47 50 52 51 53 51 50 51 51 51 52 51 51 52 53 54 55 56 54 55 56 57 56 54 54 58 59 59 63
42 34 24 34 40 46 41 44 43 39 30 23 19 31 51 50 50 52 51 49 49 50 50 50 51 50 49 50 51 53 53 53 54 56 54 55 56 54 52 52 56 58 58 60
47 35 31 24 31 37 34 38 40 35 17 28 30 34 42 45 47 49 46 46 47 48 50 50 49 48 49 50 51 54 51 54 56 58 54 56 55 51 52 52 55 56 56 57
41 30 35 37 39 39 38 37 38 35 35 27 34 35 41 45 42 42 45 47 48 49 51 50 50 49 49 53 53 50 54 56 57 55 56 55 51 53 52 51 54 55 55 55
41 30 34 31 38 38 35 38 38 38 38 38 38 36 44 46 42 43 43 45 46 48 50 50 51 52 52 52 50 54 55 55 56 55 55 56 54 52 55 53 53 54 53 53
36 31 26 19 34 34 25 35 38 39 40 38 32 39 41 41 43 44 45 46 46 48 47 47 49 52 52 50 54 52 54 55 52 54 55 54 55 55 52 50 51 53 50 50
35 32 28 20 26 14 35 44 43 40 42 42 41 41 42 42 46 47 48 46 46 47 48 49 49 51 50 53 53 54 54 50 53 52 52 54 54 52 52 49 49 51 50 48
39 32 22 17 17 29 35 41 39 36 34 43 40 42 45 47 45 43 49 49 47 47 49 49 50 51 51 52 53 52 52 51 50 50 52 52 52 51 49 48 48 49 49 48
40 37 28 24 12 11 32 42 46 42 29 42 43 43 41 40 31 38 47 48 47 49 49 49 49 50 51 52 53 50 50 50 49 51 50 52 52 50 48 48 49 49 49 49
30 28 26 26 17 26 39 44 45 23 29 44 44 40 39 36 38 44 47 46 48 48 48 50 50 49 49 51 51 48 49 48 51 50 51 51 51 49 49 49 50 49 48 48
28 20 21 23 17 19 43 41 32 38 43 44 41 40 39 41 43 44 45 44 45 45 47 48 47 48 49 50 51 48 47 50 49 49 49 50 48 50 51 48 48 48 47 46
27 33 25 28 27 39 43 42 44 44 40 39 40 42 42 41 41 42 42 43 44 45 46 47 47 47 48 49 49 47 47 49 48 47 46 46 48 48 49 48 46 46 47 46
36 40 31 31 35 39 43 48 45 42 40 42 43 43 42 40 41 40 41 42 42 43 43 45 45 44 44 46 47 47 48 48 46 44 43 44 45 46 48 47 46 47 48 46
35 36 34 31 38 40 42 41 41 42 43 43 44 42 40 40 39 39 39 40 41 41 42 43 42 41 42 44 44 46 46 45 42 42 43 43 45 46 45 44 45 47 49 49
38 35 27 31 37 36 36 40 42 41 41 41 40 39 40 40 38 39 38 39 40 39 40 40 40 39 40 42 43 44 46 46 45 42 42 42 44 44 43 41 42 49 51 52

GFSCGP_sfc_temp_030.txt.gz
Temp
58 52 47 52 55 55 51 48 48 52 60 55 52 49 52 55 55 53 51 51 52 54 58 59 61 62 62 62 60 60 63 61 64 65 65 65 63 67 67 66 65 65 64 64
53 48 57 61 59 56 52 48 47 53 58 55 52 47 52 54 52 53 51 50 51 52 54 56 57 58 59 58 58 60 59 60 60 58 57 58 59 61 65 65 64 66 65 62
49 56 63 60 55 53 50 48 47 48 52 52 50 43 48 53 54 55 53 52 52 52 52 53 53 55 56 56 56 59 58 59 59 59 57 60 60 60 59 62 63 64 63 65
53 61 59 54 53 53 45 54 53 51 46 39 51 34 43 47 47 49 49 48 48 50 53 54 54 54 53 55 57 57 58 58 61 58 56 53 53 53 55 57 59 63 62 62
51 53 53 52 53 56 51 55 52 50 44 40 42 37 37 46 43 45 48 50 50 49 50 51 53 55 55 55 55 56 56 58 57 56 55 53 52 52 54 55 56 57 60 61
53 60 57 54 58 57 57 51 47 43 40 32 41 40 37 39 42 44 47 50 52 51 50 51 53 55 54 54 55 55 55 55 56 55 56 55 53 53 51 52 53 55 57 57
49 53 56 59 52 54 50 40 33 34 32 34 45 40 35 43 45 46 47 49 51 51 50 51 52 52 53 54 55 57 54 53 54 53 54 54 53 52 52 52 51 52 56 58
37 40 50 56 50 45 44 41 33 29 28 32 42 34 37 47 49 48 49 50 51 50 50 51 52 52 52 54 53 53 53 52 53 53 53 54 53 51 52 52 52 52 53 57
36 40 52 55 54 50 44 38 43 35 33 29 34 36 44 46 45 45 47 49 48 49 50 50 52 52 51 52 52 53 53 53 53 53 55 52 51 52 52 53 54 52 54 58
40 34 46 52 53 51 46 48 36 33 27 25 29 31 34 38 40 44 46 45 47 50 49 49 50 51 51 51 51 51 52 51 52 53 53 57 53 53 54 54 52 53 53 54
41 37 40 45 42 39 41 39 39 36 31 25 21 29 39 39 40 44 47 50 50 46 47 47 49 51 51 51 50 51 52 53 54 53 52 51 54 55 53 54 55 53 53 53
40 35 29 36 46 49 43 38 36 26 27 26 19 25 45 41 47 49 48 49 48 47 48 48 49 48 48 49 49 49 50 50 50 51 51 51 55 55 51 54 54 53 52 53
40 32 25 32 39 43 39 41 40 36 27 21 19 30 45 49 48 49 43 44 45 47 47 48 48 47 47 47 48 49 51 50 50 50 51 52 52 51 53 54 52 54 53 51
46 33 31 26 31 34 32 36 37 34 17 26 30 35 42 44 44 43 42 43 43 45 47 48 49 46 46 46 47 49 49 49 50 52 53 50 52 52 53 53 52 52 54 50
39 29 32 35 37 37 36 35 36 32 33 26 33 33 40 43 41 40 42 43 45 46 48 50 49 46 46 46 47 48 47 49 51 51 50 52 50 52 50 48 52 53 52 53
38 29 30 28 35 35 33 36 36 36 36 36 36 35 44 43 40 40 41 43 46 47 48 49 49 50 50 51 51 50 49 49 51 51 51 51 52 51 47 51 50 48 51 52
34 30 25 20 31 30 25 32 35 37 39 37 30 38 40 39 40 42 45 46 46 46 47 48 48 50 50 50 51 48 50 51 51 51 51 51 51 49 50 50 48 48 48 47
32 30 26 19 25 16 35 40 40 38 40 40 40 40 40 40 45 45 46 45 45 46 47 48 48 49 49 50 50 50 50 51 51 51 50 50 49 50 47 48 48 43 44 45
37 31 21 16 16 28 34 38 38 34 35 41 39 40 43 44 41 41 47 47 45 46 47 47 48 48 49 49 50 50 50 49 49 49 49 49 50 47 47 47 45 44 45 46
36 34 27 22 12 12 32 40 44 40 27 40 39 39 38 38 28 36 44 45 45 46 47 46 47 48 48 48 50 48 48 47 47 49 49 50 48 46 45 47 44 46 47 47
27 26 25 23 14 24 37 42 43 24 27 40 39 37 37 33 36 41 44 44 45 45 45 46 46 45 46 48 49 46 47 45 49 48 50 49 48 45 46 43 47 47 46 46
27 21 20 22 16 18 41 40 33 36 38 39 37 37 37 39 40 41 42 41 41 41 42 44 43 43 45 46 46 45 44 48 48 48 45 46 44 44 48 45 46 46 45 44
27 33 25 27 27 39 41 40 42 40 37 37 36 39 39 38 38 39 38 39 40 40 40 42 41 41 43 45 45 43 43 46 46 45 45 44 43 44 44 43 43 44 44 42
36 38 31 32 36 39 42 42 42 40 38 40 39 38 38 36 37 36 37 38 38 40 41 41 41 38 37 39 41 41 42 43 43 43 43 41 40 42 43 45 46 44 43 42
37 36 32 31 38 39 39 39 39 40 40 39 39 38 37 36 35 37 38 39 40 40 41 41 39 38 37 38 38 39 40 42 40 41 41 40 42 42 41 43 45 45 44 44
39 36 29 32 38 36 35 39 40 38 37 37 36 36 37 37 38 39 38 38 39 39 39 37 37 37 37 38 38 39 40 41 41 39 41 43 42 42 40 41 43 47 48 48

GFSCGP_sfc_temp_033.txt.gz
Temp
56 51 46 50 52 52 49 46 45 49 56 52 46 45 48 51 50 48 47 48 49 51 54 55 56 56 56 57 55 56 59 57 58 60 57 57 56 58 62 61 63 64 62 63
51 46 55 57 56 53 50 46 45 50 55 52 45 44 48 50 48 49 48 47 49 50 51 53 54 54 54 53 54 54 56 57 57 55 54 54 54 56 60 63 65 65 64 61
47 53 60 58 52 51 48 46 44 46 50 50 45 41 43 48 50 51 49 48 48 48 49 50 50 52 53 53 52 55 55 56 56 55 54 54 55 54 54 56 60 62 64 63
50 58 57 52 51 51 44 52 51 49 44 38 46 33 39 43 44 46 45 45 46 48 50 51 52 51 51 53 54 54 55 55 58 54 52 51 50 50 51 51 53 55 58 59
49 51 51 50 51 53 49 53 50 47 42 37 39 36 34 42 40 42 45 48 48 50 51 51 52 53 53 54 53 53 54 55 55 53 51 50 49 49 50 51 52 53 54 56
50 57 54 52 55 54 54 48 45 41 38 31 37 38 34 37 41 42 44 49 49 49 50 51 52 53 53 53 53 53 53 54 53 53 52 50 49 49 49 49 49 50 51 53
46 50 54 56 49 52 49 39 32 33 31 33 41 37 34 42 44 45 44 47 48 49 48 49 50 50 51 52 52 53 52 52 52 52 51 51 50 49 47 49 49 49 49 50
36 39 48 54 48 42 42 39 32 30 28 30 38 33 36 45 47 47 47 47 47 48 48 48 50 50 50 51 51 50 50 51 52 51 51 50 50 49 49 49 49 49 49 50
36 38 49 52 51 48 41 36 40 34 30 27 31 36 39 43 43 43 44 46 46 47 47 49 49 49 49 49 50 50 50 51 52 52 50 50 49 49 49 51 51 50 50 53
38 34 43 49 50 49 43 46 35 32 27 25 28 29 33 37 38 42 42 43 45 46 47 47 48 48 49 48 48 49 49 49 50 50 49 52 49 48 50 48 47 49 51 51
38 36 39 42 39 37 39 37 36 35 30 26 21 29 38 38 41 40 42 44 45 44 45 46 46 47 49 50 50 50 49 49 50 50 49 48 49 52 50 51 52 53 52 50
38 34 29 37 43 44 41 36 35 27 27 24 19 24 42 41 42 43 43 44 44 45 46 46 47 48 49 51 49 49 50 49 51 50 48 49 51 52 49 51 51 53 52 52
40 32 26 32 38 40 36 38 37 31 26 20 20 27 40 39 43 46 42 42 43 45 46 47 47 47 49 50 49 49 49 50 52 50 47 47 47 47 48 49 52 52 52 51
45 31 31 28 32 33 32 35 36 32 17 23 28 36 43 45 42 45 45 41 42 44 45 47 47 47 46 49 47 48 50 51 52 51 48 46 46 47 48 49 50 51 50 51
38 30 30 33 35 34 34 35 34 31 30 26 33 31 39 42 43 44 41 41 43 45 48 49 49 50 50 49 50 51 50 51 51 49 48 48 49 48 45 46 48 48 51 51
36 29 29 28 33 33 31 34 34 35 35 34 35 33 44 45 39 39 40 42 44 45 47 48 48 49 49 50 50 51 51 51 51 49 48 48 49 49 47 47 46 46 47 47
33 29 24 19 29 29 27 33 34 33 35 35 29 38 39 38 39 39 42 43 43 44 44 45 45 46 47 48 49 48 49 51 50 49 49 50 51 49 48 47 46 45 43 45
30 29 26 18 24 18 36 38 38 36 38 39 39 39 38 38 42 40 42 42 42 43 43 44 45 46 46 47 47 48 49 48 48 48 49 50 50 49 48 46 45 42 41 42
35 30 21 16 16 27 35 36 35 33 33 40 38 38 40 40 38 39 43 42 42 43 44 44 45 45 45 45 47 46 46 46 46 47 47 48 49 48 46 45 43 41 41 42
34 33 26 21 12 13 33 38 42 39 27 38 38 37 36 35 27 36 43 43 42 43 43 42 43 43 43 43 45 43 43 43 43 46 47 48 49 46 46 46 42 42 40 42
26 25 23 22 14 24 37 40 41 24 28 38 38 36 34 30 33 40 41 41 42 41 41 42 41 41 43 44 44 41 40 40 43 46 47 47 47 47 47 46 43 39 41 43
26 21 20 22 15 18 39 38 33 36 36 38 36 36 35 36 38 38 38 38 38 38 40 42 42 42 44 44 43 40 38 41 42 42 43 44 45 45 47 43 38 41 41 40
28 35 25 28 28 38 39 38 40 39 37 36 35 37 36 35 35 36 35 36 38 39 40 40 41 41 42 43 42 38 38 40 39 39 39 40 43 43 43 39 39 40 40 40
34 39 30 35 36 38 40 41 40 39 38 38 37 36 36 33 35 34 35 37 37 39 39 40 40 38 38 39 40 39 39 40 39 38 39 39 41 40 39 41 42 41 41 41
36 37 35 32 38 39 39 38 40 39 38 37 37 36 35 34 34 35 35 36 38 39 40 40 38 37 37 38 39 40 40 41 38 38 39 40 41 39 39 42 42 40 41 44
37 35 35 35 41 37 35 39 40 38 37 36 34 34 35 35 34 36 35 38 38 38 39 38 37 37 38 39 40 40 41 40 39 38 39 40 39 42 42 41 39 45 47 48

GFSCGP_sfc_temp_036.txt.gz
Temp
54 50 45 48 49 50 48 44 43 47 53 46 42 43 45 47 46 46 45 45 47 49 52 53 54 54 54 53 52 52 55 54 53 53 52 53 53 54 56 58 61 61 60 59
50 45 52 55 54 51 48 43 42 48 53 47 42 41 45 46 46 46 45 44 46 48 50 51 52 52 52 52 52 52 53 54 53 52 51 51 50 53 53 55 58 60 63 63
45 51 58 55 50 49 46 43 42 45 48 46 43 38 42 46 47 48 47 47 48 48 49 50 49 50 51 52 50 53 53 54 53 52 52 52 51 51 51 52 53 54 56 58
48 56 54 51 49 49 42 50 49 47 42 36 44 33 36 41 43 44 45 45 46 48 49 50 51 51 50 52 52 52 53 53 56 52 51 49 47 47 49 48 50 51 54 54
46 49 50 48 49 51 48 50 46 45 40 35 37 35 35 40 39 41 43 46 46 47 48 49 50 51 52 52 51 51 51 52 53 51 50 48 47 47 48 48 48 50 51 52
48 54 51 50 53 52 52 46 42 38 36 31 34 35 34 35 39 41 42 46 47 48 48 49 50 51 51 51 51 50 50 51 52 50 50 48 47 47 46 47 47 48 49 50
46 47 52 53 47 50 47 38 33 34 32 32 38 35 36 40 42 44 43 43 47 47 47 47 47 48 49 50 50 51 51 49 51 50 50 49 48 47 46 47 47 47 47 48
37 40 46 51 45 40 40 38 32 30 29 30 36 32 38 43 45 46 45 43 45 46 46 45 47 47 47 49 49 49 49 48 50 49 49 49 48 46 47 47 47 46 46 48
34 38 47 49 48 46 39 35 39 33 28 26 30 35 38 40 41 43 41 43 43 45 45 46 47 47 47 47 48 48 49 49 50 51 50 49 48 47 46 47 47 47 47 51
36 34 41 47 48 47 42 45 34 30 27 25 27 29 33 35 37 40 40 41 43 44 44 45 46 47 48 48 49 47 48 48 50 50 50 51 48 48 47 47 46 46 48 49
37 35 37 40 38 36 39 35 35 33 30 26 22 29 37 41 41 39 40 42 43 43 43 44 45 46 48 48 47 51 51 50 50 50 51 50 50 49 48 46 47 47 48 47
36 33 30 35 40 42 38 35 35 27 27 23 19 25 40 39 41 42 42 43 43 43 44 44 46 49 48 49 50 51 52 50 51 51 51 52 52 51 47 46 47 47 46 48
38 32 28 34 36 39 35 37 35 29 26 20 20 29 40 37 38 40 41 41 41 42 43 45 45 45 46 49 50 51 51 50 53 52 52 51 50 49 48 47 48 48 48 49
44 31 32 29 32 33 32 33 34 31 18 24 28 35 40 39 39 40 42 40 40 41 43 44 45 47 48 50 50 50 50 52 50 51 51 49 49 48 48 48 48 48 49 47
37 30 28 31 34 33 33 34 33 30 29 28 37 31 40 40 39 40 40 40 41 42 45 46 46 47 47 46 47 49 49 50 50 49 49 49 50 49 50 47 47 48 48 48
34 29 28 28 31 30 30 34 34 35 35 33 35 33 44 43 36 38 38 38 41 42 44 45 46 45 45 45 46 47 47 47 49 47 47 49 49 49 48 46 46 46 47 47
31 28 24 21 27 29 27 33 33 32 33 34 29 37 36 35 38 37 38 39 40 41 43 43 43 44 44 44 45 43 44 46 45 45 46 47 48 47 48 48 48 46 45 44
29 28 26 19 24 19 36 37 37 35 36 37 37 37 37 37 38 39 39 39 39 41 41 42 42 42 42 43 43 43 43 43 43 43 44 45 46 47 48 48 47 44 44 42
34 30 21 16 16 28 36 34 34 32 34 40 38 38 38 38 35 35 41 39 40 40 41 41 41 41 41 41 43 45 44 44 42 41 42 43 45 45 46 45 44 43 42 40
33 31 26 20 11 15 33 37 40 38 28 37 38 36 35 34 26 36 37 40 39 40 40 39 40 41 41 43 45 43 42 42 40 42 42 42 43 42 43 44 45 45 45 44
25 25 23 20 14 24 36 39 40 26 33 36 38 36 34 30 32 38 40 38 39 38 38 41 40 39 40 44 43 40 39 38 41 42 40 40 40 41 41 43 44 45 42 42
26 22 20 21 15 19 39 36 33 37 35 37 36 36 35 35 36 36 37 36 36 36 38 39 39 40 41 43 41 38 38 40 41 41 40 39 39 41 42 41 41 40 38 35
26 33 25 27 27 38 41 39 39 39 37 36 35 36 35 34 34 34 34 34 36 36 37 41 40 40 41 42 41 38 40 41 41 40 39 40 40 39 42 38 39 37 37 36
32 36 30 30 35 41 43 42 40 39 38 38 37 36 35 32 33 32 33 34 35 36 38 41 40 38 39 41 41 41 42 41 40 39 38 38 39 40 42 39 39 37 37 36
35 34 32 30 39 41 41 39 39 39 39 37 36 35 34 33 32 32 33 34 36 36 39 39 38 38 38 40 40 43 42 40 39 39 38 37 40 40 40 40 40 41 42 40
33 33 30 36 46 40 37 37 39 38 37 37 34 33 34 33 32 33 33 36 38 38 38 38 38 38 38 40 40 42 42 40 39 37 37 37 38 40 40 39 39 45 46 47

GFSCGP_sfc_temp_039.txt.gz
Temp
59 57 55 57 57 57 56 54 52 54 56 53 48 48 51 53 53 53 54 56 57 59 60 61 62 64 64 65 65 64 66 66 66 66 65 67 66 67 68 68 68 69 69 69
57 54 58 59 59 57 55 52 51 54 55 54 47 47 51 53 53 54 54 55 56 58 60 61 62 62 63 63 64 65 65 64 65 64 64 64 65 66 65 65 67 66 66 67
53 58 60 59 56 55 53 51 50 52 52 50 47 46 47 52 54 54 56 56 56 57 58 61 62 61 61 63 61 62 63 63 64 63 63 64 65 64 64 65 65 65 64 65
56 59 57 55 54 54 49 55 54 52 49 45 49 45 43 48 49 52 54 54 55 56 58 59 60 61 62 62 61 62 63 63 64 62 61 60 59 58 62 61 61 62 64 65
53 53 53 53 54 56 52 54 51 50 47 46 44 43 47 46 45 49 53 54 55 56 56 57 59 59 62 60 60 60 61 63 63 62 59 58 58 59 60 60 60 63 64 64
53 58 57 56 55 55 54 50 47 44 43 40 43 43 48 43 47 49 53 54 55 56 57 57 58 58 59 60 59 59 60 61 61 60 61 58 57 58 58 59 59 61 62 62
51 52 55 56 53 54 51 46 43 42 41 42 43 41 49 48 48 52 52 54 55 55 56 56 56 57 57 57 58 59 60 58 61 61 60 60 58 58 58 58 58 59 60 61
43 44 50 54 52 49 46 46 43 39 39 40 40 41 50 49 52 53 53 53 52 54 55 55 55 55 56 56 57 59 59 58 59 59 59 60 59 59 59 59 58 59 59 60
41 44 51 51 52 52 46 43 46 39 36 37 41 44 49 48 47 48 50 50 51 52 54 54 55 56 57 58 58 58 57 57 58 59 60 60 60 58 57 58 59 58 59 59
42 42 45 50 52 50 49 48 41 40 37 34 38 37 44 42 45 47 48 49 50 51 52 53 54 55 57 58 58 58 57 56 58 59 59 58 58 59 58 58 57 57 58 58
43 42 44 46 44 43 44 42 39 41 39 37 33 41 47 47 48 47 48 50 50 51 51 53 54 56 55 56 56 57 57 57 58 58 58 57 58 58 59 57 58 58 57 58
43 39 39 43 45 46 45 43 42 40 35 32 31 34 48 47 48 48 49 49 50 50 51 52 53 53 54 55 55 55 56 56 56 57 56 57 58 57 57 57 57 58 55 57
43 39 38 42 43 44 41 41 38 35 33 29 33 42 46 45 45 47 48 48 49 49 49 51 52 52 52 53 54 54 54 53 55 55 55 54 54 55 55 55 56 56 56 55
46 36 39 38 40 40 38 38 37 39 31 34 37 46 50 46 45 47 48 48 48 47 48 49 50 52 52 52 52 51 52 53 53 53 52 51 52 53 53 54 55 55 55 54
42 37 34 35 36 37 37 38 36 35 38 37 45 39 46 48 47 48 48 46 46 47 48 49 49 50 49 49 49 49 49 50 50 49 49 49 51 52 52 53 53 54 54 54
37 35 33 33 34 34 33 36 36 37 39 35 39 39 50 50 47 45 46 45 44 46 47 47 47 47 47 47 47 47 46 47 48 47 47 48 48 49 49 51 51 52 52 52
36 33 30 29 31 32 32 36 39 36 37 40 35 44 44 42 43 44 44 44 44 44 44 45 45 45 45 45 45 45 46 48 47 47 47 47 48 47 47 49 49 49 50 51
32 33 31 27 31 27 43 43 41 39 39 40 40 43 43 43 44 44 45 43 43 43 43 43 44 43 44 45 45 46 47 47 46 45 45 46 46 45 46 47 46 47 49 49
37 34 30 26 24 33 41 39 37 36 40 43 41 43 44 43 41 43 46 45 43 43 43 43 43 43 44 43 45 44 44 45 43 41 42 42 43 43 42 40 43 45 47 47
35 34 33 25 20 22 40 41 44 42 34 44 42 41 41 40 37 44 44 44 43 43 42 41 42 43 43 44 44 42 42 41 40 42 42 43 42 40 39 40 39 43 43 43
29 30 27 27 22 28 39 42 43 33 39 41 42 42 40 39 42 43 43 42 42 41 41 42 42 42 43 44 44 42 41 40 42 43 43 42 42 40 40 41 41 40 41 44
28 25 24 26 22 22 40 40 37 44 42 42 43 43 40 41 40 40 40 39 39 38 39 41 40 41 43 44 43 41 40 43 43 42 41 41 41 40 41 40 39 42 42 42
30 35 30 30 30 42 42 44 45 43 43 42 42 42 40 38 38 38 37 37 38 38 39 41 40 40 42 43 43 39 41 43 42 40 40 40 40 39 40 42 41 39 42 41
35 37 34 33 38 41 44 46 45 43 42 42 42 41 39 37 37 36 36 37 37 38 38 40 39 40 39 42 42 42 43 43 40 39 39 39 39 39 40 44 44 42 41 40
37 36 35 33 40 43 44 44 46 43 41 41 40 40 39 37 36 35 36 36 37 38 40 40 39 38 39 41 41 43 43 41 38 38 39 39 39 38 38 42 43 43 44 43
35 40 35 40 46 43 44 44 44 40 40 40 39 37 38 37 36 36 36 37 37 38 39 38 39 39 39 40 40 42 42 40 38 38 38 39 38 39 39 39 40 43 45 46

GFSCGP_sfc_temp_042.txt.gz
Temp
70 70 68 68 67 67 66 63 62 64 64 62 60 60 60 62 63 63 65 67 68 68 70 72 72 74 75 76 76 76 75 76 76 75 74 74 73 76 76 77 76 76 75 75
69 66 67 68 66 65 64 62 63 62 62 62 62 60 62 61 62 64 65 66 67 67 70 71 72 72 71 73 74 75 75 74 75 73 73 74 75 74 74 74 75 75 75 74
66 65 67 65 63 63 63 61 61 60 60 60 58 59 57 60 63 63 65 67 67 67 68 70 71 71 71 72 72 72 73 73 74 73 72 72 73 73 72 72 72 73 73 74
65 66 64 63 62 63 59 62 60 58 57 56 59 57 56 60 57 61 63 65 66 66 68 69 70 70 72 72 71 72 72 73 73 73 70 69 67 66 69 70 71 71 73 73
62 61 61 61 62 63 59 60 58 57 57 56 55 53 61 59 55 59 63 65 66 67 67 67 68 69 72 71 70 71 72 73 73 72 70 68 66 67 69 70 69 70 71 72
62 65 64 63 62 61 61 58 56 56 56 50 57 54 65 56 59 61 64 64 65 66 66 68 69 69 70 70 69 69 70 70 70 70 69 67 65 66 66 67 67 68 69 70
59 60 62 62 59 61 61 58 55 51 50 53 54 52 62 61 61 65 62 63 65 65 65 65 66 67 67 67 68 68 68 67 69 69 68 67 66 66 65 66 66 66 66 67
57 52 57 60 59 57 56 56 55 46 52 54 50 49 62 59 62 65 65 65 63 63 65 64 65 65 66 66 67 67 67 66 67 67 66 67 67 66 66 66 66 65 65 66
56 53 57 57 59 59 55 54 55 51 49 48 58 58 61 57 58 60 61 61 61 61 63 64 65 65 66 66 66 66 65 65 66 66 66 66 66 65 64 64 65 65 65 65
54 53 54 56 58 57 56 58 51 54 46 45 54 52 58 53 55 57 59 60 61 60 62 64 64 65 66 66 66 66 66 65 65 65 65 64 64 64 64 64 63 63 64 63
54 52 51 54 53 55 52 53 52 52 52 48 47 56 64 61 62 61 62 63 62 61 61 62 64 65 65 65 65 65 64 63 62 62 62 61 61 62 63 62 62 62 62 63
52 53 52 54 53 53 54 54 56 50 48 49 44 48 61 60 61 61 64 64 63 61 60 61 62 63 63 63 63 62 62 61 60 60 60 59 60 60 60 60 61 62 61 62
53 52 51 50 50 51 50 52 52 48 48 45 45 53 59 58 59 60 60 62 62 60 60 61 61 61 61 61 61 60 59 59 58 58 57 56 56 56 56 57 58 59 59 60
52 50 50 50 49 51 48 48 49 51 44 50 49 55 62 61 60 60 60 60 61 61 58 59 59 59 60 59 59 58 57 57 56 55 54 53 54 54 54 55 56 56 58 57
52 48 47 51 49 47 48 49 48 46 51 46 53 54 59 62 61 62 61 58 56 57 57 57 56 56 57 57 57 56 55 55 55 54 53 53 54 54 53 52 53 55 55 56
48 47 44 45 43 43 41 47 48 48 48 49 51 48 60 61 59 58 57 56 55 55 56 55 55 54 54 54 53 53 52 53 54 52 51 52 50 51 50 50 51 51 51 52
47 46 43 42 42 43 43 49 51 51 51 50 46 57 57 55 54 56 56 55 54 54 53 52 52 52 52 52 52 50 51 52 50 48 49 48 48 49 47 46 47 48 48 50
45 45 45 39 43 35 50 54 51 50 52 52 51 53 56 56 55 56 56 54 54 52 52 52 52 51 51 51 51 51 47 48 47 47 48 48 49 46 45 43 43 45 45 47
47 47 41 36 38 47 52 49 47 45 50 56 52 55 57 55 51 55 55 53 52 52 52 51 51 50 50 50 50 46 45 46 46 45 47 47 46 43 43 41 41 41 43 43
43 46 43 38 30 32 50 47 50 49 43 56 54 55 55 51 47 54 53 53 52 52 51 49 49 50 49 50 49 46 44 43 45 46 45 46 44 43 41 40 40 41 42 43
39 40 35 38 32 41 52 50 50 39 47 55 54 55 52 48 54 54 53 52 51 49 48 48 48 47 48 47 46 43 44 43 46 47 46 45 43 42 41 41 40 41 41 41
40 37 37 38 31 31 52 48 44 56 55 53 54 54 51 52 52 50 49 48 47 46 46 47 46 46 46 46 45 43 42 46 47 46 43 42 41 42 41 40 40 42 45 44
39 49 45 43 43 53 53 56 59 54 53 54 53 54 52 50 49 48 46 47 46 46 46 47 46 45 45 47 45 43 44 44 44 42 42 41 41 41 41 40 40 41 44 43
47 50 43 44 52 53 57 58 58 57 54 55 55 53 51 48 48 46 46 46 45 46 45 46 45 44 43 46 45 45 44 44 42 40 41 40 39 40 41 41 41 41 42 40
48 47 50 50 54 54 55 58 57 57 56 52 52 51 49 48 46 45 44 44 45 44 45 46 45 43 42 43 43 46 44 42 39 40 40 40 39 39 40 41 40 40 43 43
51 49 46 45 57 54 54 57 58 53 53 54 51 48 47 46 45 44 44 45 44 44 45 44 44 42 41 42 43 44 43 41 40 39 39 38 39 39 39 40 40 43 44 45

GFSCGP_sfc_temp_045.txt.gz
Temp
76 72 70 76 75 73 72 69 68 72 71 65 67 69 68 68 68 68 70 72 72 74 74 75 76 77 78 78 79 79 78 78 78 75 74 73 72 75 75 76 77 76 76 76
72 69 73 72 71 70 70 68 68 71 68 66 69 67 72 69 66 69 69 71 72 73 74 75 75 75 75 76 77 77 77 76 76 74 74 73 74 74 74 74 75 75 75 75
70 69 71 70 68 66 68 66 67 65 66 69 64 64 68 69 68 69 71 72 73 72 73 75 76 75 75 75 76 75 75 75 75 75 74 73 73 72 71 72 72 73 74 73
71 72 68 67 67 68 63 67 65 63 61 60 66 58 65 66 63 65 67 69 70 71 72 73 73 73 75 75 75 75 75 75 75 75 72 70 67 66 69 70 71 72 73 73
66 66 65 64 67 67 63 65 63 62 61 62 63 56 65 67 60 63 66 68 70 72 72 72 72 73 74 74 74 73 73 74 74 73 71 69 67 68 69 70 69 71 72 73
68 70 68 68 66 66 66 63 63 62 60 52 64 59 66 62 65 68 69 70 70 71 72 71 73 73 73 73 72 71 71 71 71 71 70 68 66 66 66 66 66 67 69 70
65 65 67 67 62 65 63 61 55 52 50 55 62 57 66 69 68 70 70 70 70 71 70 70 70 70 70 69 69 70 70 68 70 70 69 68 67 66 65 65 66 65 66 67
61 56 63 65 64 62 62 61 56 47 53 57 58 54 64 67 69 70 72 71 70 69 70 69 69 68 69 69 69 69 69 68 69 69 68 68 68 67 66 66 65 65 65 66
61 59 62 62 64 63 60 56 61 56 61 53 62 64 64 64 64 67 67 68 66 67 68 68 69 69 69 69 69 69 68 67 68 68 67 67 67 65 64 64 66 65 66 66
61 55 60 60 62 62 60 63 55 57 48 48 59 60 61 59 61 64 65 65 66 67 67 67 68 69 69 70 69 69 69 67 67 67 66 65 64 64 64 64 63 63 64 64
60 58 55 58 57 60 57 58 57 56 57 50 49 57 68 66 67 65 66 68 67 68 67 67 68 69 69 69 69 68 67 66 65 64 63 62 62 62 62 61 61 62 62 63
59 58 56 59 59 59 59 59 60 52 53 55 51 51 71 67 66 66 68 69 70 70 68 66 67 67 68 67 67 66 65 64 63 62 61 60 60 60 59 58 59 59 59 60
58 57 52 53 54 57 54 60 59 59 52 47 46 53 68 65 65 66 63 66 66 67 66 66 66 65 65 65 65 64 63 62 62 61 59 58 58 57 57 58 58 58 58 57
54 56 54 50 53 54 53 55 56 55 48 52 54 58 66 68 64 67 67 67 67 65 65 64 63 63 63 63 62 62 61 61 59 58 57 56 56 57 57 56 56 55 55 53
56 52 56 57 57 56 54 53 56 52 54 50 55 55 61 64 64 64 64 64 62 62 62 62 61 60 61 60 60 60 59 58 58 56 55 54 55 55 54 51 51 52 53 52
55 50 51 49 54 50 48 52 54 54 55 54 55 54 65 62 64 63 64 63 61 60 60 60 59 59 58 58 57 56 56 56 56 53 52 53 52 50 49 49 50 50 49 49
52 50 47 45 50 51 46 55 57 57 58 56 49 58 62 59 60 61 61 60 59 59 58 57 57 57 56 56 55 54 55 55 53 51 50 49 49 48 48 48 48 46 45 46
52 50 49 41 47 38 55 63 60 53 55 57 58 58 59 59 61 61 62 60 59 58 56 56 56 55 55 55 55 55 54 53 51 49 48 47 47 47 47 47 44 43 43 42
53 51 44 38 43 50 55 51 52 50 51 60 59 58 60 61 60 60 61 59 57 57 56 56 56 54 54 53 54 52 51 49 47 45 47 48 48 46 45 43 41 42 41 41
49 51 46 46 33 33 51 52 56 54 45 59 58 57 57 58 48 55 58 58 57 57 56 54 53 53 53 53 52 49 48 45 45 46 46 47 46 44 43 42 41 41 41 41
44 45 39 42 37 44 58 55 55 42 47 59 59 58 56 52 56 59 60 57 57 55 53 53 52 51 52 52 51 47 46 44 46 47 47 45 44 44 44 42 41 41 40 41
46 43 42 44 38 34 58 52 48 56 58 58 58 58 55 56 57 57 56 54 53 52 51 52 50 50 52 52 50 46 45 48 48 45 43 43 43 44 44 41 41 41 40 40
44 52 48 50 46 60 60 56 60 60 57 57 57 57 57 55 55 55 53 52 52 51 51 51 50 49 51 51 50 45 45 46 45 42 42 42 43 43 43 42 40 40 40 39
55 58 48 49 55 59 62 64 63 62 58 58 58 57 57 54 54 54 52 51 51 50 49 50 49 48 48 49 47 46 47 45 42 41 42 42 41 42 42 41 40 39 39 39
56 53 52 52 56 58 60 60 59 58 59 58 59 58 55 54 53 52 50 50 50 49 49 49 47 47 47 47 45 46 46 44 41 41 41 41 41 40 40 40 40 40 42 42
56 52 48 47 55 54 55 59 60 57 56 57 55 55 56 53 51 51 49 50 49 48 48 47 47 46 45 44 44 45 44 44 42 40 40 40 39 39 39 38 39 44 47 47

GFSCGP_sfc_temp_048.txt.gz
Temp
72 64 60 67 69 68 66 64 62 67 68 63 61 62 66 64 63 61 62 63 63 65 67 68 67 63 63 68 67 66 66 65 64 61 59 58 57 60 60 62 65 65 64 64
66 59 69 72 70 67 66 63 62 66 68 62 60 61 66 64 61 62 62 62 64 65 64 65 67 65 67 66 66 65 65 65 63 61 60 59 59 59 60 60 62 63 63 63
63 68 72 70 67 65 64 61 61 60 64 65 60 56 60 65 64 64 64 64 65 64 64 64 64 65 65 64 64 65 64 65 64 63 61 59 59 58 56 57 58 60 63 62
68 71 68 65 64 67 58 65 64 62 56 49 59 44 56 60 58 60 61 61 62 63 64 63 62 59 60 63 65 65 64 64 66 63 59 57 54 53 55 56 57 60 61 62
63 65 63 62 65 67 59 63 61 60 54 52 54 47 52 59 54 56 59 61 61 62 63 64 64 62 61 63 62 62 63 63 62 61 59 55 54 54 55 56 57 58 59 60
65 70 67 65 67 66 65 60 59 57 52 41 53 51 50 53 58 58 61 62 63 63 63 63 62 61 62 63 62 61 61 61 61 60 59 56 54 54 55 55 56 56 56 56
64 64 66 66 61 63 61 53 43 40 40 42 58 51 52 59 61 61 62 61 63 63 62 61 60 61 60 58 61 62 60 59 60 59 58 57 55 54 53 54 54 54 56 55
55 51 61 66 61 56 58 53 44 38 40 45 55 45 53 61 63 61 64 63 63 61 61 60 61 60 59 60 60 60 59 58 59 58 57 57 56 53 53 53 55 56 56 57
54 52 61 63 64 60 56 48 54 48 52 44 50 53 56 58 58 58 59 60 59 60 60 60 60 60 60 60 60 60 59 58 58 58 56 55 55 54 54 55 56 56 56 58
56 49 60 59 61 60 54 58 46 46 38 36 47 48 46 50 53 56 56 56 58 59 59 59 60 60 60 60 60 60 59 58 57 56 55 56 53 54 55 55 54 54 55 55
56 53 51 56 53 53 51 50 51 49 46 38 36 43 54 57 58 56 58 60 60 59 59 59 59 59 60 60 59 58 58 57 55 55 54 53 53 54 54 54 53 54 54 54
55 50 47 52 57 59 55 53 53 42 41 43 37 40 60 58 59 60 59 61 60 59 60 59 58 58 58 57 57 56 56 54 54 54 53 53 54 53 52 53 54 54 53 53
53 49 42 44 49 53 50 55 54 51 44 37 32 41 59 58 57 58 54 55 59 57 59 58 57 56 56 56 55 55 54 52 53 53 52 52 51 51 51 51 51 52 50 50
52 50 47 40 45 50 47 52 54 49 35 40 42 49 55 57 55 56 55 55 55 57 58 56 54 54 54 54 54 53 52 52 52 52 51 49 49 50 50 49 49 49 51 50
51 45 50 51 53 53 51 51 51 48 49 40 47 48 54 53 52 53 54 56 54 56 57 56 54 52 52 51 51 51 50 51 51 50 48 48 49 48 48 48 49 49 49 49
52 44 47 44 54 50 47 50 50 50 51 50 50 48 55 54 55 54 54 55 55 54 56 55 54 53 51 50 49 50 50 50 50 49 48 48 47 47 46 48 48 48 48 48
49 44 40 36 48 47 40 49 50 49 52 51 43 49 53 52 54 53 53 54 54 53 52 52 51 50 49 48 50 48 49 49 48 47 46 46 47 46 47 47 47 46 45 46
48 45 41 33 40 29 48 55 54 51 52 52 52 52 53 52 53 53 55 54 51 52 51 50 49 48 47 47 48 49 47 46 46 44 44 45 47 46 46 45 44 44 44 42
50 45 36 31 31 43 49 49 48 45 45 53 50 52 54 54 52 51 54 53 50 49 50 49 48 47 46 47 48 46 45 45 45 44 44 46 46 44 44 42 42 42 42 41
49 46 38 35 27 25 45 50 53 50 34 52 52 51 51 50 37 44 53 53 50 51 50 48 47 47 46 46 46 44 44 43 43 43 45 46 45 43 42 42 41 42 42 42
38 37 32 33 31 37 51 51 51 33 36 50 51 49 48 43 45 51 54 53 51 50 49 48 46 44 45 46 46 43 43 41 43 44 45 44 44 43 43 42 42 41 41 41
38 35 34 35 31 28 52 48 41 47 50 51 50 49 48 49 51 52 52 50 49 47 47 47 44 43 45 46 45 42 41 43 44 45 43 43 43 43 43 41 42 41 40 39
37 45 38 40 38 52 53 51 54 52 49 48 48 50 50 50 49 51 48 46 47 46 46 46 43 43 44 44 43 40 41 44 44 43 42 42 43 43 43 41 40 39 39 39
49 53 40 42 47 51 54 55 55 54 51 52 52 51 51 49 49 48 48 47 46 46 45 45 44 42 42 43 43 41 43 44 43 41 41 42 41 42 41 41 40 39 38 38
47 49 45 45 49 49 51 52 53 54 54 53 53 52 50 49 47 47 46 45 45 45 44 44 42 41 41 42 41 42 45 44 41 41 41 41 41 39 38 39 39 39 41 44
48 46 41 39 48 45 46 51 54 52 51 51 50 50 50 49 46 46 45 46 45 43 43 42 42 40 40 41 41 42 45 43 41 39 40 39 39 38 38 38 38 42 46 48

GFSCGP_sfc_temp_051.txt.gz
Temp
64 57 52 56 60 61 57 54 52 56 63 59 55 55 58 58 58 56 56 55 56 59 61 63 64 63 62 62 60 59 61 59 58 56 54 53 54 54 56 57 60 59 59 60
58 51 62 66 64 61 58 53 53 57 62 57 56 56 59 59 59 59 57 55 56 57 57 59 63 63 64 62 60 58 60 60 58 57 56 54 53 54 54 55 57 58 59 60
55 60 68 66 61 59 56 52 53 53 57 58 53 50 54 55 56 59 58 58 58 58 57 57 57 60 60 61 59 60 60 60 59 58 56 55 54 53 52 53 54 56 58 58
57 64 63 59 59 60 51 58 58 57 50 42 53 38 48 50 51 55 56 55 57 57 57 58 57 57 57 58 59 59 59 59 61 58 55 52 50 49 50 50 52 54 56 57
55 58 57 56 58 61 54 58 55 53 46 42 45 40 44 50 47 51 53 55 56 57 59 60 60 60 60 59 57 58 58 59 58 57 55 51 50 49 50 50 51 51 53 54
57 63 60 57 62 61 61 54 52 49 44 34 44 44 43 46 51 51 52 55 58 57 59 59 59 60 59 58 58 58 58 58 57 56 55 53 50 50 48 48 48 48 49 50
54 55 58 62 54 57 54 45 35 35 33 35 50 45 46 52 54 55 55 54 56 57 57 57 57 57 57 57 58 59 58 56 56 55 54 53 51 49 48 48 47 47 47 48
45 43 53 59 53 49 50 46 36 33 33 38 49 41 46 51 55 57 57 56 56 56 55 56 57 56 57 59 58 57 55 55 55 54 53 52 51 48 48 48 48 47 47 48
44 44 55 58 57 54 48 43 48 41 39 35 41 43 49 53 53 55 54 54 53 55 55 57 57 57 56 56 56 56 55 55 54 53 51 50 49 49 48 48 48 47 48 53
46 41 53 55 55 54 48 51 41 39 32 30 38 38 42 46 48 51 52 52 54 56 56 56 57 57 56 55 56 55 54 53 53 52 50 51 48 49 48 48 47 47 48 50
47 44 44 49 46 46 46 43 44 42 38 31 29 37 49 48 49 50 48 53 55 55 56 55 55 55 56 55 54 53 53 52 51 50 49 48 47 48 48 47 47 49 49 47
46 42 38 44 49 52 48 45 45 35 36 35 29 34 50 51 53 54 53 55 53 55 55 55 54 54 53 52 51 51 51 49 49 49 48 47 47 46 45 45 48 46 48 48
46 40 34 38 44 47 44 48 48 43 35 33 27 36 53 51 51 52 50 53 53 54 54 53 53 51 50 49 50 49 49 48 48 48 46 45 44 44 46 43 46 48 48 48
50 41 39 34 38 43 41 47 48 44 26 32 35 39 48 48 48 50 49 49 49 52 55 52 50 48 48 48 48 48 47 47 47 47 45 43 43 44 42 46 46 47 47 47
45 39 41 44 47 47 46 46 46 43 41 34 40 43 47 48 46 47 49 51 51 52 54 52 49 47 46 46 46 46 45 46 46 44 43 43 43 45 46 45 46 47 49 49
45 38 40 39 47 46 43 45 45 44 45 43 44 42 48 48 47 49 48 50 51 51 51 50 49 48 47 45 44 44 44 44 43 42 44 43 44 45 44 45 45 47 47 47
42 37 32 29 40 41 35 43 45 45 46 44 37 44 48 47 49 48 49 50 49 49 48 47 47 46 45 44 45 43 42 42 41 42 43 43 44 44 44 46 46 45 45 45
41 39 34 24 33 24 41 48 49 46 47 46 46 46 47 46 47 48 46 45 45 47 47 45 44 44 44 44 44 43 43 41 41 40 41 42 43 43 44 45 44 44 44 42
43 37 29 24 22 35 42 44 44 41 40 46 43 46 47 48 45 45 50 50 48 45 45 44 44 44 43 43 43 42 41 40 39 40 40 42 43 43 43 42 42 42 41 41
43 38 31 27 20 20 39 45 49 46 29 46 46 45 45 44 36 38 49 50 49 47 46 45 44 44 42 42 42 41 39 38 37 40 42 43 45 43 42 42 41 42 42 41
31 29 25 23 20 30 43 47 48 31 33 47 47 45 44 39 41 46 49 49 47 46 45 44 43 41 41 42 42 39 37 37 40 42 43 44 45 43 43 42 42 42 41 41
32 25 25 26 22 24 48 44 38 42 44 46 45 45 45 45 46 47 48 47 45 43 44 44 41 40 42 42 40 36 35 40 42 42 43 43 43 44 44 42 42 41 40 39
33 39 32 34 33 45 47 46 47 47 46 46 45 46 46 45 45 46 45 44 44 43 43 44 41 40 41 40 39 35 39 40 41 41 42 42 43 43 43 41 39 38 39 38
42 44 34 37 42 44 46 48 48 46 45 47 47 46 46 44 45 44 44 43 42 42 42 42 40 38 38 39 39 38 39 40 40 41 41 42 41 41 41 39 39 38 38 38
42 41 39 38 41 44 45 45 45 46 47 47 47 46 45 45 44 44 43 42 42 41 41 41 38 37 37 38 38 38 38 39 39 40 41 41 40 39 38 38 38 39 41 43
45 41 35 34 42 40 40 45 46 46 45 46 45 44 46 45 44 43 41 41 40 39 40 38 38 37 37 37 37 37 39 39 38 39 39 39 38 38 38 37 37 42 47 48

GFSCGP_sfc_temp_054.txt.gz
Temp
62 57 53 57 58 58 55 53 51 55 61 56 52 52 55 56 54 53 51 51 53 56 59 60 61 62 59 57 56 57 59 57 56 54 53 52 52 52 53 54 57 57 56 57
57 52 60 63 62 60 56 52 50 56 60 57 54 54 58 56 57 58 55 53 54 54 54 57 60 60 61 59 57 56 58 58 56 53 52 51 50 51 51 52 55 56 56 56
52 58 66 63 58 57 53 50 49 51 55 55 51 49 51 54 54 56 55 56 55 55 56 55 55 58 57 57 56 57 57 58 56 55 53 53 52 51 51 51 52 53 54 54
55 62 62 57 56 57 48 56 56 54 48 42 51 37 46 48 47 52 53 52 54 54 57 56 56 55 55 56 56 57 57 57 58 55 53 50 49 48 48 48 49 50 52 52
54 56 55 54 56 58 53 56 53 51 44 40 42 39 45 45 45 49 51 53 53 53 56 55 55 57 57 56 55 56 56 57 57 55 53 50 49 47 47 47 48 48 49 51
55 61 58 57 59 58 58 52 48 44 41 33 41 42 42 43 48 47 49 53 54 54 55 56 56 56 56 55 54 55 56 57 56 54 53 51 48 47 46 46 45 46 46 47
51 53 56 59 52 55 52 43 35 34 32 34 44 41 43 48 50 51 53 52 54 54 54 54 54 54 54 54 55 56 56 55 54 53 51 50 49 47 46 45 44 44 44 45
43 42 51 56 51 47 47 44 35 32 31 36 44 38 45 50 54 52 53 53 53 53 54 54 54 54 54 55 55 55 54 53 53 51 51 50 48 46 46 45 45 44 44 45
42 44 53 55 54 52 46 41 45 39 35 33 38 43 50 50 52 51 50 52 52 53 53 53 54 54 53 54 55 54 53 52 52 51 49 47 47 46 45 46 45 44 45 49
44 40 49 52 53 52 46 49 40 36 31 29 35 36 40 45 45 47 47 48 51 53 53 53 54 54 53 51 52 52 52 51 50 48 47 48 46 46 46 44 44 44 45 45
44 42 42 47 44 43 44 42 41 40 36 30 29 35 44 44 48 47 47 52 52 53 52 51 51 52 52 51 50 50 49 49 48 47 46 45 45 45 44 43 44 44 44 44
43 41 37 42 47 50 46 44 42 34 34 31 26 33 48 46 51 53 51 53 51 51 53 53 51 51 49 49 48 47 47 46 46 46 45 45 44 43 42 41 42 43 44 46
44 39 33 38 42 45 43 46 45 39 32 32 27 35 49 46 48 49 47 47 51 50 51 52 50 48 47 46 46 46 45 45 45 45 43 43 43 42 41 41 42 45 45 45
49 39 38 33 37 41 40 44 45 40 25 31 33 37 45 47 46 47 48 49 50 52 52 50 47 45 44 44 44 44 44 44 44 43 42 41 40 41 40 41 45 45 45 44
44 38 38 41 44 43 44 44 44 40 39 34 37 40 44 45 43 45 46 49 49 50 51 49 45 43 42 42 42 43 43 43 42 42 41 41 42 41 42 43 44 44 46 47
42 37 37 37 42 41 41 43 42 41 42 41 40 39 45 46 45 46 46 47 47 46 47 46 46 44 44 42 41 42 42 42 41 40 41 42 43 42 43 43 43 44 45 46
40 36 32 30 37 38 34 40 43 42 42 41 35 38 43 44 46 45 46 44 45 45 47 47 46 44 43 42 43 41 41 40 39 39 40 41 41 42 42 44 45 43 44 45
38 36 32 24 31 25 39 44 45 42 42 42 42 42 44 44 46 46 46 45 47 47 47 45 43 42 42 42 42 41 41 39 38 37 39 39 41 41 43 44 44 44 44 43
40 35 27 23 20 33 38 42 41 39 39 43 42 44 45 45 42 42 48 48 47 46 45 43 42 43 41 41 41 40 39 38 37 38 37 40 41 40 43 42 42 42 42 41
39 35 31 25 19 20 37 44 47 44 29 43 44 43 42 42 34 37 46 48 47 47 45 43 42 42 40 41 39 38 36 35 35 39 39 41 41 41 42 42 42 43 42 42
30 28 26 22 19 29 41 45 47 30 32 42 44 43 42 38 40 45 46 46 46 45 44 43 40 39 39 39 38 36 35 34 38 40 41 40 41 43 43 43 43 42 40 40
31 24 24 23 21 24 45 43 38 40 41 43 42 44 43 43 44 44 45 44 45 43 42 41 39 39 38 38 36 35 33 39 39 39 39 39 42 43 44 42 41 39 39 38
32 38 31 32 32 43 44 43 45 45 43 42 42 43 43 42 42 43 43 43 42 41 41 41 39 38 37 37 36 34 37 38 38 37 37 39 41 43 43 40 38 38 38 38
41 42 34 36 40 42 44 46 46 45 42 45 44 44 43 41 42 41 42 41 41 40 40 40 38 36 35 36 37 35 36 38 36 35 36 40 40 41 40 39 39 38 38 38
41 40 38 35 38 41 42 42 43 43 44 43 43 43 43 42 41 41 41 40 40 39 39 38 36 36 35 36 35 36 36 36 35 36 40 41 41 39 38 38 38 39 41 44
41 39 35 34 41 40 39 41 44 44 43 44 42 42 43 42 41 42 40 40 39 38 38 37 36 35 35 35 35 35 37 36 35 38 39 39 39 38 38 37 37 42 45 46

GFSCGP_sfc_temp_057.txt.gz
Temp
60 56 52 57 57 57 55 51 50 53 58 54 51 52 54 55 52 51 50 50 51 53 56 56 58 57 56 55 54 54 56 55 54 53 52 50 51 50 52 52 54 55 54 54
56 51 59 61 60 58 55 50 49 54 58 55 51 52 56 54 54 55 54 51 52 52 54 55 57 55 56 55 54 54 55 55 54 52 51 50 49 50 50 51 53 53 53 53
52 57 63 61 57 55 52 49 48 50 54 53 51 48 50 53 52 55 54 55 54 54 54 53 53 55 55 54 54 54 54 55 54 53 51 50 49 49 50 50 50 51 51 51
54 60 60 55 54 55 47 54 54 52 48 41 49 37 46 46 48 49 50 50 52 52 53 55 53 53 54 55 54 54 55 55 56 53 51 50 48 47 47 46 47 48 50 50
52 54 53 52 54 56 51 56 51 50 43 39 41 37 44 47 47 48 47 49 51 52 55 54 55 55 55 54 54 54 54 55 55 52 51 49 48 46 46 46 46 47 47 48
52 58 56 54 57 56 56 51 47 42 39 33 39 39 42 44 46 49 46 51 52 52 52 53 55 52 54 53 53 52 53 54 53 52 51 49 47 46 45 45 44 44 44 45
49 50 54 57 51 54 51 43 35 33 32 33 41 39 43 47 48 49 51 51 52 51 51 52 53 52 53 52 52 53 52 53 52 51 50 48 47 45 44 44 43 43 43 43
41 41 49 54 49 46 45 43 35 32 31 34 42 36 44 47 50 49 50 50 51 51 51 52 52 52 52 53 52 52 52 51 51 49 48 47 46 44 44 44 43 42 42 42
40 42 51 53 52 50 43 40 43 37 32 31 36 41 46 49 50 50 50 50 49 51 51 52 52 51 51 50 51 51 51 50 49 47 46 46 45 45 44 44 42 42 43 47
43 38 47 50 51 50 45 49 38 35 31 28 32 33 38 43 46 50 50 50 50 51 51 50 50 51 50 49 49 49 49 47 46 46 45 47 44 44 44 42 42 42 43 42
43 41 40 46 42 42 43 40 39 38 34 30 28 34 42 42 46 45 47 50 50 50 50 50 50 50 49 48 47 46 46 46 46 46 45 44 43 43 42 41 41 41 41 44
42 40 36 41 45 47 43 41 40 33 32 29 25 32 45 43 47 49 47 50 49 50 51 50 50 48 46 45 45 44 45 44 45 44 43 42 42 41 40 40 41 42 43 44
44 38 33 37 41 43 40 43 41 37 32 30 27 34 47 45 48 48 46 47 48 50 51 50 46 44 43 43 43 43 43 43 44 43 41 41 41 40 40 40 41 42 43 44
49 37 37 33 36 39 37 42 41 39 25 30 32 35 42 45 43 44 44 45 46 47 48 47 45 42 42 42 42 42 42 42 42 42 40 39 39 39 40 41 41 42 43 43
42 37 35 38 41 40 40 42 42 38 37 34 37 37 41 41 41 41 43 46 46 47 48 45 45 43 42 41 41 41 41 41 41 40 39 40 40 40 40 40 42 42 43 43
40 36 35 35 40 39 38 41 41 40 39 38 38 37 40 41 40 43 43 44 44 45 47 47 47 45 43 41 40 40 40 40 39 38 38 39 41 41 41 41 41 42 44 46
38 35 31 30 35 36 34 38 40 40 40 39 35 38 40 41 44 43 44 44 45 45 46 46 45 43 42 41 41 39 39 38 37 37 37 39 40 39 40 41 41 44 44 44
37 35 31 24 30 25 38 42 43 42 41 40 41 41 42 42 44 44 44 44 45 45 45 45 43 42 41 41 40 39 39 37 36 36 36 38 38 39 40 40 41 43 44 42
38 34 26 23 20 32 37 41 40 39 39 43 40 41 42 44 40 41 46 45 45 44 44 43 41 41 40 40 39 38 37 36 35 36 36 38 39 39 39 39 41 43 42 42
38 35 31 24 19 20 37 42 46 43 29 42 42 40 40 40 32 36 45 46 46 45 44 42 41 41 39 39 37 36 35 34 34 36 38 39 39 38 38 40 41 43 43 41
29 27 25 22 19 29 39 43 44 30 31 41 42 40 40 36 39 42 44 45 45 43 43 42 39 38 38 37 36 35 34 33 36 38 38 38 39 38 40 42 43 42 40 39
32 24 23 22 20 24 43 42 38 39 40 41 40 40 40 41 42 42 43 42 42 42 41 40 39 38 37 37 35 33 32 36 36 37 37 37 37 41 43 42 41 39 39 38
30 36 29 31 31 41 41 41 42 43 42 39 39 41 41 40 40 41 40 40 41 41 40 40 37 36 36 36 34 32 34 35 36 35 35 36 42 43 43 40 38 38 38 38
37 39 33 34 37 40 41 42 43 43 41 43 41 42 41 39 40 39 39 39 39 39 39 39 37 35 34 35 35 34 34 35 35 33 34 39 41 42 41 40 39 38 38 38
39 38 36 34 36 39 39 41 42 42 42 41 42 41 41 40 39 39 39 39 39 38 38 37 35 34 34 35 34 34 35 35 33 33 34 39 40 40 39 39 38 39 40 42
37 38 34 33 40 38 37 41 43 42 40 40 40 41 41 39 39 39 38 38 38 37 37 36 35 34 34 34 33 34 35 34 33 33 38 38 38 38 38 38 38 41 43 45

GFSCGP_sfc_temp_060.txt.gz
Temp
58 55 52 55 55 57 54 50 49 51 56 52 50 50 54 53 50 50 49 48 49 51 55 55 56 55 53 53 52 53 54 52 52 51 51 50 50 49 50 51 53 52 52 52
55 51 57 60 59 57 54 50 49 53 56 53 50 51 55 51 51 53 53 50 51 50 52 54 55 53 53 54 53 52 53 53 52 51 50 49 48 49 48 49 51 52 51 51
51 55 61 60 56 55 51 48 47 49 52 51 49 48 51 51 50 52 52 51 51 53 52 52 52 52 52 52 52 53 53 54 53 52 50 49 48 47 48 48 49 50 50 50
52 58 58 55 53 54 45 53 53 51 46 41 48 37 46 47 49 49 49 48 51 51 53 54 52 52 52 52 52 52 53 53 54 51 50 49 48 47 46 45 46 47 48 48
49 52 52 51 52 55 49 54 50 48 42 39 41 37 44 47 48 49 49 48 49 51 53 53 53 55 52 52 52 52 52 52 53 50 49 47 46 45 45 44 45 45 46 47
50 56 55 52 54 55 55 50 45 41 39 34 38 39 41 43 46 47 49 50 50 50 51 53 52 51 52 52 52 51 51 52 51 50 49 47 46 45 44 44 43 43 43 44
48 48 52 55 50 52 50 43 35 34 33 33 40 38 43 46 48 48 48 49 50 49 50 51 52 51 51 52 51 51 50 50 50 49 48 47 46 44 43 43 42 42 41 42
40 40 47 53 48 46 43 42 34 32 31 33 39 35 43 47 49 48 48 48 48 48 49 49 50 50 49 49 50 50 50 49 49 47 47 45 45 43 43 42 42 41 40 41
39 40 49 52 50 49 41 38 41 35 31 30 35 40 46 48 49 49 49 50 50 50 49 49 48 49 49 49 50 50 49 47 47 46 45 44 44 43 42 42 41 40 41 45
42 38 45 49 50 49 43 47 38 34 30 28 31 32 37 41 44 48 46 45 47 48 49 49 49 50 49 47 46 46 46 46 45 45 44 46 43 42 42 41 41 41 42 41
42 41 39 44 41 41 42 38 37 36 32 30 27 33 40 39 44 44 44 46 46 47 47 47 47 46 45 44 45 44 45 45 44 44 43 42 42 42 41 40 40 41 41 41
40 39 35 39 42 45 41 39 39 33 31 27 24 31 43 41 44 45 44 46 46 47 47 46 44 43 43 43 43 43 43 43 43 43 42 41 41 40 38 38 39 40 41 43
43 37 32 35 39 41 38 40 38 35 31 28 26 33 45 42 44 43 43 44 45 46 47 46 44 42 42 42 42 42 42 42 42 41 40 39 39 38 38 39 41 41 41 41
48 36 36 32 35 38 35 40 38 37 25 30 31 34 39 41 41 42 42 42 42 45 47 46 46 43 42 41 41 41 41 41 41 40 39 38 37 38 39 40 41 41 41 41
42 36 33 36 39 38 38 40 39 37 36 34 34 36 37 38 39 39 41 43 44 46 47 47 46 44 41 40 40 40 40 40 39 38 38 37 38 37 38 39 40 40 41 41
39 35 33 33 38 37 37 40 39 38 37 36 35 36 41 40 38 41 41 43 44 44 45 46 45 44 43 41 39 39 39 39 38 36 36 38 38 39 39 39 39 40 40 41
37 34 31 29 33 35 33 36 38 38 38 39 34 38 40 39 42 41 42 43 43 43 44 44 44 43 41 40 40 38 38 37 36 35 36 37 38 37 38 39 39 39 38 42
36 33 31 24 30 25 37 39 40 40 40 38 39 39 40 40 42 43 41 40 42 44 44 43 42 40 40 39 39 38 37 36 35 34 34 36 37 37 38 38 37 38 40 42
37 33 26 23 20 32 35 37 39 36 37 41 40 40 41 41 39 39 43 42 43 42 42 41 40 40 39 38 38 36 36 35 34 34 34 36 37 36 37 36 38 40 42 42
36 34 30 24 19 20 35 40 43 42 31 42 42 40 38 38 31 35 43 43 43 43 43 41 39 39 37 37 36 35 34 32 32 34 36 37 37 36 36 39 39 42 42 41
28 26 24 22 19 28 38 42 43 30 33 41 42 39 37 35 38 41 42 42 42 41 41 40 37 37 36 36 35 33 32 32 35 36 37 36 37 36 39 41 43 42 41 40
31 23 22 22 20 24 42 40 37 39 38 41 39 38 38 40 40 41 41 40 40 39 40 39 37 36 36 35 33 32 31 34 35 35 35 35 36 39 43 42 41 40 39 38
29 35 29 30 31 40 41 39 40 41 40 39 38 39 38 39 38 39 38 38 39 38 39 39 36 36 35 35 33 31 33 34 35 34 33 34 35 40 42 40 38 38 39 38
35 36 32 33 36 37 40 40 41 41 41 41 40 39 38 37 38 37 37 37 37 38 38 38 36 35 33 34 34 33 33 34 33 31 32 35 39 40 41 40 39 38 38 37
36 36 34 33 34 37 38 40 41 41 42 40 39 39 39 38 38 37 37 37 37 37 37 36 35 34 33 34 33 34 34 33 31 31 34 39 39 39 38 39 39 38 39 41
36 36 33 33 39 37 37 40 42 41 40 39 38 39 39 38 38 38 37 37 37 36 36 35 35 33 33 33 34 33 34 33 31 30 38 38 38 38 38 37 37 42 42 43

GFSCGP_sfc_temp_063.txt.gz
Temp
64 61 56 59 60 62 60 57 57 59 61 60 57 56 61 61 57 57 58 59 59 61 65 65 65 65 65 64 65 66 65 65 65 65 65 65 66 65 65 65 64 64 64 64
58 56 60 61 60 59 58 57 56 58 60 59 55 56 61 58 57 58 59 58 59 59 63 63 63 63 64 65 65 65 66 64 65 64 64 66 66 64 63 62 63 63 63 63
55 59 61 61 58 57 56 55 54 55 56 57 53 53 56 58 58 59 59 60 60 60 63 63 63 62 62 63 63 65 65 65 64 63 62 61 61 61 61 62 62 62 61 61
59 62 60 58 57 58 52 57 57 55 52 48 54 45 52 54 57 57 57 56 58 59 61 63 62 61 62 62 62 63 63 64 63 62 62 62 62 61 61 60 60 60 59 60
55 56 56 56 56 58 54 56 54 52 49 49 48 47 52 53 54 56 57 56 55 57 61 62 62 63 63 61 62 62 62 62 62 63 60 60 59 59 59 58 57 59 59 59
56 60 59 57 56 57 55 53 48 46 45 41 45 45 49 50 52 54 57 57 56 57 58 60 60 60 61 61 60 59 60 61 61 60 60 58 57 58 57 57 57 57 57 57
53 53 57 58 54 56 54 49 42 41 40 40 45 43 50 53 55 53 53 54 57 57 58 58 59 59 59 59 59 59 59 59 60 59 58 57 56 56 56 56 55 54 54 55
46 45 52 56 54 52 50 50 43 39 38 40 44 41 49 54 55 54 53 55 56 56 56 57 57 58 58 59 60 59 59 59 58 57 57 56 55 56 55 54 53 53 53 53
45 46 53 54 55 54 49 46 49 41 38 39 42 47 54 54 54 53 52 54 53 54 56 57 58 58 58 58 58 59 58 56 56 56 57 57 56 54 53 53 53 52 53 53
48 44 49 52 54 52 52 51 45 42 38 36 41 41 47 50 51 51 51 51 52 53 55 55 55 55 56 55 55 55 56 56 55 55 55 55 54 53 53 52 52 52 52 51
48 47 46 50 48 47 47 45 42 44 41 40 38 44 49 50 50 49 50 51 52 52 53 54 54 53 53 53 54 54 54 54 54 54 54 53 53 53 52 51 51 51 51 50
47 44 42 45 48 50 49 46 45 42 38 35 37 42 51 50 50 51 50 50 52 52 53 53 53 53 53 53 53 53 53 53 52 52 52 52 51 51 50 50 50 50 49 49
47 42 39 43 46 48 46 46 42 40 39 35 39 44 49 49 49 49 50 51 52 53 54 54 54 53 53 52 52 52 51 51 51 50 50 49 49 49 49 49 49 49 49 48
50 40 42 39 43 44 43 43 43 43 38 39 40 44 47 48 47 49 50 51 52 53 53 53 54 55 53 51 51 51 51 50 49 48 48 47 48 48 48 48 47 47 47 46
45 41 41 42 43 43 43 44 41 41 42 42 44 41 46 47 47 49 50 50 52 53 52 52 52 53 54 52 50 49 49 49 48 47 47 47 47 47 46 46 46 46 46 46
42 39 41 40 41 41 40 42 42 41 42 41 41 42 47 48 49 49 50 49 49 49 50 51 51 51 51 51 49 48 48 47 46 46 45 45 45 45 44 45 45 45 45 46
41 38 37 37 37 39 38 41 40 42 43 43 41 45 46 46 47 48 48 47 47 48 49 49 49 49 48 48 47 47 47 46 45 45 45 44 44 43 43 44 43 43 43 44
39 37 36 34 37 31 43 45 45 43 44 44 43 43 45 47 48 48 48 48 49 48 48 48 49 48 47 47 46 46 45 45 43 43 43 43 43 42 43 42 42 43 44 44
40 37 31 32 31 37 40 41 42 42 43 44 43 44 46 46 46 47 49 49 47 47 48 47 48 46 46 45 44 44 44 43 42 42 42 42 43 41 41 41 42 43 42 44
38 37 36 29 26 26 41 44 48 47 38 44 45 44 45 44 41 44 49 47 47 48 47 46 46 46 45 45 43 42 42 41 41 42 41 42 42 41 40 41 41 42 43 42
33 31 30 30 28 34 42 45 47 38 41 44 45 45 44 43 45 47 46 46 47 46 45 46 45 44 44 43 42 41 40 40 42 41 41 41 41 40 41 42 43 43 41 41
34 29 29 28 27 29 43 44 41 44 44 45 45 45 44 45 44 44 44 44 44 43 43 45 44 44 44 43 41 40 39 42 41 40 40 40 40 41 42 41 42 42 40 38
34 38 35 35 36 43 43 44 45 44 44 44 44 45 44 43 43 42 42 42 43 43 43 44 43 42 43 42 41 39 41 40 40 39 39 39 40 43 43 41 40 37 38 38
38 39 37 37 39 40 43 45 45 46 45 45 45 45 44 43 42 42 42 42 42 42 43 43 42 41 41 42 41 40 40 40 39 38 38 39 41 42 41 41 39 37 37 37
39 39 37 36 39 41 42 43 44 44 44 44 45 45 44 43 42 42 41 41 42 42 42 42 41 40 40 40 40 41 40 39 38 38 38 40 41 41 40 40 39 38 39 40
37 39 37 38 42 42 42 43 44 42 43 44 44 44 44 43 42 42 41 42 41 41 42 41 41 40 40 40 40 40 40 39 37 37 38 40 40 39 38 37 37 41 42 43

GFSCGP_sfc_temp_066.txt.gz
Temp
73 69 64 70 72 71 68 64 63 65 68 67 69 68 72 76 70 70 73 75 74 75 78 78 78 78 78 78 79 79 77 78 77 75 74 75 74 75 75 75 75 74 74 73
67 65 72 72 70 69 67 64 64 65 66 66 68 67 73 70 69 69 71 73 75 75 76 76 76 76 77 77 78 78 77 76 77 77 77 78 78 77 77 73 73 72 72 71
66 66 70 68 65 65 64 63 64 63 64 65 63 65 65 68 69 69 70 71 74 74 73 74 74 74 75 76 76 77 78 76 76 76 75 73 73 71 70 71 71 71 70 70
67 68 65 66 65 68 62 65 63 61 61 58 63 56 64 66 67 69 70 68 70 72 74 76 74 74 74 75 76 77 76 77 75 73 72 71 72 71 74 72 72 70 69 69
63 64 64 64 64 66 63 64 62 59 60 58 57 56 64 64 64 67 69 67 66 68 72 74 74 75 76 75 74 74 75 74 73 74 71 71 69 71 71 70 67 69 70 69
64 67 67 64 63 65 64 62 60 59 58 51 56 55 60 62 61 64 67 66 66 66 69 73 74 74 73 73 71 71 72 73 73 71 70 68 67 68 68 68 67 67 67 67
62 61 65 66 62 63 63 61 55 51 50 51 54 52 60 61 62 61 61 64 66 68 68 69 69 70 71 70 69 69 69 70 72 71 69 68 66 66 65 66 65 64 64 64
58 53 60 63 62 62 61 60 56 46 50 54 52 50 57 61 63 63 64 65 67 67 69 68 68 69 70 70 70 70 71 70 69 68 67 67 65 67 65 64 63 63 62 62
58 53 60 60 63 62 57 55 59 52 51 51 58 57 62 63 62 63 64 64 63 65 66 66 67 68 68 69 68 68 68 67 65 66 67 68 67 64 63 63 63 62 62 61
59 53 57 58 62 61 60 61 53 56 46 45 53 53 59 58 59 61 62 62 62 64 66 66 66 66 67 67 66 65 66 65 65 65 67 65 64 64 63 62 61 60 60 60
61 60 53 58 56 57 56 56 55 56 54 50 49 54 61 61 60 60 61 61 62 63 65 66 67 67 65 65 65 66 66 64 65 64 64 63 63 63 62 61 60 60 59 59
57 59 55 54 56 58 58 57 59 53 49 52 50 53 61 61 61 61 60 60 61 62 63 64 65 66 66 65 64 64 64 63 62 61 61 62 61 60 60 60 60 60 58 58
58 56 51 50 53 56 55 56 55 53 54 50 48 54 60 60 59 59 60 61 61 62 62 64 65 66 66 65 65 63 62 61 60 60 60 60 59 59 58 58 58 58 57 57
58 54 54 52 52 56 51 52 54 56 50 54 53 56 55 57 57 58 59 61 62 62 60 62 63 64 65 65 64 63 62 61 59 58 58 57 58 57 56 56 56 56 56 55
57 53 53 52 52 52 53 53 52 51 57 51 54 52 56 60 60 60 60 60 60 60 60 61 60 61 62 63 63 62 60 59 58 57 56 56 56 56 55 54 54 54 54 54
54 51 51 50 49 49 48 53 53 53 53 51 53 52 62 61 61 59 60 58 58 59 59 59 59 59 59 60 60 58 58 57 57 56 55 55 54 54 53 53 52 52 52 52
53 51 50 49 47 49 48 53 52 52 53 54 49 57 57 54 55 57 57 57 57 56 56 56 57 58 58 57 56 56 57 57 56 55 55 54 53 52 51 52 51 50 50 51
52 52 51 48 48 39 50 54 54 53 54 55 53 53 54 55 57 58 59 57 56 55 55 56 57 57 57 56 56 56 56 55 54 53 53 53 52 50 50 50 49 50 50 47
53 53 45 43 45 51 51 49 50 50 53 57 54 53 54 55 55 57 57 55 55 55 56 56 57 56 55 54 54 53 54 54 52 52 51 51 50 49 49 47 48 49 47 47
50 53 51 44 36 37 50 52 55 55 48 54 56 54 53 53 50 56 56 56 56 56 56 55 55 55 54 54 54 51 51 51 50 51 49 50 50 49 47 47 47 45 45 45
47 47 45 45 41 49 55 54 55 45 50 54 56 56 54 52 54 54 55 55 55 55 54 54 54 53 54 54 53 50 51 50 51 50 49 49 49 48 48 47 45 44 44 45
47 43 43 43 38 38 54 51 50 54 53 54 55 54 53 52 52 52 52 52 53 53 53 53 52 53 55 54 51 50 50 51 50 49 48 49 49 48 49 45 44 44 44 40
45 52 51 49 51 53 56 54 54 55 55 54 55 53 52 51 51 51 51 52 52 52 52 53 52 52 54 54 52 49 50 50 48 48 48 48 48 49 47 44 43 42 41 38
50 51 49 47 54 53 55 56 55 55 55 55 55 53 52 51 51 51 52 53 52 53 52 52 51 51 52 53 51 51 50 49 47 47 47 48 47 47 45 45 44 40 38 37
55 50 51 51 54 50 52 54 55 53 54 53 53 53 52 51 51 51 52 52 52 52 52 52 51 50 50 51 51 51 49 48 46 46 47 47 47 42 41 44 41 39 39 40
52 54 51 53 57 57 55 56 55 52 52 53 53 51 52 52 52 52 52 53 52 52 52 51 51 50 51 51 50 50 49 47 45 44 45 46 42 40 41 39 40 41 41 43

GFSCGP_sfc_temp_069.txt.gz
Temp
76 69 65 72 75 76 72 70 66 65 70 67 69 73 76 81 77 73 76 79 81 80 83 83 82 83 82 83 82 81 80 81 80 77 76 76 75 76 76 76 76 75 75 74
70 64 75 78 76 73 71 68 67 69 68 66 64 67 75 78 76 74 75 77 79 81 82 81 80 80 81 81 82 81 80 80 79 78 79 79 79 78 77 75 74 74 73 73
67 71 75 72 70 69 69 67 66 64 65 65 64 62 72 72 74 74 75 75 78 80 80 80 79 79 79 79 79 80 81 79 79 79 78 76 76 73 72 72 72 73 73 72
71 71 70 69 68 70 64 71 66 66 61 56 67 55 68 71 71 73 74 74 74 76 80 80 78 77 78 78 80 80 80 81 79 78 75 73 71 70 74 74 74 73 73 72
66 67 66 64 68 72 66 70 68 66 64 63 63 57 67 69 67 69 70 70 71 74 77 78 78 78 79 79 78 79 79 79 79 78 74 72 71 73 74 73 71 71 72 72
69 73 71 68 66 69 70 67 66 65 64 53 64 59 64 65 64 66 69 69 70 71 75 78 79 79 78 78 76 75 76 77 77 75 75 72 69 70 70 70 69 69 70 69
66 66 67 71 64 67 67 64 55 53 51 53 61 58 64 65 64 64 66 67 69 71 72 74 74 73 73 73 72 73 73 73 75 75 73 73 70 69 68 68 68 67 66 66
59 53 64 67 66 65 64 65 58 47 52 57 59 55 61 65 67 68 69 69 70 70 71 71 72 73 74 73 74 74 73 73 74 74 73 72 70 67 68 67 66 65 65 65
62 55 64 65 67 66 62 58 64 59 61 54 61 62 64 66 66 67 67 67 66 68 69 70 71 72 72 72 72 72 72 72 71 71 71 71 70 68 66 65 66 64 65 64
66 55 62 61 66 65 63 66 56 59 48 47 57 58 60 60 62 65 65 65 66 68 69 69 69 69 71 70 70 71 70 69 69 69 69 68 68 67 66 65 64 63 63 62
66 64 56 61 60 61 59 60 60 59 58 51 50 56 67 65 65 65 65 66 66 67 68 69 69 70 69 70 69 69 69 68 68 67 67 66 66 66 65 64 63 63 62 62
64 64 56 58 61 63 63 63 63 55 53 57 54 54 67 68 67 67 65 65 65 66 66 67 68 69 70 69 69 68 67 66 66 65 64 64 64 64 63 63 63 63 61 61
64 61 53 52 57 60 58 62 63 61 58 52 50 54 66 65 64 66 65 65 65 65 66 67 68 68 68 68 68 67 67 66 65 64 63 63 62 62 61 61 61 61 60 59
59 61 58 53 54 62 56 58 60 60 53 56 57 58 59 61 62 63 64 65 66 64 63 65 65 66 67 67 67 67 66 66 64 62 61 60 60 60 59 59 58 58 58 57
61 57 59 58 58 57 58 58 58 56 59 54 59 56 63 64 64 66 66 65 64 63 63 63 62 63 64 65 65 65 64 63 62 60 60 59 60 59 58 57 56 57 56 56
60 56 57 55 56 55 53 57 58 58 58 58 58 56 67 68 67 64 63 63 62 63 62 61 61 62 62 62 62 62 62 61 61 60 59 58 57 56 55 55 55 54 54 54
59 57 54 52 54 54 51 57 58 58 59 58 53 58 62 59 60 62 63 61 61 60 59 59 60 60 60 60 60 59 60 61 59 58 57 57 56 55 54 54 53 52 52 53
57 57 55 50 52 42 53 59 60 58 59 60 59 58 59 60 62 64 63 61 60 58 58 59 60 59 60 60 59 59 59 58 57 56 56 56 55 53 53 52 51 51 51 50
59 59 51 46 48 56 54 54 55 54 56 62 60 59 59 60 60 60 62 60 58 58 59 59 60 59 59 58 58 57 56 56 55 55 55 54 53 51 51 49 49 50 49 46
55 58 54 49 39 38 54 57 60 59 50 60 61 59 59 58 52 53 59 59 58 59 59 58 58 59 59 59 58 55 54 54 54 54 53 53 52 51 50 49 49 50 47 45
51 51 47 48 43 52 59 59 60 47 51 60 62 61 59 55 56 57 58 58 58 58 58 58 58 57 58 58 57 53 53 53 55 54 53 52 52 51 51 50 50 48 45 45
50 47 46 50 43 40 60 56 52 57 59 60 60 60 57 57 55 55 55 56 56 55 56 57 56 56 58 58 56 53 52 55 54 52 51 51 52 51 51 50 48 46 44 42
48 58 55 53 53 59 61 59 59 60 59 59 59 58 58 55 54 54 54 55 56 56 56 57 56 55 56 58 57 53 53 54 52 51 50 51 51 51 51 47 44 43 42 40
57 58 53 52 61 59 60 63 60 59 59 60 60 57 57 55 55 54 55 55 55 56 55 56 55 54 54 56 56 54 54 53 51 49 50 49 49 49 49 45 44 42 39 38
58 56 56 56 61 58 59 61 63 59 59 58 58 57 56 55 54 55 55 55 56 56 56 56 54 54 54 55 55 55 54 52 49 49 49 48 49 47 43 42 42 39 40 40
59 59 54 55 63 63 61 62 62 57 55 57 56 55 56 56 54 55 55 56 56 55 56 55 54 54 54 54 54 53 53 51 48 47 47 47 46 42 40 40 41 44 42 43

GFSCGP_sfc_temp_072.txt.gz
Temp
70 62 59 65 67 69 69 64 61 61 67 62 59 62 67 72 70 68 65 68 70 72 74 75 74 73 72 72 70 69 69 68 66 63 62 61 60 62 62 63 66 66 64 65
63 58 69 73 73 70 70 65 60 61 66 63 61 60 66 69 69 67 67 67 68 69 72 71 71 71 71 70 70 69 69 68 66 64 64 63 62 62 62 62 63 64 64 63
60 67 74 73 70 68 67 63 63 62 63 63 59 55 61 68 69 70 69 67 68 68 70 70 69 68 68 68 68 69 69 68 66 66 64 63 62 61 59 60 60 62 64 63
67 70 70 68 65 67 60 70 67 65 58 50 60 45 58 62 64 67 65 65 65 67 70 72 70 67 67 67 68 69 69 68 68 66 63 61 58 56 59 59 59 60 63 62
63 62 63 64 64 70 62 67 62 62 57 55 54 47 53 62 60 60 61 63 62 66 68 69 68 68 69 69 67 68 68 68 67 66 63 60 58 59 60 59 59 59 60 61
66 73 68 67 67 68 68 63 62 59 55 44 56 52 50 53 56 58 60 61 62 63 65 68 69 69 68 67 66 65 66 66 66 64 63 60 58 58 57 57 56 56 56 56
62 63 66 68 59 64 63 56 44 41 41 42 57 52 49 56 58 59 59 59 60 61 64 64 64 64 64 63 63 65 64 62 64 63 62 62 59 58 55 56 54 54 53 53
52 48 60 66 62 58 58 56 47 39 41 45 55 46 47 59 61 62 62 61 61 61 62 63 63 62 62 63 63 63 63 61 63 63 61 61 60 56 55 54 53 52 52 52
52 52 63 65 66 62 58 50 58 51 52 45 50 51 55 60 59 60 59 59 58 59 60 61 62 62 61 60 61 62 62 61 61 61 60 59 57 56 54 54 54 52 53 56
60 49 61 61 64 62 59 61 49 50 40 37 49 47 46 52 54 58 56 55 57 59 59 59 59 60 60 60 60 60 61 60 59 59 58 57 56 56 55 54 52 52 52 53
60 58 52 58 55 55 54 53 54 52 50 40 38 41 56 55 57 56 56 58 58 58 59 59 59 59 60 60 59 59 59 58 57 57 56 54 54 55 54 53 53 52 52 52
58 54 50 53 58 61 58 56 57 45 44 47 42 40 60 59 60 59 57 59 58 59 58 59 59 59 59 58 58 57 57 56 56 56 54 54 54 53 51 51 52 52 51 51
55 53 45 45 50 54 52 57 57 55 49 43 36 41 59 58 57 59 56 57 57 58 58 59 58 57 57 57 57 57 57 56 56 55 52 52 51 51 50 49 50 50 49 49
54 54 51 43 48 54 50 55 56 52 41 45 45 47 52 54 55 56 56 57 57 58 59 57 55 54 54 55 55 55 55 55 54 54 51 50 50 49 48 49 49 49 49 49
55 50 54 54 55 56 54 55 54 50 51 43 49 50 54 55 55 56 57 59 58 58 58 56 54 52 53 53 53 54 53 53 53 52 50 49 49 49 49 48 48 48 48 49
56 49 51 50 55 53 51 54 54 54 54 52 52 49 56 57 57 57 56 57 56 55 55 55 55 54 53 52 51 52 52 52 52 50 49 50 49 48 47 47 46 46 45 45
53 50 47 42 51 51 45 51 53 54 54 51 44 48 55 52 56 54 54 56 55 53 53 53 52 52 52 51 52 49 50 51 49 49 49 49 49 47 46 46 45 44 43 43
52 51 46 38 45 33 47 54 55 55 56 54 53 53 53 53 54 55 56 54 52 53 53 52 51 51 50 51 51 50 50 48 48 47 47 48 47 45 45 44 43 42 43 42
53 51 41 36 37 47 47 51 50 48 49 55 52 54 54 55 52 49 54 54 52 51 51 50 50 50 50 50 50 49 47 47 47 47 46 46 45 44 44 42 41 41 42 39
53 52 45 40 32 30 46 53 56 53 38 53 55 53 52 51 38 41 52 54 52 52 52 50 50 50 49 49 49 47 46 45 45 46 46 46 45 44 43 42 41 42 40 42
44 43 37 39 34 42 52 54 54 36 41 53 54 53 52 46 45 49 53 52 52 51 50 50 49 47 48 49 49 46 45 44 47 47 46 45 45 44 43 41 42 39 41 44
43 38 37 40 33 32 54 51 44 49 51 54 51 52 50 49 50 51 51 50 50 48 49 50 47 47 48 49 48 45 43 47 47 46 45 44 43 45 47 41 38 39 41 40
40 49 43 43 42 52 54 50 52 54 53 50 51 52 52 50 50 50 49 48 49 47 49 50 47 47 47 48 47 44 45 47 46 44 42 42 43 44 43 38 38 39 39 38
49 52 44 46 51 51 55 55 55 53 52 54 53 52 51 49 50 49 49 49 48 49 48 49 48 46 46 47 48 47 47 47 44 41 41 41 41 42 39 39 40 38 37 37
49 50 49 48 52 51 53 55 55 54 54 53 53 52 51 50 49 48 48 48 49 48 49 48 47 46 46 47 46 47 47 45 42 41 41 41 41 38 36 39 39 39 39 39
52 50 45 44 54 52 50 55 57 52 51 51 50 49 51 50 49 49 48 48 48 47 47 47 47 46 45 46 46 46 46 44 41 40 40 40 39 36 37 37 39 44 43 43

GFSCGP_sfc_temp_075.txt.gz
Temp
62 54 50 55 59 61 59 55 54 55 62 58 54 57 61 66 65 66 67 63 61 64 68 70 70 70 68 67 66 66 64 62 61 58 58 57 58 58 58 59 61 61 60 61
55 50 60 64 64 62 60 55 51 55 62 58 55 57 63 65 65 66 66 66 64 59 63 66 69 67 67 63 65 64 65 63 62 60 59 59 57 57 58 58 60 61 61 61
50 58 65 62 63 60 59 54 50 53 55 60 57 53 57 62 64 66 65 66 65 65 62 61 63 65 64 62 62 64 64 63 62 63 59 58 57 57 56 56 57 59 61 60
53 61 63 60 60 63 54 63 62 57 51 44 55 40 50 56 58 58 58 58 60 62 62 64 63 62 63 63 63 64 64 63 64 63 59 58 56 55 55 55 56 57 59 59
53 56 57 58 60 60 55 61 59 57 51 47 48 42 46 53 51 52 54 58 59 60 61 64 63 64 64 63 63 64 63 62 63 60 59 57 55 54 55 55 55 54 56 57
58 63 60 59 61 62 62 57 54 51 47 38 47 45 43 47 50 50 52 55 58 60 60 61 62 63 62 61 62 62 62 61 60 59 58 57 56 55 53 53 52 52 52 52
56 56 60 60 54 57 56 47 37 36 35 36 49 44 45 50 52 53 53 53 56 56 56 58 58 58 58 58 59 61 60 60 60 59 57 56 55 53 53 52 50 50 49 50
45 43 55 60 54 52 50 48 38 34 33 39 51 40 44 53 54 55 55 54 55 55 55 57 58 57 57 59 58 59 59 58 58 57 57 55 55 52 52 52 50 49 49 49
44 45 57 59 59 57 51 46 53 45 45 38 42 43 50 52 53 53 52 54 53 54 54 55 55 55 55 55 56 57 56 56 56 55 53 52 52 52 51 51 50 49 49 53
50 42 54 57 59 57 52 56 45 42 35 32 41 38 40 46 49 51 50 50 52 54 54 54 54 55 55 55 55 56 56 55 55 54 52 52 51 51 50 49 49 49 49 49
53 49 46 52 49 49 50 47 48 47 43 36 33 37 48 49 52 50 50 52 53 53 53 53 54 55 55 55 55 54 55 55 53 53 51 51 50 50 49 48 48 48 48 48
55 47 41 46 52 55 51 49 49 39 40 41 35 36 52 53 54 54 52 54 53 53 53 54 53 52 52 52 53 53 53 53 53 52 51 50 49 48 47 46 47 47 47 47
51 46 38 41 46 49 46 51 52 48 41 38 33 38 53 52 51 53 51 51 53 54 54 53 51 50 50 51 51 51 51 50 51 50 49 48 48 47 45 45 46 46 46 45
52 46 43 38 41 46 43 49 50 46 35 37 38 41 46 50 51 50 50 51 52 54 54 51 49 48 49 50 50 50 50 50 50 49 47 46 45 45 45 45 45 45 45 44
49 43 46 47 50 50 49 50 49 46 45 39 43 45 48 50 51 52 52 52 52 53 52 50 49 48 48 48 47 48 48 49 48 48 46 45 46 45 45 44 44 44 43 44
50 43 45 44 50 49 47 50 49 48 48 46 46 44 49 50 51 50 51 52 51 50 51 51 51 50 49 47 46 47 47 47 46 45 45 46 46 45 43 43 43 42 41 41
47 43 40 36 47 46 40 46 48 49 50 50 42 46 49 49 51 49 50 52 49 48 49 49 49 48 47 47 48 46 45 45 45 45 45 45 45 43 43 43 42 41 39 39
47 45 40 31 40 30 45 49 50 50 52 49 49 50 51 51 49 48 49 47 47 48 48 47 46 46 47 47 47 46 46 44 44 43 44 43 43 42 42 41 40 39 38 38
47 44 36 32 31 41 44 48 46 45 44 52 49 49 51 51 47 44 48 48 47 47 47 46 46 47 45 46 46 46 44 44 43 43 42 43 42 41 41 39 38 38 36 35
49 46 40 34 28 28 43 48 52 49 35 49 51 49 48 47 36 38 47 49 48 48 48 47 47 46 45 46 45 44 43 42 42 43 43 43 42 41 40 39 38 36 36 37
38 36 32 31 26 36 47 49 50 35 37 49 51 49 46 43 42 45 48 48 48 47 48 47 44 43 44 45 45 43 42 41 44 44 44 43 42 40 40 38 36 35 35 36
37 30 30 32 27 30 49 47 43 45 46 50 48 46 45 44 46 47 47 47 47 47 46 46 44 44 45 45 43 42 40 44 44 43 42 41 40 42 44 35 34 34 34 34
36 42 37 37 37 47 48 47 48 49 48 47 47 46 46 45 46 47 45 46 47 46 46 47 45 44 44 44 43 41 43 44 43 41 39 39 39 40 38 34 33 34 34 35
42 46 41 41 45 47 50 48 50 50 49 49 48 48 47 45 46 46 45 45 45 46 46 46 44 43 43 43 44 43 43 44 42 39 38 38 38 39 35 36 36 35 35 37
44 45 42 40 45 45 49 49 49 50 49 49 49 49 47 46 46 45 45 45 45 45 45 45 43 42 42 43 43 43 44 42 40 38 37 37 38 35 33 35 35 37 39 39
44 44 39 39 47 46 45 49 50 48 47 47 47 46 47 46 46 46 45 45 45 44 45 44 43 42 42 42 43 43 44 42 39 37 37 36 36 33 33 34 36 42 43 44

GFSCGP_sfc_temp_078.txt.gz
Temp
58 51 46 52 61 58 56 53 52 53 59 57 54 55 60 63 62 62 62 63 62 64 65 67 69 66 66 66 66 64 62 60 60 56 56 55 55 55 55 56 59 59 58 59
53 47 57 61 61 59 57 52 49 53 58 56 53 54 59 62 63 64 64 63 60 60 63 64 67 64 67 65 65 61 63 60 60 58 57 57 55 55 55 55 57 57 58 58
48 55 63 58 57 55 54 51 49 51 53 55 52 50 54 59 61 63 64 62 61 59 60 60 63 64 61 61 61 62 61 60 59 59 56 54 55 54 54 54 55 56 58 57
51 58 59 54 55 57 50 59 56 53 49 43 52 40 47 52 55 57 56 55 56 56 60 61 62 60 62 62 63 63 62 61 61 58 57 56 55 54 53 54 54 55 56 57
50 52 52 53 56 58 54 59 56 52 47 45 45 42 46 49 48 50 50 52 53 55 59 60 60 61 61 60 59 60 59 59 59 58 57 55 53 53 53 52 53 52 53 53
53 58 56 55 58 58 58 52 49 47 44 37 45 44 42 45 48 48 49 51 53 55 55 58 59 60 59 58 58 58 58 59 59 57 55 54 54 53 51 50 50 50 49 50
50 53 55 56 51 54 52 46 37 36 35 35 45 42 46 47 49 51 51 49 52 51 52 55 56 55 55 55 56 57 57 56 56 56 55 54 53 51 51 50 48 48 48 48
43 38 52 59 53 49 48 47 39 34 32 38 46 38 45 48 51 52 52 51 51 51 51 52 53 53 54 55 55 56 55 54 54 54 52 51 51 49 49 49 47 47 47 47
44 46 57 58 58 55 50 45 51 43 39 36 39 41 47 48 48 49 49 50 50 50 50 51 52 52 52 53 53 54 54 53 53 52 51 49 49 50 49 48 47 46 46 51
48 42 52 56 58 57 51 55 45 42 34 31 36 35 39 43 45 47 47 48 49 50 50 50 52 52 52 53 52 53 54 53 52 50 50 49 48 48 48 47 47 46 46 47
49 46 45 51 48 48 50 47 48 46 40 34 31 36 45 47 48 47 47 49 50 50 50 51 51 52 52 52 52 52 53 53 52 51 49 48 47 47 46 45 45 45 45 45
50 46 40 45 51 54 50 48 47 38 38 36 32 35 48 49 51 52 49 51 50 51 52 52 50 50 50 49 50 49 50 50 50 49 48 47 47 46 44 44 45 45 45 45
50 44 37 41 46 48 45 48 48 43 38 35 31 37 50 47 48 50 49 49 50 51 50 49 48 47 47 47 48 48 48 48 48 48 47 46 45 44 43 43 44 44 43 43
53 46 42 37 40 44 40 46 47 43 35 36 37 39 44 46 48 48 48 49 50 52 50 48 46 45 46 46 47 47 47 47 47 47 45 44 43 43 43 43 42 42 42 41
49 43 44 46 48 48 46 47 47 43 42 39 41 42 47 47 48 50 51 49 49 50 49 47 46 44 44 45 45 46 46 45 45 44 44 44 44 43 42 42 42 42 41 42
47 43 43 42 48 47 45 47 47 46 46 44 44 44 47 49 47 47 48 49 48 47 48 48 48 47 46 45 44 45 44 45 44 43 43 44 43 43 41 41 41 40 40 39
44 42 39 35 44 45 41 45 47 47 48 48 41 46 47 46 49 48 47 48 47 46 46 46 46 45 45 45 46 44 44 43 42 42 43 43 42 42 41 41 40 39 38 37
44 42 38 31 38 30 44 47 48 47 49 47 47 47 48 48 43 44 45 45 45 45 45 45 44 44 44 45 45 44 43 42 43 42 42 41 41 41 40 39 38 37 36 35
46 42 34 31 30 40 43 46 46 45 44 49 47 47 47 45 43 42 46 46 44 44 44 44 44 44 43 44 44 43 42 42 42 42 41 41 41 39 39 38 37 36 34 33
46 43 39 32 29 28 42 46 50 47 36 49 49 46 45 44 36 38 44 45 45 45 45 45 44 44 43 43 42 42 41 40 40 41 42 41 40 39 38 37 36 35 33 35
38 35 32 31 27 36 45 47 49 36 38 47 48 46 44 42 41 42 45 45 45 45 46 45 43 43 43 43 42 41 40 40 42 42 42 41 40 38 38 36 34 33 33 33
38 31 29 30 27 30 48 46 42 44 43 46 45 45 43 41 43 44 45 44 45 45 46 45 43 43 43 43 41 41 39 42 42 41 40 39 38 40 41 34 33 33 31 31
36 42 36 37 37 46 46 45 46 47 46 44 45 43 44 43 43 44 43 43 44 45 44 44 42 42 42 42 41 39 41 42 41 39 38 37 37 38 36 33 32 32 32 33
40 43 40 40 43 45 47 46 47 48 48 47 46 44 44 43 43 43 43 43 43 44 43 44 42 41 40 41 42 41 41 42 40 37 36 36 35 37 34 34 34 32 33 36
43 43 41 39 43 43 47 46 48 47 47 46 46 45 44 43 43 43 43 43 43 43 43 43 41 40 41 41 41 41 42 41 38 36 36 35 35 33 32 33 32 35 36 39
42 43 40 41 47 46 45 46 48 46 45 45 45 43 44 44 44 44 42 43 43 42 42 41 41 40 40 40 40 41 41 40 37 36 35 34 33 32 32 32 34 41 42 43

GFSCGP_sfc_temp_081.txt.gz
Temp
56 48 44 47 53 55 52 51 50 52 58 54 52 53 55 58 58 59 61 62 62 62 62 65 65 63 63 62 62 62 60 57 58 53 53 52 53 52 52 53 57 57 56 56
49 44 53 58 59 58 55 54 49 52 57 54 51 53 56 60 60 60 61 60 60 59 60 62 62 61 64 62 62 60 62 58 57 55 53 54 53 52 53 53 55 55 56 55
45 52 60 58 57 56 52 49 48 50 52 53 51 49 54 58 60 61 60 59 59 59 59 59 59 59 59 59 61 62 59 58 57 57 54 53 54 52 53 52 53 54 55 55
50 55 56 52 52 55 47 56 54 51 47 41 48 39 47 51 54 55 53 53 53 56 57 58 59 58 59 60 60 60 59 58 58 56 56 55 54 53 52 53 52 53 54 54
47 50 50 50 53 56 52 56 53 50 44 41 44 41 46 46 48 50 50 51 52 54 55 56 57 61 58 58 58 58 57 57 57 55 55 53 52 51 50 51 52 51 51 52
49 55 53 52 54 56 54 50 47 44 42 36 44 44 43 45 49 47 47 49 52 53 53 55 56 57 57 55 55 55 56 55 55 54 53 53 51 50 49 49 48 48 48 48
48 49 52 54 49 52 49 43 34 33 36 36 44 41 47 48 48 49 50 46 48 49 49 53 54 53 54 54 54 55 54 53 54 54 53 52 51 49 49 48 47 47 47 47
41 40 48 54 49 46 45 44 36 32 31 37 43 37 46 46 48 49 50 48 48 47 48 50 51 52 52 53 53 53 53 52 52 51 50 49 49 48 47 47 46 45 45 45
41 39 52 54 55 52 46 42 50 41 37 35 38 41 45 46 46 47 47 48 47 47 48 49 50 50 50 51 51 52 52 50 50 49 49 48 48 48 47 46 45 45 45 49
49 39 52 53 55 53 51 52 44 39 34 32 35 34 40 41 43 45 45 45 46 47 48 48 50 50 50 50 50 51 52 51 50 49 48 47 46 46 46 45 45 45 44 45
50 47 45 50 49 48 48 44 45 44 39 33 31 37 44 45 46 45 45 46 47 47 48 49 49 49 49 49 50 50 50 50 49 48 46 45 45 45 44 44 44 44 44 44
50 44 40 45 51 54 50 45 48 39 38 34 32 37 46 46 48 48 46 48 47 49 50 49 48 48 48 48 48 48 48 49 48 47 46 45 45 44 43 43 43 43 43 43
51 44 36 39 44 49 47 49 46 44 38 33 31 38 46 43 46 48 47 47 48 49 49 48 46 46 46 45 46 46 46 46 46 46 45 44 44 43 42 42 42 42 41 41
52 45 42 37 40 43 40 45 45 43 34 34 35 39 42 43 46 46 46 48 48 49 48 46 44 43 43 44 45 45 45 45 45 45 43 43 42 42 41 41 41 41 40 40
49 43 43 45 45 44 44 45 45 42 40 39 40 41 46 46 47 49 49 47 47 47 47 45 44 42 42 43 43 43 44 44 44 44 43 42 42 41 41 40 40 40 40 40
45 42 42 43 46 45 44 47 45 44 43 42 41 42 46 46 46 46 47 47 47 46 46 46 45 44 44 43 43 43 43 43 43 42 42 42 42 41 40 40 39 38 38 38
43 40 38 36 42 43 40 44 45 45 46 46 40 45 46 44 48 46 46 48 47 45 45 44 44 44 43 43 44 42 42 42 41 41 42 41 41 40 40 40 38 37 36 35
41 39 35 29 38 30 42 46 47 46 47 46 45 46 47 45 42 42 43 45 43 44 43 43 43 43 43 43 43 42 42 41 41 41 41 41 40 39 39 38 37 35 34 34
44 39 33 29 29 39 42 44 44 42 44 48 47 46 44 44 43 41 43 43 42 42 43 42 42 43 42 42 43 42 41 40 40 40 40 40 39 38 38 36 35 35 33 32
44 42 38 31 29 28 41 45 48 46 36 46 47 44 43 42 37 38 41 43 43 43 43 43 42 42 42 42 41 40 40 39 39 40 40 40 39 38 36 36 35 33 32 33
37 34 32 30 27 35 44 46 47 35 39 44 46 43 41 41 41 41 42 42 43 43 44 43 42 42 42 41 40 40 39 38 41 41 40 39 38 37 36 35 33 32 32 32
37 31 29 30 28 30 47 45 42 45 42 44 42 43 42 40 40 41 42 42 43 43 43 43 41 41 41 40 39 39 37 41 40 40 39 38 37 38 40 33 32 32 31 30
35 41 37 37 37 46 46 45 44 45 46 44 44 41 42 40 41 42 41 42 42 43 43 43 41 40 41 40 39 38 39 40 40 38 37 35 36 36 35 32 31 30 32 31
40 42 40 40 42 44 46 44 46 47 46 45 44 42 43 41 41 41 41 41 41 42 42 42 41 40 39 40 40 39 39 40 38 36 35 34 34 36 33 33 32 31 32 32
42 41 40 38 43 42 46 45 47 47 46 45 43 43 42 43 41 41 41 41 41 41 41 41 40 39 39 39 39 39 40 39 37 35 34 34 34 32 31 31 31 34 34 37
44 43 39 41 47 46 45 45 46 44 44 44 43 42 42 43 42 41 40 41 41 41 41 40 40 39 39 39 39 40 40 38 36 34 34 33 32 31 30 30 32 40 41 43

GFSCGP_sfc_temp_087.txt.gz
Temp
55 50 45 49 52 54 53 51 54 56 60 58 57 58 60 61 60 62 62 62 64 68 71 71 71 70 71 68 67 65 63 63 63 63 62 63 64 64 64 64 67 67 67 66
50 45 53 54 53 53 53 49 53 54 57 59 54 56 59 59 60 62 64 64 64 67 69 70 70 69 68 66 65 63 63 61 66 65 64 66 65 64 66 63 64 65 65 66
46 52 56 53 52 49 51 48 51 54 55 57 54 54 57 61 63 63 65 66 65 64 67 66 65 66 66 64 62 63 62 63 63 65 62 61 62 61 61 62 63 63 65 65
47 54 53 50 50 52 46 56 55 50 51 48 54 46 52 57 60 61 63 63 64 64 65 65 64 63 64 63 62 62 62 65 65 63 64 64 64 64 65 66 65 65 64 65
48 50 49 50 52 54 51 55 53 49 48 49 48 49 53 53 55 59 60 60 62 63 64 63 63 63 64 61 62 63 65 66 65 65 65 64 63 63 63 63 63 63 62 61
49 55 52 53 52 52 52 50 48 46 46 42 48 49 49 52 57 56 57 59 60 61 61 61 62 62 61 62 61 62 64 64 63 62 62 62 62 62 62 61 62 61 60 60
47 48 52 53 50 52 50 49 37 38 40 40 46 45 53 55 56 57 57 58 58 58 59 58 58 59 59 59 60 60 62 60 61 61 62 62 61 61 62 61 61 59 59 59
37 38 47 53 50 48 46 47 37 33 36 41 45 42 51 54 53 53 55 56 55 55 55 56 57 58 60 59 59 60 60 58 60 61 61 61 59 59 59 58 58 58 58 58
36 36 50 52 53 52 46 43 51 43 41 40 44 49 54 51 51 51 52 53 53 52 53 54 56 58 58 59 59 59 58 58 59 59 59 58 58 57 56 56 57 57 57 56
43 38 48 50 54 54 50 52 44 43 37 37 41 42 48 49 50 50 51 52 51 51 52 53 54 55 56 57 57 58 59 58 58 58 58 56 56 56 55 56 55 55 55 55
47 44 45 49 47 46 49 47 46 47 43 39 39 45 52 52 51 50 52 52 52 51 52 52 53 54 54 56 57 57 58 57 56 56 55 55 54 54 55 55 54 55 54 54
52 46 38 42 53 54 52 50 48 43 39 40 39 46 54 52 52 53 52 51 52 52 51 52 53 54 55 55 56 56 56 56 54 54 54 53 54 54 55 55 54 54 54 53
49 46 39 41 48 50 48 50 48 47 44 39 40 47 52 51 49 52 52 51 51 51 51 51 52 53 54 54 54 54 53 52 52 53 53 53 53 53 53 53 53 52 52 52
51 45 43 39 43 46 44 47 48 47 41 42 43 48 53 53 50 49 51 52 51 51 51 51 50 51 51 52 52 52 52 53 51 52 52 52 52 52 52 51 51 51 51 50
48 42 44 45 45 46 46 47 46 44 46 45 46 44 51 53 52 52 53 50 49 50 49 50 48 49 49 49 50 51 51 52 52 52 52 51 51 51 50 50 50 50 49 50
46 43 42 42 47 46 43 46 46 45 45 44 45 46 52 50 50 50 51 50 50 50 50 49 48 48 49 50 50 50 50 51 52 51 51 50 50 49 49 49 49 48 48 48
43 41 38 38 42 43 41 46 45 46 47 48 44 50 52 50 50 50 50 50 50 49 49 48 48 49 49 50 50 50 51 50 50 50 50 49 49 48 48 48 47 47 47 47
42 41 37 35 39 36 46 49 50 48 49 49 49 49 48 48 45 46 47 50 50 49 47 47 48 48 48 49 49 49 49 49 49 49 48 48 48 47 47 46 46 46 46 45
44 41 36 33 33 42 44 47 47 45 46 47 48 47 46 46 48 48 46 47 48 48 48 48 49 48 48 49 48 48 48 48 48 48 48 48 47 46 45 44 45 45 44 44
42 42 40 35 32 31 44 48 50 49 41 47 49 46 46 47 46 47 44 45 45 46 47 46 47 48 49 47 48 48 47 47 47 47 47 46 46 45 44 44 44 43 42 41
37 35 35 34 34 40 46 48 49 41 43 48 49 47 45 47 47 45 44 44 46 47 46 47 47 48 47 47 47 47 46 46 47 46 46 46 45 44 44 43 43 41 41 40
39 34 33 33 33 35 48 48 45 49 47 48 48 47 45 44 42 43 44 44 45 45 45 46 46 46 46 46 46 46 45 46 45 45 44 44 44 43 44 41 41 41 40 38
37 42 40 39 41 48 49 48 50 49 49 48 48 46 45 42 42 43 43 44 45 45 45 46 46 45 45 45 45 45 45 45 44 44 43 43 43 43 42 40 40 39 39 37
41 42 41 42 45 46 48 48 49 49 49 50 49 46 45 43 43 43 43 43 44 44 45 45 45 45 45 44 44 44 44 44 44 44 43 42 41 43 41 40 40 38 37 36
43 42 42 41 46 47 48 48 49 48 49 48 46 45 45 44 43 44 42 43 44 44 44 45 45 44 44 44 44 44 44 44 43 42 41 41 41 40 39 39 38 38 40 38
42 44 42 44 48 50 50 50 49 47 47 46 45 43 43 44 43 43 42 43 43 44 44 44 43 43 43 43 43 43 43 42 41 41 40 39 40 38 38 37 37 40 40 42

GFSCGP_sfc_temp_090.txt.gz
Temp
63 58 55 60 61 61 59 58 58 64 70 66 65 67 68 69 71 72 74 75 76 77 77 77 75 76 76 81 76 75 72 70 67 66 71 72 72 74 74 76 77 76 77 76
58 54 62 64 61 58 57 55 56 63 69 67 66 65 72 69 71 73 73 75 76 79 81 80 78 82 76 74 77 75 72 70 68 69 73 77 77 76 76 74 75 76 76 76
53 58 64 59 57 54 55 54 56 57 63 66 66 63 67 69 70 71 75 77 78 76 77 80 81 79 78 77 77 76 72 69 71 75 74 75 74 73 72 72 73 73 74 74
55 61 58 56 54 57 49 60 59 58 54 50 64 53 64 70 68 69 72 73 73 73 73 77 77 75 76 77 76 76 73 73 75 76 74 73 73 72 74 74 74 75 75 75
53 56 54 54 56 60 54 62 59 56 55 57 56 56 65 67 65 69 72 74 72 73 71 74 76 75 76 77 74 74 73 74 74 74 74 74 74 75 75 75 73 74 73 73
55 62 57 57 60 60 63 58 56 54 51 44 58 57 61 64 67 71 74 73 72 73 73 74 74 73 73 72 71 71 73 73 72 71 75 74 73 73 73 72 72 72 72 71
49 54 59 56 55 58 58 54 41 37 34 40 57 54 63 66 67 68 67 70 71 71 70 70 69 69 69 68 69 70 71 69 70 73 73 72 71 72 72 72 72 70 70 69
37 39 53 57 54 53 57 54 43 33 43 48 54 51 61 65 64 64 64 69 68 67 69 69 68 69 69 69 69 68 67 66 69 71 71 72 71 71 72 71 71 71 70 69
39 41 58 58 58 57 50 49 46 38 51 51 54 59 65 62 61 61 63 64 63 64 66 66 67 69 69 69 67 65 63 64 67 71 71 72 71 69 68 68 68 68 68 66
48 38 55 56 59 59 55 55 41 41 40 42 51 53 58 60 62 61 61 63 61 61 63 64 66 66 68 68 66 65 66 67 70 71 71 69 69 69 67 68 66 65 65 64
55 47 46 55 54 52 55 51 53 53 49 45 47 52 63 62 62 62 64 63 61 62 63 64 65 67 66 67 66 66 69 68 68 68 67 67 67 67 67 66 65 64 64 64
58 53 41 47 60 60 58 55 56 48 45 50 51 52 63 63 63 64 63 60 61 61 61 63 64 65 66 67 68 68 68 67 66 66 66 66 65 64 64 64 65 65 63 62
58 54 47 47 54 57 55 57 56 56 55 48 48 52 63 65 62 63 62 60 60 60 60 62 64 65 66 66 66 66 66 64 65 65 65 63 63 63 64 64 63 63 62 61
57 54 51 46 48 50 51 53 55 56 51 51 52 56 64 63 60 60 61 62 62 61 61 63 63 64 65 65 64 64 64 64 62 63 63 62 62 62 62 62 61 60 61 59
57 52 52 55 56 54 53 53 53 51 54 49 54 54 62 64 62 63 64 62 61 60 60 60 60 62 62 62 63 63 62 62 63 62 61 60 61 61 60 59 59 59 59 59
57 53 52 50 54 53 49 54 53 54 54 54 56 55 61 60 62 63 63 61 60 60 60 60 60 60 61 62 61 61 61 61 63 61 59 58 59 59 58 58 58 58 57 57
53 52 50 48 52 52 49 53 52 53 55 56 53 58 61 59 59 61 62 62 61 62 61 59 59 60 60 61 62 61 61 61 61 60 59 58 58 56 57 57 56 55 55 56
52 51 50 48 53 43 54 57 55 53 55 57 57 58 56 56 56 58 58 63 63 62 60 59 59 59 60 61 61 60 60 60 59 59 58 58 57 56 56 56 55 55 56 53
54 52 48 45 48 52 53 55 54 52 54 54 54 55 55 55 58 57 55 57 62 61 60 60 61 60 59 59 59 58 58 58 58 57 57 57 56 55 54 53 53 53 53 52
50 52 49 47 40 40 54 56 58 57 51 56 56 56 56 56 59 58 55 56 56 58 58 58 59 60 59 58 59 57 56 57 56 56 56 56 55 53 52 53 52 52 51 50
49 49 46 47 45 51 57 56 57 50 52 58 58 58 57 58 55 53 54 55 57 57 56 57 58 58 58 58 57 56 56 55 55 55 54 54 54 53 53 51 51 50 49 48
49 46 47 46 43 42 57 56 54 58 58 58 58 58 56 54 52 53 54 53 53 53 54 57 56 56 56 56 57 56 54 55 54 53 53 53 53 52 51 50 49 49 48 47
48 53 51 51 54 57 58 58 60 59 59 59 58 57 58 53 52 53 52 53 54 54 55 56 56 54 55 55 56 54 54 54 53 53 52 52 52 52 51 48 47 47 47 45
53 53 51 52 55 59 60 61 59 60 59 60 59 57 56 55 53 53 53 53 54 54 54 55 54 54 53 54 53 54 54 53 52 52 51 51 50 48 49 48 48 46 44 43
56 53 52 54 60 60 60 60 59 59 58 57 56 56 56 55 53 53 53 53 54 54 54 54 54 53 52 53 52 53 52 51 51 51 50 49 49 47 47 47 46 44 45 42
56 55 53 55 59 59 62 63 61 58 57 58 56 53 54 56 53 54 53 54 54 53 53 52 52 52 51 52 51 50 50 50 49 48 48 47 46 46 45 44 44 45 43 42

GFSCGP_sfc_temp_093.txt.gz
Temp
70 60 58 63 65 64 61 59 58 64 71 68 67 67 71 77 76 76 79 80 80 82 86 88 87 89 87 84 80 78 75 69 64 63 69 70 70 74 76 77 79 78 78 77
64 55 64 66 64 61 59 56 56 63 68 68 67 66 72 77 74 75 77 79 79 82 85 85 85 84 79 74 77 74 73 68 68 66 73 76 76 76 76 75 77 78 78 77
57 61 66 62 60 58 58 55 56 57 64 68 66 63 68 76 76 77 79 80 81 81 82 81 80 81 79 81 79 80 70 68 70 70 76 78 78 76 74 73 74 76 77 77
59 65 61 60 58 60 52 62 60 57 56 49 66 49 65 71 71 74 76 78 78 77 78 83 81 81 82 81 79 77 74 70 72 74 76 75 70 70 73 73 75 74 76 76
57 58 57 55 58 62 56 63 59 59 54 55 51 53 64 71 68 71 75 77 78 77 74 77 82 83 83 81 79 78 76 73 74 77 75 73 75 76 76 76 74 75 75 76
60 66 61 60 61 63 64 59 58 57 54 39 43 47 59 65 70 74 77 78 77 74 73 73 77 79 78 78 79 77 76 75 75 76 76 75 74 74 73 73 73 73 74 74
56 57 64 62 55 64 60 52 34 34 36 40 49 43 51 64 75 76 78 80 79 77 75 74 74 73 73 72 74 74 72 71 73 74 75 75 70 74 74 74 74 73 72 71
45 42 56 63 57 52 55 53 37 30 36 38 55 47 56 66 71 72 73 76 75 73 74 73 73 73 72 71 72 73 72 71 73 74 73 70 71 74 75 75 75 74 73 72
47 44 61 63 63 59 55 44 47 35 39 36 49 60 66 69 67 69 70 70 69 71 72 71 71 72 71 71 71 72 71 71 71 71 69 72 72 73 72 72 72 71 70 68
56 44 58 61 64 62 55 54 41 40 35 35 49 49 52 63 65 66 67 67 66 67 68 69 71 71 72 71 71 71 70 68 69 69 71 71 73 72 71 71 69 68 67 66
61 54 55 59 56 55 55 52 51 52 50 36 42 50 65 63 66 66 67 66 65 66 66 68 69 70 69 69 69 69 70 69 69 68 70 71 70 71 71 69 68 67 66 66
62 56 51 53 63 64 61 55 57 41 40 50 43 50 69 68 68 68 65 64 65 65 66 67 67 68 68 68 68 69 69 67 68 70 70 69 69 68 68 67 67 67 65 64
60 57 50 50 59 63 59 61 60 58 56 47 43 48 70 68 67 67 64 63 63 63 64 65 67 68 69 69 69 70 69 68 69 69 68 67 66 66 66 66 65 65 64 63
59 56 53 47 53 58 54 57 59 58 49 49 49 55 65 66 64 65 64 64 64 64 64 66 66 67 68 69 69 68 67 68 67 67 66 64 65 64 64 64 63 63 63 62
61 51 58 58 59 59 57 56 58 55 56 51 56 56 62 63 65 66 66 65 64 63 64 65 65 67 67 67 67 67 66 66 66 65 64 63 63 63 62 61 61 62 61 61
62 52 57 55 58 59 55 58 58 58 58 58 59 57 65 66 68 67 66 65 63 63 63 64 65 65 65 66 65 64 64 65 66 64 62 61 61 61 60 60 60 60 59 59
56 55 53 51 58 58 52 55 56 57 59 57 54 58 64 63 63 65 66 65 65 65 64 64 64 64 65 65 65 64 65 65 64 63 61 60 60 59 59 59 58 57 57 58
54 54 54 49 56 45 57 62 59 57 58 60 60 62 60 60 62 63 65 67 67 66 65 64 64 63 63 65 65 64 64 63 62 61 60 60 59 58 58 58 57 57 57 56
58 54 50 46 49 55 58 58 56 55 55 59 58 60 60 60 63 59 61 64 67 66 66 65 64 63 63 62 62 61 61 60 60 59 59 59 58 57 56 55 54 55 54 54
57 57 51 52 42 42 56 60 62 61 51 61 60 60 60 61 59 56 60 62 62 63 63 62 63 63 62 61 62 60 58 59 58 58 58 58 58 55 54 54 53 54 53 52
52 52 48 50 46 54 61 60 61 50 52 62 62 62 61 60 58 58 61 60 61 61 60 61 62 61 60 61 60 58 58 57 57 57 57 57 56 55 55 53 53 52 51 51
52 50 49 52 46 43 62 60 55 60 63 63 63 63 60 57 57 58 58 57 57 57 58 60 59 58 59 60 59 57 56 57 57 56 55 55 55 55 54 52 51 51 50 48
50 57 53 54 55 62 64 62 64 63 62 64 63 62 62 58 57 57 56 57 57 57 58 59 58 57 58 58 58 56 56 56 55 55 54 54 54 54 53 51 50 48 49 46
60 59 54 55 61 62 64 65 65 64 63 65 64 63 61 59 58 57 57 57 57 57 57 58 57 56 55 56 56 56 55 55 54 54 53 53 52 51 51 51 50 48 46 44
59 57 57 58 63 64 64 65 65 64 64 62 62 62 61 60 58 58 57 57 57 57 57 57 56 55 54 55 55 55 54 54 53 53 52 51 51 49 49 49 48 46 46 44
58 56 53 54 64 63 64 67 67 64 63 63 61 59 61 60 58 58 57 58 57 56 56 55 55 54 54 54 53 52 52 52 50 49 49 49 48 47 48 46 45 48 45 43

GFSCGP_sfc_temp_096.txt.gz
Temp
67 59 53 58 61 61 58 55 53 58 65 61 59 62 66 71 70 70 72 76 74 77 79 74 76 73 73 79 81 73 69 63 61 59 59 60 61 65 64 66 68 67 66 67
61 53 62 64 62 59 57 54 52 58 63 61 59 59 66 69 69 71 70 71 69 72 78 75 74 77 78 73 74 70 67 63 61 60 60 59 66 65 65 64 66 66 66 66
54 59 65 62 59 55 55 53 52 53 58 61 57 54 60 69 72 72 72 74 74 72 76 77 72 75 75 70 69 70 66 64 63 62 64 67 67 65 62 62 62 64 66 65
58 64 60 57 55 57 48 58 58 53 50 42 57 41 55 63 66 71 70 69 66 69 73 78 73 73 68 67 73 71 68 66 65 66 65 66 62 61 61 61 61 63 65 65
56 56 56 53 56 58 52 55 52 53 50 47 48 42 52 59 61 65 68 69 69 69 66 71 74 73 72 72 73 70 67 66 67 66 65 63 62 62 62 65 62 61 62 64
60 66 62 58 61 61 62 54 50 49 46 36 46 43 42 53 60 65 66 69 68 69 66 66 69 75 75 73 72 69 66 66 66 65 64 61 61 62 63 60 63 59 59 61
58 57 62 63 55 60 56 45 32 31 33 34 46 40 43 53 58 64 63 58 69 68 64 65 65 65 66 68 68 69 66 65 65 64 65 62 62 65 65 64 63 62 59 58
45 42 56 62 57 51 51 45 35 26 31 34 42 36 43 53 58 66 67 71 68 65 65 65 64 62 64 66 65 65 66 65 65 64 62 62 63 61 63 65 64 63 58 57
45 45 60 63 62 58 51 42 45 35 36 34 36 44 51 56 62 62 61 60 59 61 62 63 63 64 63 63 64 66 66 65 64 63 62 62 62 64 63 64 63 58 57 60
54 43 58 62 64 60 54 51 38 37 31 29 40 46 47 55 58 60 59 57 58 60 61 61 62 63 63 63 64 64 64 62 62 63 62 62 64 63 63 62 58 56 56 56
59 52 51 59 55 53 51 50 47 43 39 34 35 42 58 56 59 58 57 57 58 59 59 60 60 61 60 61 62 61 62 61 61 63 60 63 63 63 62 57 56 55 55 55
59 51 44 52 61 62 58 53 54 38 37 38 36 40 60 61 60 59 57 57 57 59 59 59 59 58 59 60 63 63 64 63 62 63 62 62 61 58 56 55 55 56 54 55
55 49 42 47 52 57 54 58 58 55 48 42 35 40 60 60 59 58 55 56 57 58 58 58 58 58 58 63 60 63 61 61 61 62 59 56 55 55 54 54 54 55 54 53
56 50 46 40 47 53 50 54 56 52 42 43 44 49 55 58 57 57 56 56 56 57 58 58 57 57 58 60 59 58 57 58 57 57 55 53 53 53 52 53 53 53 53 51
55 46 51 53 55 56 54 53 54 50 50 43 48 49 53 57 58 59 59 59 57 58 59 58 56 56 56 56 56 56 56 56 56 55 53 52 53 53 53 52 52 52 51 51
55 47 50 49 56 56 53 55 54 54 53 51 52 49 58 59 59 57 56 58 56 56 58 58 58 58 57 55 54 55 54 55 55 53 52 53 53 52 51 50 50 49 49 48
50 48 46 42 54 54 47 51 53 53 54 52 46 49 56 55 57 55 57 59 57 57 57 57 57 56 55 55 56 53 54 55 53 53 53 53 52 51 50 50 49 47 46 46
49 47 46 39 48 35 49 57 56 54 54 53 55 54 55 54 54 54 55 56 58 58 57 56 55 54 54 55 54 54 54 53 53 52 52 52 51 50 49 48 46 45 45 44
53 48 41 37 39 48 52 54 51 48 48 53 53 55 55 55 52 49 55 57 57 56 56 54 54 53 53 53 53 53 51 51 52 51 50 51 50 48 47 45 44 44 43 42
54 51 43 42 34 32 48 54 57 54 41 55 55 54 54 54 44 42 51 56 54 55 54 53 54 53 51 51 52 51 50 50 49 49 50 50 49 47 45 44 43 43 42 43
45 44 38 39 36 46 53 55 55 39 41 54 56 55 53 47 46 50 54 53 54 53 53 54 52 50 50 51 52 49 49 46 49 50 50 49 48 46 45 43 42 41 41 42
46 41 39 42 35 35 56 53 46 50 53 55 55 54 50 49 51 52 52 51 51 50 52 52 49 49 50 51 50 48 45 49 50 49 49 47 46 48 48 42 41 41 40 39
42 48 42 45 45 55 56 53 55 56 54 53 52 54 53 51 50 51 49 49 50 51 51 51 49 48 48 49 48 45 46 49 49 47 45 45 45 45 44 41 39 39 39 37
53 54 46 48 53 55 57 56 57 56 54 55 56 54 54 51 51 50 50 49 49 50 49 50 49 48 46 48 49 47 48 49 47 45 44 44 42 43 41 42 41 38 36 35
51 51 50 49 54 56 58 58 57 56 56 55 56 54 55 52 51 50 49 49 49 49 49 49 48 47 46 48 47 47 47 46 44 43 43 42 41 40 39 40 38 38 37 38
52 49 46 46 56 54 55 58 59 56 55 55 55 52 54 53 51 51 49 49 49 48 48 47 47 46 46 46 45 45 46 44 42 41 41 40 38 38 37 36 36 45 45 44

GFSCGP_sfc_temp_099.txt.gz
Temp
58 53 47 52 54 55 52 49 47 53 60 55 54 54 57 61 65 63 64 65 73 74 75 72 71 70 70 71 73 69 67 62 61 59 59 58 60 63 64 64 66 66 63 63
51 45 55 60 58 55 52 48 46 52 58 54 53 52 58 61 61 67 66 65 67 70 67 68 69 69 70 69 71 66 65 62 62 61 60 60 60 62 64 63 65 64 63 62
46 53 62 59 54 52 50 46 47 47 53 53 50 47 51 59 61 66 66 67 66 66 63 64 66 67 67 68 70 65 63 62 62 62 60 60 61 62 60 61 61 62 64 63
52 59 57 53 52 54 44 54 53 50 44 35 48 36 46 52 58 60 63 64 63 65 64 66 67 66 66 67 68 66 63 62 62 61 60 59 62 62 60 60 60 61 63 62
50 52 52 50 53 56 49 56 52 50 42 37 42 35 42 50 52 54 59 62 63 65 64 66 70 68 66 66 67 66 64 63 62 62 61 60 58 58 57 58 60 60 62 61
54 61 57 54 58 58 55 51 48 46 43 30 39 38 37 43 45 52 58 63 63 61 62 63 66 66 65 65 67 66 65 64 64 63 62 59 59 58 56 57 57 60 57 61
49 52 57 59 51 56 53 43 30 28 30 31 43 37 38 47 53 54 55 58 59 61 60 61 61 62 63 65 65 65 64 63 63 62 59 60 60 58 58 58 57 58 56 59
37 37 51 58 52 48 48 43 32 24 28 32 38 33 42 50 54 57 59 59 57 56 57 58 59 59 61 62 63 64 63 62 62 60 59 59 59 58 59 59 61 57 60 58
38 40 56 58 59 54 47 42 42 33 34 33 35 39 46 51 52 52 53 54 55 55 56 56 57 58 59 60 60 62 63 63 63 61 57 58 58 58 57 60 57 58 57 59
47 37 51 56 57 55 48 49 38 36 30 25 40 42 43 48 49 50 51 50 52 56 57 56 56 57 57 58 59 61 62 63 62 62 60 58 59 60 61 58 58 57 57 56
48 42 44 51 49 46 46 44 45 42 37 32 30 38 54 51 53 52 51 53 51 55 55 55 55 56 57 57 61 62 62 60 56 57 60 60 60 60 58 58 57 56 55 52
49 42 36 44 55 57 52 47 49 36 35 38 37 37 53 53 53 52 51 53 52 53 54 54 54 54 54 55 58 56 59 61 61 62 59 59 59 55 58 56 53 52 51 52
49 41 33 38 45 50 47 51 52 48 42 36 30 36 54 51 51 51 50 52 53 53 53 53 53 52 54 54 58 57 60 60 60 59 54 54 54 53 50 50 50 51 50 49
53 42 39 33 39 44 43 49 51 45 36 38 37 43 49 49 50 50 50 50 51 53 53 52 51 51 53 55 56 55 55 56 54 54 53 51 48 48 48 49 49 50 49 48
47 39 42 45 48 49 49 49 49 44 43 38 43 45 48 51 52 52 53 53 53 53 54 54 52 51 51 51 51 51 51 52 51 50 48 48 48 49 49 49 48 48 48 47
47 40 42 41 50 50 47 49 49 48 48 46 46 45 52 53 53 52 52 53 53 53 55 54 54 52 51 49 49 50 50 50 50 48 48 49 49 49 48 47 47 46 46 45
42 40 37 34 45 46 41 46 47 47 47 45 41 45 50 49 51 49 50 54 53 53 53 53 52 51 50 50 51 49 49 48 48 48 49 49 49 48 47 47 46 44 42 41
42 40 39 33 39 30 45 50 51 48 49 49 49 49 49 48 47 48 50 52 52 53 52 51 49 49 48 48 49 49 49 48 48 47 48 48 47 46 45 44 43 41 41 40
46 42 34 29 31 42 46 48 46 45 43 49 49 50 51 50 49 47 51 51 51 51 50 48 48 48 47 48 49 48 48 48 48 46 46 46 46 44 44 42 40 40 39 39
47 44 37 33 29 29 44 50 53 50 36 49 51 50 50 49 41 41 48 50 50 50 51 50 49 49 48 47 48 47 46 44 45 45 46 46 45 44 43 41 40 40 39 41
38 37 32 31 26 39 48 50 51 36 40 50 52 50 48 44 44 46 49 49 49 51 49 49 48 46 46 47 47 44 43 43 45 47 47 46 44 43 42 40 39 38 38 38
39 32 31 33 28 32 51 49 43 47 48 52 50 48 46 45 46 47 47 47 48 47 48 47 45 45 45 46 45 42 42 45 46 46 46 44 42 45 44 39 38 37 36 34
38 43 39 40 39 50 51 49 51 52 51 49 50 48 48 47 46 47 45 46 47 46 46 46 44 44 44 44 44 42 42 45 45 43 41 41 41 41 40 38 36 35 35 33
44 48 41 44 47 50 52 52 53 53 51 52 53 51 49 47 46 46 45 45 45 46 45 46 45 43 42 43 44 42 43 44 42 39 39 39 38 39 38 38 37 35 33 32
43 44 43 42 47 49 52 52 53 54 54 53 53 52 50 48 46 46 45 45 45 45 45 45 43 43 42 42 42 42 43 42 40 38 38 37 37 36 35 36 35 36 33 39
45 43 40 41 49 47 49 52 55 52 52 53 52 50 50 49 47 47 45 45 45 44 44 43 42 42 41 41 40 41 41 40 38 37 36 36 35 34 34 33 33 42 43 44

GFSCGP_sfc_temp_102.txt.gz
Temp
55 47 43 48 51 52 49 45 44 49 55 52 51 51 53 58 56 57 59 61 62 68 74 71 68 69 69 70 69 69 67 65 63 61 61 59 59 59 62 63 64 63 64 61
49 44 54 56 56 52 49 45 44 49 54 52 50 50 53 56 56 58 59 58 63 63 66 65 67 68 70 70 68 69 68 63 63 62 61 60 61 60 63 62 63 62 62 61
44 51 59 56 52 50 48 45 44 45 50 51 47 46 47 54 56 59 60 61 64 63 62 66 65 67 66 69 69 67 63 64 63 63 61 60 59 58 58 60 61 61 63 61
49 56 55 52 51 52 43 53 51 49 44 37 47 34 41 48 51 54 54 54 58 60 63 64 67 65 66 68 69 66 63 63 62 61 62 61 60 58 56 57 59 60 61 60
48 50 50 49 52 54 49 55 50 49 45 39 41 34 38 45 47 49 52 54 57 61 63 64 66 65 68 66 65 63 62 62 61 62 61 60 59 58 57 57 58 59 59 60
51 58 55 53 56 56 57 50 46 44 41 31 37 35 35 39 43 47 52 55 56 62 63 64 65 67 67 66 64 63 62 62 61 61 60 59 57 55 56 56 55 56 56 57
46 50 55 56 50 54 52 41 30 26 29 29 38 35 35 44 48 48 49 52 53 54 58 60 61 62 63 65 64 63 62 62 62 61 59 58 57 57 56 56 55 54 55 55
35 35 48 55 50 46 45 43 32 22 28 30 39 32 39 48 51 51 52 52 54 54 55 57 61 61 62 65 65 64 63 62 62 59 58 58 59 57 58 57 57 55 56 57
37 38 52 55 55 51 44 38 42 33 35 30 36 42 47 52 51 50 50 52 51 52 54 55 58 60 61 63 63 63 62 61 60 58 58 58 58 57 57 57 57 56 57 58
44 35 48 53 55 52 45 46 37 37 29 22 34 38 39 47 47 48 49 49 51 52 53 54 56 56 56 57 59 61 61 59 58 58 58 56 58 59 58 56 54 56 53 55
44 40 42 48 46 44 43 41 43 39 38 31 26 34 48 46 50 48 48 50 50 52 52 51 52 53 55 56 57 58 58 60 60 60 61 60 59 59 58 57 56 52 54 52
46 40 34 41 51 52 49 44 44 35 34 38 35 34 47 46 48 50 50 51 52 53 54 53 53 54 54 55 58 60 60 60 59 60 59 58 58 54 56 54 51 55 51 50
47 39 31 37 43 47 43 47 48 43 39 34 29 36 49 47 47 48 49 49 51 52 52 52 52 51 51 52 55 57 58 55 57 58 56 53 53 53 50 52 51 48 48 47
52 40 37 31 38 41 40 45 47 42 33 34 34 39 48 47 46 47 48 49 50 52 51 50 49 48 49 52 52 51 52 54 53 53 51 48 48 50 47 47 47 47 46 46
45 37 39 42 45 45 43 43 46 41 40 35 39 40 44 46 48 48 50 51 51 51 52 51 49 48 48 49 53 54 53 52 50 49 47 45 46 46 46 46 45 46 46 45
43 37 38 38 45 44 43 46 45 45 44 42 42 40 46 47 49 48 49 50 49 50 51 51 50 49 48 47 47 47 47 47 48 47 46 47 47 46 45 45 44 44 43 42
39 37 35 31 41 42 39 43 44 43 43 42 38 42 45 45 47 45 46 50 50 49 49 49 49 48 47 47 47 46 45 46 46 46 46 47 46 45 44 44 43 41 40 39
39 37 35 30 36 30 43 48 49 46 45 45 45 46 47 46 45 44 45 49 49 50 48 47 47 46 46 46 46 46 46 45 45 44 45 45 44 43 42 41 40 39 38 38
43 39 32 28 29 39 44 47 46 43 42 47 46 46 46 47 45 44 47 49 49 48 47 45 45 45 45 45 46 45 44 44 44 43 43 43 43 42 41 40 39 39 38 37
42 41 36 31 28 28 42 47 50 48 37 48 49 47 47 45 39 41 45 47 47 46 47 46 45 45 45 44 45 44 42 43 42 43 43 43 43 42 40 39 38 38 37 38
37 35 31 30 26 36 46 49 50 35 39 48 50 48 46 44 43 45 47 46 47 47 46 46 45 44 43 44 44 42 41 41 43 44 44 43 42 41 40 38 37 36 36 35
37 31 30 31 28 31 50 47 43 46 45 49 48 47 45 43 44 45 45 45 45 44 45 45 43 42 42 43 43 40 40 42 43 43 42 41 39 42 41 36 35 35 33 32
37 42 37 38 38 49 51 50 50 49 50 49 48 47 46 44 44 44 43 43 44 44 43 43 42 41 41 42 42 40 40 42 41 39 37 37 38 38 37 35 34 33 32 31
42 44 40 42 45 48 51 50 51 51 51 52 51 48 47 45 44 43 43 43 43 43 43 43 42 40 39 40 41 40 41 41 39 36 36 36 36 36 34 35 35 32 31 31
42 41 41 40 45 48 51 51 51 51 51 51 51 49 48 46 44 45 43 43 43 43 43 42 41 40 39 39 39 39 40 39 37 35 35 34 35 33 32 33 33 34 32 35
42 44 43 44 48 47 48 51 52 52 52 52 51 48 47 47 45 44 43 43 43 42 41 40 40 39 38 38 38 38 39 38 36 35 34 34 32 31 31 30 30 39 41 42

GFSCGP_sfc_temp_105.txt.gz
Temp
54 46 42 47 49 49 46 43 41 47 53 49 47 48 51 55 55 54 54 55 57 61 68 71 69 69 66 66 67 70 69 70 66 62 60 58 58 57 58 62 65 63 60 59
47 41 52 54 54 50 48 44 43 47 52 49 47 47 51 53 54 56 55 55 56 58 62 68 67 66 67 66 67 67 68 67 65 63 61 59 59 59 60 61 62 63 63 60
42 50 57 54 51 49 47 44 43 44 50 49 46 42 46 51 53 56 56 56 55 56 60 62 64 65 66 66 67 68 69 66 63 62 61 59 58 59 58 60 61 61 63 62
47 55 53 50 49 49 41 51 51 48 44 36 46 32 42 48 48 50 50 50 52 54 59 62 63 64 65 65 67 67 65 63 63 62 62 60 59 57 57 56 54 57 62 60
47 49 49 48 50 51 47 52 48 45 40 39 39 34 35 44 42 45 49 52 54 54 59 61 63 65 65 67 65 62 63 62 62 62 62 60 59 56 55 55 57 58 60 60
49 54 53 51 55 53 54 48 43 41 37 29 35 35 32 38 44 46 48 50 51 53 58 60 64 66 66 67 64 62 62 62 62 62 61 61 58 56 54 54 53 55 56 58
44 48 52 54 47 50 48 40 30 25 26 30 37 35 35 42 46 49 46 47 52 53 56 61 60 62 64 63 64 63 63 61 62 61 60 59 57 56 55 54 54 54 55 55
33 35 47 53 47 44 43 39 33 23 25 29 39 32 39 50 51 53 52 52 55 56 58 58 60 60 60 63 63 63 62 62 61 59 58 58 57 55 55 56 56 56 56 55
35 36 50 52 52 48 43 35 39 33 35 29 34 43 46 53 52 52 51 50 51 53 55 56 58 60 61 63 63 63 62 61 60 59 59 58 56 56 56 57 58 57 57 57
41 33 45 50 52 49 43 44 35 34 29 27 31 34 38 45 47 49 50 47 48 50 51 52 54 56 57 59 60 61 60 59 58 58 58 57 56 58 57 56 56 56 55 54
42 38 40 45 43 41 42 40 39 38 37 30 26 33 44 44 48 47 47 46 48 48 49 51 52 52 56 58 58 57 58 56 56 58 58 58 57 57 56 55 54 52 52 50
44 38 32 40 48 48 44 41 40 32 29 36 34 33 45 43 48 49 48 49 47 48 51 53 54 56 54 56 57 57 59 58 58 58 57 56 56 55 51 51 54 51 49 49
44 37 30 36 42 45 41 43 43 41 36 32 27 35 49 46 45 47 47 49 50 50 52 51 51 51 53 54 56 54 53 52 55 57 55 54 52 50 51 48 48 48 47 46
50 38 36 31 36 39 38 43 42 39 31 32 33 37 45 46 45 46 46 48 49 49 50 49 48 48 49 49 49 49 48 52 52 52 49 49 46 45 45 45 46 45 45 44
43 35 35 39 42 42 41 41 42 38 38 33 36 38 42 43 43 44 47 48 48 48 48 47 46 46 47 49 49 48 47 47 48 48 46 43 44 44 44 44 43 43 44 43
41 35 34 35 42 42 39 44 44 42 41 39 39 38 43 45 44 45 43 47 47 47 48 48 48 47 46 44 44 45 45 45 46 45 44 45 45 44 43 42 42 42 41 40
39 34 33 30 38 39 37 42 42 41 41 40 36 40 44 43 45 43 44 47 47 47 47 47 47 46 45 45 45 44 43 44 44 44 44 44 44 43 42 42 41 40 38 38
38 35 33 30 34 29 41 47 47 45 44 43 43 44 45 45 43 44 45 46 47 47 46 45 45 44 44 44 44 43 43 43 43 42 43 43 42 41 41 40 39 37 37 37
42 37 32 27 27 37 41 44 44 42 42 47 45 45 44 44 43 43 45 47 47 46 45 44 44 43 42 43 43 43 42 42 42 41 41 41 41 40 40 39 37 37 36 36
40 39 35 30 26 28 40 45 48 46 36 47 47 45 44 43 37 41 43 46 45 45 45 44 43 43 42 42 42 42 41 41 41 41 41 41 41 40 39 37 37 36 35 36
33 32 29 30 25 34 44 47 48 34 40 47 48 46 45 42 43 44 43 43 44 44 44 43 43 42 41 41 42 40 40 40 41 42 42 41 39 38 37 36 35 34 34 34
35 29 27 29 26 30 48 46 43 46 44 48 47 47 45 44 42 43 43 43 43 43 43 42 41 40 40 41 41 39 38 40 40 40 39 37 36 40 39 34 33 33 32 30
34 40 35 36 36 47 48 49 49 48 49 48 48 47 47 43 43 43 42 42 42 42 41 41 40 39 38 40 40 38 37 40 39 37 35 35 36 35 34 33 32 31 31 30
40 42 39 40 45 46 48 49 50 49 49 51 50 48 46 44 43 42 41 41 41 41 41 40 40 38 37 38 39 38 38 39 37 35 34 34 34 34 32 33 33 31 30 30
41 41 39 39 42 46 49 50 51 51 51 51 49 48 47 45 43 43 41 41 41 41 41 40 39 38 37 37 37 37 38 37 35 33 33 32 32 31 30 31 31 32 31 33
41 42 41 43 48 46 47 48 51 50 51 51 50 47 46 46 44 43 42 43 42 41 40 39 38 37 36 36 36 36 37 36 34 33 32 33 31 29 29 29 29 38 41 42

GFSCGP_sfc_temp_108.txt.gz
Temp
51 45 40 46 48 47 45 41 40 47 52 47 46 46 50 54 52 51 52 53 54 55 64 67 68 66 65 66 66 66 67 68 64 61 59 57 58 56 57 61 64 64 63 58
46 41 49 52 52 49 46 42 41 47 51 48 46 45 51 52 53 53 54 53 53 53 57 61 65 65 65 65 66 67 68 67 66 65 62 59 58 58 58 59 62 62 63 59
41 49 55 52 49 46 45 41 41 43 47 47 46 40 44 50 51 53 52 51 52 52 53 56 63 64 65 64 65 66 67 67 67 63 60 59 59 58 57 59 60 60 62 61
46 52 52 49 47 47 40 49 47 44 39 33 45 30 39 44 46 47 48 47 49 50 53 55 62 63 64 65 66 66 67 67 64 62 60 58 59 56 57 56 54 54 56 60
46 47 47 46 49 49 45 50 45 43 38 34 39 32 35 41 42 46 49 50 51 51 52 55 61 64 65 65 65 66 66 63 61 61 61 59 59 58 56 54 54 53 53 55
47 52 50 49 53 50 52 45 42 38 35 29 37 34 31 39 42 45 49 51 54 54 54 57 60 62 62 63 65 64 63 62 61 61 60 60 59 56 55 54 53 52 52 53
42 46 49 52 46 49 46 38 28 26 24 24 38 35 35 45 48 49 49 51 54 54 56 57 57 59 61 62 63 63 62 61 61 62 61 60 58 57 56 54 54 53 52 55
32 35 46 51 45 42 40 38 30 26 27 29 39 32 38 48 54 52 53 52 53 54 56 57 59 60 60 62 62 62 61 60 61 60 59 59 59 59 58 56 55 54 55 56
34 34 47 49 50 46 40 34 38 33 30 29 29 42 45 48 49 50 51 50 50 51 53 54 57 59 62 61 61 62 62 61 60 60 59 59 58 56 55 55 56 55 57 57
39 32 43 48 49 47 43 43 33 32 23 25 29 31 37 43 44 48 48 47 47 48 50 52 53 55 58 60 60 60 60 59 60 60 60 57 56 57 57 56 56 56 55 55
41 36 39 43 41 39 40 38 38 36 34 25 29 30 45 44 45 44 47 48 47 49 51 52 52 53 56 56 57 57 56 54 54 54 54 53 55 56 56 55 54 53 52 51
42 36 31 39 44 46 42 38 38 30 30 32 30 34 44 43 47 48 48 49 47 49 49 52 53 53 53 54 54 54 55 55 56 56 56 55 54 52 51 50 50 51 51 50
43 35 29 35 40 43 40 41 40 38 34 30 25 33 45 46 44 47 47 47 48 48 48 51 52 49 51 52 52 52 53 53 54 55 54 52 50 51 47 46 46 46 45 45
49 36 34 30 35 37 37 41 39 36 30 30 31 35 42 42 44 44 45 47 48 48 49 50 50 49 50 50 48 49 49 50 50 50 48 47 46 45 44 44 44 44 44 43
42 35 33 37 39 39 39 39 39 36 36 32 36 36 41 40 41 42 45 46 47 48 49 48 47 45 45 45 46 46 46 46 47 46 45 42 43 43 43 43 42 42 42 42
40 35 34 33 39 39 37 40 39 40 39 38 38 38 42 42 41 42 43 45 45 46 46 46 46 46 45 43 43 44 43 44 45 44 42 43 43 42 41 41 40 40 40 39
38 34 31 29 36 37 36 40 41 40 40 40 35 41 41 42 45 42 42 45 45 45 46 45 45 43 43 43 43 41 41 42 42 42 42 42 42 41 40 40 40 38 37 37
35 34 32 29 33 28 40 43 45 43 44 43 42 43 44 43 43 43 44 45 45 45 45 44 43 42 42 42 42 42 42 41 41 41 41 41 41 40 39 39 38 37 36 36
39 35 31 26 26 35 40 42 43 41 42 45 44 43 42 43 42 42 47 46 46 45 44 43 42 42 41 41 41 41 40 41 41 40 39 40 40 39 38 37 36 35 35 34
38 36 33 28 26 27 40 44 46 45 36 45 46 44 43 41 37 40 42 46 45 45 44 42 42 41 40 40 41 40 39 39 39 39 39 39 39 38 37 36 35 34 33 35
31 30 29 29 25 33 43 46 46 33 39 45 46 45 42 41 43 44 42 42 43 43 43 42 42 41 40 40 41 39 38 37 39 40 39 38 37 36 35 34 33 32 32 32
33 28 26 28 26 28 46 45 42 45 43 45 46 46 44 44 42 42 42 41 42 41 41 41 40 39 38 40 40 37 37 37 38 37 37 35 34 38 37 32 31 31 30 29
34 39 34 35 36 46 46 46 47 47 48 47 46 47 47 44 42 42 41 40 40 41 40 40 39 37 37 38 39 37 36 37 36 35 33 33 34 33 32 31 30 30 30 29
38 40 38 39 44 45 47 48 48 49 48 49 48 48 45 44 43 42 40 40 39 39 39 39 38 37 35 37 37 36 37 37 35 33 32 32 32 32 30 31 30 29 29 28
40 40 38 37 43 44 48 48 49 49 49 49 48 48 47 45 42 42 41 40 40 39 39 39 38 37 35 36 36 36 36 36 33 31 31 30 30 29 28 29 29 31 30 32
40 39 39 39 50 46 45 50 48 48 49 49 48 45 45 46 43 42 41 41 41 39 38 37 37 36 35 35 35 35 36 35 33 31 30 31 29 28 28 28 28 38 40 40

GFSCGP_sfc_temp_111.txt.gz
Temp
56 53 49 51 51 51 49 45 45 50 56 51 51 51 54 59 58 58 60 62 64 64 69 69 70 71 70 70 69 70 69 70 68 64 62 62 62 63 66 69 68 65 64 61
52 49 55 55 53 51 49 47 46 50 54 51 49 49 54 56 56 57 57 58 58 60 65 66 67 69 69 69 68 69 69 68 67 66 65 63 63 63 64 62 63 62 62 61
47 54 56 54 52 50 50 46 46 45 49 50 48 46 49 53 55 57 58 57 58 57 58 62 64 67 68 68 67 68 69 68 67 66 62 60 61 60 59 59 57 59 61 61
50 55 53 51 49 51 43 51 49 46 44 39 47 34 45 49 51 53 55 56 56 57 59 60 62 66 67 68 67 68 69 69 67 64 62 61 59 56 57 54 54 54 55 55
50 50 49 49 52 51 49 52 47 46 42 42 41 36 44 47 44 45 52 55 57 59 59 59 61 65 68 69 67 67 68 68 65 63 64 61 59 57 54 54 53 54 54 55
50 54 53 53 54 53 53 48 46 43 41 36 38 36 41 40 41 45 52 53 55 59 61 62 63 67 67 68 68 67 66 65 63 62 61 60 56 54 53 53 52 53 54 54
44 50 53 54 50 52 49 43 34 35 32 33 41 38 40 42 48 48 50 51 53 56 58 61 63 64 65 65 66 65 64 60 61 61 60 59 58 58 55 54 54 53 53 53
37 39 48 53 51 47 44 42 33 26 29 32 41 34 39 45 50 53 53 51 52 52 54 56 60 62 63 62 62 61 61 60 61 61 60 60 60 59 59 57 56 54 54 54
38 38 49 51 53 50 46 40 44 34 33 32 36 43 44 47 48 50 50 50 50 50 51 53 56 59 61 61 61 61 61 60 60 59 59 59 60 59 58 58 57 56 56 56
45 36 46 49 52 50 49 48 39 37 27 28 37 37 38 39 41 47 48 48 48 50 51 51 53 56 58 59 60 61 61 60 61 61 61 59 60 58 57 57 55 55 54 54
46 42 43 46 46 45 45 44 43 41 38 32 31 38 48 43 45 46 48 50 48 49 50 51 52 53 54 54 54 55 54 54 54 55 56 55 54 54 54 54 55 56 55 55
47 40 36 43 48 48 48 45 42 36 35 37 36 39 49 48 47 50 49 51 51 51 51 51 53 55 54 52 52 53 52 53 53 55 56 55 54 54 53 53 54 55 53 53
47 40 36 41 46 48 45 45 45 42 39 36 35 42 49 49 49 49 50 50 51 52 52 52 53 53 53 52 53 53 53 54 55 55 53 53 53 52 52 52 53 54 55 55
50 40 39 36 40 42 40 43 44 42 37 38 39 42 47 47 47 48 49 50 52 52 51 52 52 51 50 52 53 52 52 53 53 53 51 50 51 51 51 52 52 52 53 53
45 39 38 39 41 40 40 41 41 40 42 41 43 41 47 48 48 49 50 50 51 51 51 50 50 51 51 51 51 52 51 52 53 52 51 49 50 51 51 51 51 51 51 51
43 40 38 36 42 40 38 41 41 41 43 42 42 43 50 50 50 50 50 50 49 49 49 50 50 51 50 50 50 50 50 50 53 51 49 49 50 50 49 49 50 50 49 49
41 38 36 35 38 39 39 43 43 44 45 46 42 48 48 48 49 49 49 50 50 49 49 49 49 49 49 49 50 49 49 51 51 51 50 50 50 49 49 49 49 48 47 49
38 37 36 34 36 34 45 48 48 47 47 46 46 48 49 50 51 52 52 51 50 50 49 49 49 48 49 49 49 49 50 50 50 49 49 49 49 47 47 48 47 47 48 47
41 38 35 32 32 39 44 45 46 45 47 48 47 48 49 49 50 51 51 52 53 52 51 50 50 49 48 48 48 48 48 48 49 48 48 48 48 47 47 46 46 46 47 46
39 39 37 32 30 31 44 48 51 50 42 49 49 48 46 48 47 50 50 51 51 51 50 48 48 48 48 47 48 48 47 48 47 47 46 47 47 46 45 45 44 44 44 44
34 35 33 33 31 37 45 48 50 42 45 48 50 49 46 47 51 50 49 49 50 49 48 47 47 48 47 47 48 46 46 46 45 46 45 44 44 44 44 43 43 42 42 42
35 31 30 32 30 31 48 48 46 50 49 51 49 49 47 49 48 47 47 46 46 46 46 46 46 45 45 47 48 45 44 44 44 44 43 42 43 44 43 42 41 41 40 40
38 41 37 38 39 48 49 50 51 51 52 52 51 51 50 48 48 46 45 44 45 45 45 46 45 43 44 45 47 45 42 43 43 42 41 41 41 41 41 41 40 40 39 39
41 42 41 41 46 46 49 51 50 51 51 53 52 52 49 49 47 45 44 44 44 44 44 44 43 43 42 44 44 44 43 43 42 41 40 40 41 40 39 40 40 39 38 38
42 42 40 41 45 46 49 50 51 51 50 51 52 52 50 49 46 46 44 44 44 44 43 44 44 43 41 42 42 42 42 42 40 40 39 39 39 38 38 38 38 39 40 39
41 41 41 43 49 51 49 53 52 50 51 51 50 50 49 49 48 46 45 45 44 43 42 42 42 42 40 41 41 41 41 41 40 39 39 39 38 37 37 37 37 39 39 40

GFSCGP_sfc_temp_114.txt.gz
Temp
66 64 59 61 61 60 58 56 55 60 63 57 58 57 60 63 65 64 67 70 73 73 78 77 79 78 76 74 74 75 74 77 77 67 65 65 68 73 76 79 79 77 76 71
64 60 63 63 62 59 60 56 56 59 59 57 56 55 59 62 62 63 64 65 68 70 76 77 76 77 75 75 72 73 73 75 75 70 66 67 65 69 73 74 75 74 74 70
58 62 63 61 61 58 60 55 54 53 58 57 55 53 56 63 64 64 64 66 68 68 70 73 73 76 77 74 73 74 74 75 73 70 64 62 61 62 63 66 65 66 70 69
60 63 59 60 60 59 54 59 55 53 53 48 55 47 55 58 56 57 61 62 64 67 71 73 73 73 77 73 72 74 73 74 73 69 65 64 63 60 60 55 54 54 57 57
59 59 57 57 59 59 56 57 54 53 53 51 51 44 50 53 44 50 55 57 61 65 69 71 75 75 76 77 72 72 68 68 66 65 63 63 60 57 56 53 53 53 54 56
59 62 59 60 62 59 61 56 53 53 52 48 46 42 47 40 41 45 51 55 55 57 64 71 74 74 75 76 71 69 69 67 65 65 64 60 56 53 52 52 52 53 54 55
58 58 61 60 58 61 60 55 44 45 42 42 50 46 44 46 47 48 50 51 53 56 57 62 71 73 73 70 68 68 66 61 62 61 59 57 55 54 53 53 53 53 54 54
49 51 57 60 57 53 53 51 40 31 36 38 49 38 44 48 54 55 54 52 52 53 54 56 62 66 67 67 64 62 61 60 61 59 58 59 59 56 56 56 55 55 55 56
49 50 59 58 59 56 55 49 51 38 41 40 45 54 52 53 57 55 53 51 49 50 52 53 57 61 61 61 61 61 61 60 61 60 60 60 61 62 60 59 58 58 57 55
54 46 55 57 58 58 56 56 47 48 33 34 47 48 43 47 52 55 55 51 49 50 51 51 52 54 57 59 61 61 63 63 62 62 62 62 63 62 61 58 56 56 56 55
56 51 54 54 54 52 55 54 52 50 47 40 41 46 56 53 53 54 56 54 50 49 50 51 51 51 53 54 54 55 56 59 57 57 57 56 55 53 53 53 54 53 53 53
56 53 49 52 57 56 55 53 52 47 43 48 45 49 59 57 55 57 57 56 53 52 53 55 53 53 53 53 53 52 53 53 54 57 55 54 55 55 54 54 55 57 56 57
56 52 48 50 53 55 53 53 53 50 49 46 44 50 59 58 58 57 55 58 54 55 55 56 58 58 55 53 51 51 52 54 59 59 57 57 56 56 56 57 58 60 61 60
57 52 49 47 50 52 50 51 53 51 48 50 51 52 56 55 55 57 54 58 56 56 55 57 59 56 57 57 57 57 57 58 59 59 59 58 57 58 59 58 59 60 62 61
55 49 50 52 53 52 50 49 51 48 53 49 51 50 56 57 57 58 58 57 58 57 53 56 58 59 60 58 59 60 59 59 59 58 58 58 59 59 59 58 59 59 60 60
53 50 48 48 50 48 46 51 51 51 51 51 53 52 61 60 60 59 59 58 57 57 57 58 58 59 59 60 59 59 59 61 62 60 59 59 59 58 58 59 59 58 58 58
51 50 48 47 50 50 49 53 52 53 55 56 52 57 59 57 57 59 59 59 59 58 58 58 59 59 60 60 60 59 61 62 61 60 60 60 59 57 57 58 57 56 56 57
50 48 49 46 49 42 52 57 56 55 57 58 56 57 58 60 61 63 63 62 60 59 59 59 59 59 59 60 60 60 61 61 60 59 58 59 58 56 57 56 55 56 56 55
53 51 46 43 45 52 54 53 54 53 57 61 59 58 59 58 59 60 63 65 64 62 62 62 62 60 60 59 60 59 59 59 58 57 57 57 57 55 55 54 54 54 55 54
48 52 47 44 38 39 53 56 59 58 50 60 61 59 57 57 54 62 63 63 63 64 62 60 60 60 60 59 60 58 57 57 56 56 55 56 56 54 53 53 52 53 53 52
44 45 43 45 42 49 59 58 58 48 54 59 61 61 59 57 63 62 64 62 64 62 60 60 59 59 59 59 59 57 57 55 55 55 54 54 54 53 52 52 52 51 50 50
46 42 42 45 40 38 59 55 53 62 60 60 61 62 59 62 58 58 59 59 59 58 57 58 58 58 58 59 59 57 55 54 54 53 52 52 52 51 51 50 50 50 49 48
47 54 51 51 53 60 60 61 64 62 63 62 62 63 62 60 59 58 56 57 57 57 57 58 57 55 56 58 59 56 53 53 52 52 51 50 50 51 50 50 49 49 47 46
52 54 50 50 61 57 57 61 62 63 63 64 64 64 62 61 62 59 57 56 56 56 55 57 56 54 54 56 57 56 53 53 52 51 50 50 49 49 50 49 49 47 46 45
56 53 54 54 59 57 58 60 64 64 62 62 62 62 62 62 61 60 56 55 55 55 54 55 55 54 53 54 54 53 52 52 51 50 49 48 48 48 48 47 47 45 47 43
52 55 52 55 64 64 65 64 65 62 61 63 62 61 61 62 61 59 57 56 55 53 53 53 54 53 52 52 52 51 51 51 50 49 48 48 47 47 47 47 47 41 40 40

GFSCGP_sfc_temp_117.txt.gz
Temp
72 66 62 64 65 64 62 61 60 64 66 61 61 60 62 66 67 66 66 70 74 78 82 83 83 84 82 74 68 67 69 75 73 75 72 69 68 72 77 80 81 80 79 79
67 63 67 67 67 65 64 61 60 63 65 62 61 59 63 66 64 65 67 67 70 73 77 81 81 82 81 78 69 68 70 74 75 75 71 69 67 70 76 78 78 76 76 75
62 66 68 66 64 62 62 58 57 56 63 64 61 56 60 63 63 62 63 64 68 71 73 77 79 80 81 78 73 72 69 75 74 74 69 65 62 62 68 73 73 72 71 71
65 68 64 64 63 62 55 62 58 57 56 52 62 48 57 58 57 57 59 59 63 66 71 76 77 77 80 80 77 73 70 72 74 71 65 63 61 59 61 60 61 63 68 66
62 62 61 60 61 64 59 63 58 58 57 57 56 48 54 57 48 51 54 55 57 60 63 71 77 79 80 81 80 75 68 66 66 66 65 65 62 60 59 56 55 54 57 59
64 68 64 64 65 65 65 64 59 59 57 47 53 47 50 46 45 47 52 53 54 56 58 66 77 80 79 80 75 70 66 64 64 64 65 61 57 55 54 54 53 54 54 55
64 63 66 65 61 66 63 59 46 45 45 45 55 49 48 53 52 51 49 50 52 54 55 59 75 76 77 74 70 67 64 62 64 62 60 58 56 55 55 54 53 53 54 54
54 52 61 65 60 56 58 56 42 30 38 41 54 42 48 58 58 57 54 51 51 51 53 55 64 67 68 68 64 61 61 60 60 59 58 58 56 55 54 55 56 56 55 55
54 54 64 62 63 62 58 53 55 43 46 42 50 55 58 62 61 60 54 50 48 50 51 52 55 60 61 61 61 61 60 59 59 60 60 60 59 59 58 57 58 58 56 57
59 51 61 62 63 62 59 60 50 52 34 38 51 51 50 55 56 59 54 49 48 50 51 51 52 53 55 58 60 61 61 60 60 62 62 61 62 60 59 59 58 58 56 55
61 56 57 60 58 57 59 58 58 54 51 43 43 48 60 58 58 57 56 50 49 49 50 50 51 52 53 57 61 60 57 58 56 55 56 55 53 53 53 51 52 54 54 54
61 57 53 57 62 62 60 57 58 49 47 52 49 49 64 62 61 60 55 55 53 53 52 52 52 52 51 51 54 58 57 56 56 55 56 56 56 52 52 55 54 54 54 53
61 56 51 52 55 59 57 59 57 57 55 51 46 51 64 64 62 60 60 55 54 55 56 56 56 54 53 52 54 55 56 55 56 56 55 56 56 58 58 58 59 59 60 60
58 57 53 50 54 58 53 57 57 55 49 53 55 55 60 60 59 60 60 57 54 54 57 59 57 59 58 57 57 60 60 61 60 59 58 58 59 58 60 61 62 62 63 62
58 52 56 58 58 57 55 54 55 53 55 50 56 54 60 61 61 61 61 62 60 57 57 60 61 61 60 59 59 60 60 61 62 60 59 59 60 61 61 60 61 61 61 61
59 53 54 52 59 55 52 55 56 56 57 56 57 56 66 65 65 62 63 61 60 60 59 61 62 63 62 61 61 60 61 61 63 61 59 60 59 60 59 60 59 59 59 59
56 54 52 51 56 55 51 57 58 58 60 59 54 61 64 61 61 63 62 62 61 61 61 61 62 63 63 63 63 62 63 64 63 61 61 60 60 59 59 59 58 57 57 58
55 53 53 49 54 44 55 62 61 59 61 63 61 61 63 63 65 66 67 65 63 62 62 63 63 63 63 64 64 64 64 63 62 61 61 61 59 58 58 58 57 57 57 56
58 55 49 45 48 56 57 59 56 56 59 65 63 63 63 64 64 63 68 68 66 65 65 65 65 64 63 63 64 63 62 62 61 60 59 59 59 57 57 55 55 55 55 55
55 55 51 50 41 41 57 60 63 62 51 66 66 64 62 61 54 63 67 68 67 67 66 65 64 64 63 63 64 62 60 60 59 59 58 58 58 56 54 54 53 53 54 52
46 48 45 48 45 53 64 62 63 49 54 64 66 66 63 59 65 68 69 67 69 67 65 65 64 63 62 63 63 60 60 59 58 58 57 57 56 55 54 53 53 52 52 51
49 46 46 50 45 42 65 59 55 63 64 66 66 67 64 66 63 65 67 65 65 64 63 63 62 62 62 63 62 60 58 58 58 57 55 55 55 53 54 52 51 51 50 49
50 59 55 55 55 64 64 64 67 68 68 66 67 67 67 65 64 63 63 64 64 64 62 63 62 61 61 61 62 59 57 57 56 55 53 53 53 53 52 51 50 50 49 47
59 65 56 55 64 62 63 66 66 66 67 69 69 69 67 65 66 64 63 63 62 62 61 62 61 59 58 60 61 60 57 57 56 54 53 52 52 51 51 51 50 48 48 46
63 59 57 58 64 62 64 66 67 66 67 68 69 68 67 67 66 66 63 62 62 61 61 61 60 58 57 59 59 58 56 56 54 54 52 51 51 50 50 49 48 47 48 43
59 58 57 58 68 66 68 69 68 63 66 67 66 66 66 66 65 67 64 63 62 60 60 59 59 58 57 57 56 55 55 55 54 52 51 51 50 49 48 48 47 43 42 41

GFSCGP_sfc_temp_120.txt.gz
Temp
70 61 56 60 62 62 60 58 57 60 64 58 58 57 60 62 60 58 59 60 63 67 73 75 76 75 75 73 70 69 66 67 68 69 68 67 66 65 69 72 71 70 69 68
64 56 64 67 65 62 61 57 55 60 65 60 58 58 59 60 58 58 58 58 61 63 66 72 72 72 73 71 66 64 66 64 63 67 68 66 67 66 70 71 69 68 68 67
58 63 68 65 62 60 58 54 52 52 59 62 57 51 56 60 59 59 60 58 59 59 61 66 71 69 71 71 64 62 63 64 63 67 66 63 63 63 66 67 63 64 66 66
62 68 64 61 61 60 51 60 59 56 53 45 57 39 49 53 52 53 55 55 56 56 58 62 65 69 68 70 65 64 65 64 65 68 64 64 63 61 60 56 57 60 63 63
59 60 58 58 59 62 55 61 58 56 52 50 51 41 48 52 46 48 51 54 54 56 58 58 61 65 72 73 68 66 64 63 64 64 65 62 61 58 57 57 55 54 55 56
62 67 63 61 63 64 64 60 59 54 50 39 47 43 41 43 45 49 52 51 52 53 55 57 60 63 70 69 67 62 64 62 63 63 61 60 57 56 55 54 54 53 53 54
61 61 64 65 58 63 59 51 37 36 36 35 51 44 40 50 51 50 48 49 50 52 53 55 59 66 65 64 64 64 63 61 61 61 60 58 57 57 55 54 54 53 52 52
50 48 59 64 58 53 54 51 35 28 30 34 50 36 44 56 56 55 52 50 50 51 52 52 55 60 62 61 61 61 60 59 60 59 58 58 57 55 55 54 54 54 55 54
50 51 62 63 63 59 53 46 51 40 42 36 41 47 53 57 56 55 51 50 48 50 50 51 53 56 60 60 60 59 59 59 59 58 58 57 57 56 54 55 56 56 56 56
56 46 60 62 61 60 55 57 43 43 28 30 42 42 41 48 51 53 49 47 48 49 50 50 51 53 57 57 59 59 59 58 59 58 57 56 58 58 58 57 56 56 56 55
57 52 52 57 55 53 52 51 52 49 45 34 34 37 52 50 52 50 51 49 47 49 49 50 50 52 52 55 55 55 55 54 54 54 53 52 52 53 53 52 53 53 53 53
57 51 46 52 59 61 56 52 52 40 39 43 41 39 57 54 54 53 52 50 51 49 51 51 50 51 52 52 53 54 54 53 54 55 55 53 53 54 54 53 53 53 52 53
56 50 43 45 49 54 52 56 54 51 48 41 35 39 58 56 54 55 51 50 52 52 54 53 51 51 52 54 54 54 54 54 56 57 56 56 56 55 54 54 56 57 54 52
56 50 47 42 47 52 49 54 54 49 39 43 43 45 52 54 53 53 51 51 53 54 54 55 54 53 54 56 57 56 56 57 57 57 56 54 53 55 57 55 57 54 55 55
53 46 52 54 55 55 53 52 52 48 48 41 47 48 51 54 54 54 55 54 54 54 56 57 54 55 56 56 53 53 53 55 54 54 53 51 51 52 53 53 53 53 52 52
54 46 50 48 55 55 51 53 53 52 52 51 51 50 57 57 56 54 54 55 54 54 55 56 56 54 53 51 51 52 52 53 53 52 51 52 51 52 50 50 50 50 50 49
50 47 46 43 53 52 45 52 53 53 55 53 46 50 56 55 57 55 55 56 55 55 55 55 55 54 53 53 54 52 53 54 52 51 51 51 51 50 49 50 49 48 47 46
50 48 46 39 47 35 49 57 57 56 58 57 56 56 56 56 58 58 58 56 55 56 56 55 54 54 54 54 54 54 54 53 52 51 51 51 51 49 49 48 46 46 46 44
52 49 41 36 39 49 52 54 53 51 52 58 56 57 58 58 56 54 61 60 58 56 56 56 55 54 53 53 54 53 52 52 52 50 50 50 50 48 47 45 44 44 43 42
51 50 43 42 33 33 50 56 59 56 41 58 59 57 56 54 43 48 59 61 59 59 57 55 55 55 53 53 53 52 51 50 49 49 49 49 49 47 45 43 43 43 42 43
41 41 37 38 36 46 56 57 57 40 46 56 58 58 55 50 52 57 61 60 60 59 57 57 55 53 52 54 53 51 50 48 50 50 50 48 47 45 44 43 42 41 41 41
42 38 36 40 36 35 58 54 48 53 55 58 58 58 56 56 57 58 59 58 58 56 56 56 53 52 53 53 52 50 48 49 50 49 48 46 44 48 47 41 40 41 39 37
43 50 45 46 45 56 59 55 59 60 57 57 58 58 59 56 56 57 56 57 56 56 56 56 53 51 52 52 52 49 47 50 48 47 44 44 45 44 43 40 39 38 39 37
52 56 48 50 55 56 58 58 59 59 59 60 61 60 59 57 56 55 55 56 56 56 55 55 53 51 49 51 53 50 49 50 48 45 43 43 41 41 41 42 41 38 37 35
53 55 51 50 53 56 58 58 59 59 60 60 61 61 59 58 57 56 55 55 56 56 55 55 53 52 51 51 51 51 50 49 47 44 43 42 40 40 39 39 37 37 34 36
54 52 50 49 58 57 58 61 61 58 58 60 59 59 60 59 57 58 56 57 56 55 54 54 52 51 51 51 50 49 49 48 46 44 42 41 39 39 38 37 34 44 42 42